[[{"header":{"parameterUnit":"m.s-1","parameterCategory":1,"la1":31.0,"la2":29.5877,"lo1":-88.7671,"lo2":-86.6584,"dy":0.0162,"dx":0.0185,"nx":115,"ny":88,"refTime":"2026-03-02T12:00:00:Z","depth":0,"parameterNumber":2,"parameterNumberName":"U-component_of_WINDS"},"data":[0.0,0.0,0.0,0.0,0.0,0.0,0.0,0.0,0.0,0.0,0.0,0.0,0.0,0.0,0.0,0.0,0.0,0.0,0.0,0.0,0.0,0.0,0.0,0.0,0.0,0.0,0.0,0.0,0.0,0.0,0.0,0.0,0.0,0.0,0.0,0.0,0.0,0.0,0.0,0.0,0.0,0.0,0.0,0.0,0.0,0.0,0.0,0.0,0.0,0.0,0.0,0.0,0.0,0.0,0.0,0.0,0.0,0.0,0.0,0.0,0.0,0.0,0.0,0.0,0.0,0.0,0.0,0.0,0.0,0.0,0.0,0.0,0.0,0.0,0.0,0.0,0.0,0.0,0.0,0.0,0.0,0.0,0.0,0.0,0.0,0.0,0.0,0.0,0.0,0.0,0.0,0.0,0.0,0.0,0.0,0.0,0.0,0.0,0.0,0.0,0.0,0.0,0.0,0.0,0.0,0.0,0.0,0.0,0.0,0.0,0.0,0.0,0.0,0.0,0.0,0.0,0.0,0.0,0.0,0.0,0.0,0.0,0.0,0.0,0.0,0.0,0.0,0.0,0.0,0.0,0.0,0.0,0.0,0.0,0.0,0.0,0.0,0.0,0.0,0.0,0.0,0.0,0.0,0.0,0.0,0.0,0.0,0.0,0.0,0.0,0.0,0.0,0.0,0.0,0.0,0.0,0.0,0.0,0.0,0.0,0.0,0.0,0.0,0.0,0.0,0.0,0.0,0.0,0.0,0.0,0.0,0.0,0.0,0.0,0.0,0.0,0.0,0.0,0.0,0.0,0.0,0.0,0.0,0.0,0.0,0.0,0.0,0.0,0.0,0.0,0.0,0.0,0.0,0.0,0.0,0.0,0.0,0.0,0.0,0.0,0.0,0.0,0.0,0.0,0.0,0.0,0.0,0.0,0.0,0.0,0.0,0.0,0.0,0.0,0.0,0.0,0.0,0.0,0.0,0.0,0.0,0.0,0.0,0.0,0.0,0.0,0.0,0.0,0.0,0.0,0.0,0.0,0.0,0.0,0.0,0.0,0.0,0.0,0.0,0.0,0.0,0.0,0.0,0.0,0.0,0.0,0.0,0.0,0.0,0.0,0.0,0.0,0.0,0.0,0.0,0.0,0.0,0.0,0.0,0.0,0.0,0.0,0.0,0.0,0.0,0.0,0.0,0.0,0.0,0.0,0.0,0.0,0.0,0.0,0.0,0.0,0.0,0.0,0.0,0.0,0.0,0.0,0.0,0.0,0.0,0.0,0.0,0.0,0.0,0.0,0.0,0.0,0.0,0.0,0.0,0.0,0.0,0.0,0.0,0.0,0.0,0.0,0.0,0.0,0.0,0.0,0.0,0.0,0.0,0.0,0.0,0.0,0.0,0.0,0.0,0.0,0.0,0.0,0.0,0.0,0.0,0.0,0.0,0.0,0.0,0.0,0.0,0.0,0.0,0.0,0.0,0.0,0.0,0.0,0.0,0.0,0.0,0.0,0.0,0.0,0.0,0.0,0.0,0.0,0.0,0.0,0.0,0.0,0.0,0.0,0.0,0.0,0.0,0.0,0.0,0.0,0.0,0.0,0.0,0.0,0.0,0.0,0.0,0.0,0.0,0.0,0.0,0.0,0.0,0.0,0.0,0.0,0.0,0.0,0.0,0.0,0.0,0.0,0.0,0.0,0.0,0.0,0.0,0.0,0.0,0.0,0.0,0.0,0.0,0.0,0.0,0.0,0.0,0.0,0.0,0.0,0.0,0.0,0.0,0.0,0.0,0.0,0.0,0.0,0.0,0.0,0.0,0.0,0.0,0.0,0.0,0.0,0.0,0.0,0.0,0.0,0.0,0.0,0.0,0.0,0.0,0.0,0.0,0.0,0.0,0.0,0.0,0.0,0.0,0.0,0.0,0.0,0.0,0.0,0.0,0.0,0.0,0.0,0.0,0.0,0.0,0.0,0.0,0.0,0.0,0.0,0.0,0.0,0.0,0.0,0.0,0.0,0.0,0.0,0.0,0.0,0.0,0.0,0.0,0.0,0.0,0.0,0.0,0.0,0.0,0.0,0.0,0.0,0.0,0.0,0.0,0.0,0.0,0.0,0.0,0.0,0.0,0.0,0.0,0.0,0.0,0.0,0.0,0.0,0.0,0.0,0.0,0.0,0.0,0.0,0.0,0.0,0.0,0.0,0.0,0.0,0.0,0.0,0.0,0.0,0.0,0.0,0.0,0.0,0.0,0.0,0.0,0.0,0.0,0.0,0.0,0.0,0.0,0.0,0.0,0.0,0.0,0.0,0.0,0.0,0.0,0.0,0.0,0.0,0.0,0.0,0.0,0.0,0.0,0.0,0.0,0.0,0.0,0.0,0.0,0.0,0.0,0.0,0.0,0.0,0.0,0.0,0.0,0.0,0.0,0.0,0.0,0.0,0.0,0.0,0.0,0.0,0.0,0.0,0.0,0.0,0.0,0.0,0.0,0.0,0.0,0.0,0.0,0.0,0.0,0.0,0.0,0.0,0.0,0.0,0.0,0.0,0.0,0.0,0.0,0.0,0.0,0.0,0.0,0.0,0.0,0.0,0.0,0.0,0.0,0.0,0.0,0.0,0.0,0.0,0.0,0.0,0.0,0.0,0.0,0.0,0.0,0.0,0.0,0.0,0.0,0.0,0.0,0.0,0.0,0.0,0.0,0.0,0.0,0.0,0.0,0.0,0.0,0.0,0.0,0.0,0.0,0.0,0.0,0.0,0.0,0.0,0.0,0.0,0.0,0.0,0.0,0.0,0.0,0.0,0.0,0.0,0.0,0.0,0.0,0.0,0.0,0.0,0.0,0.0,0.0,0.0,0.0,0.0,0.0,0.0,0.0,0.0,0.0,0.0,0.0,0.0,0.0,0.0,0.0,0.0,0.0,0.0,0.0,0.0,0.0,0.0,0.0,0.0,0.0,0.0,0.0,0.0,0.0,0.0,0.0,0.0,0.0,0.0,0.0,0.0,0.0,0.0,0.0,0.0,0.0,0.0,0.0,0.0,0.0,0.0,0.0,0.0,0.0,0.0,0.0,0.0,0.0,0.0,0.0,0.0,0.0,0.0,0.0,0.0,0.0,0.0,0.0,0.0,0.0,0.0,0.0,0.0,0.0,0.0,0.0,0.0,0.0,0.0,0.0,0.0,0.0,0.0,0.0,0.0,0.0,0.0,0.0,0.0,0.0,0.0,0.0,0.0,0.0,0.0,0.0,0.0,0.0,0.0,0.0,0.0,0.0,0.0,0.0,0.0,0.0,0.0,0.0,0.0,0.0,0.0,0.0,0.0,0.0,0.0,0.0,0.0,0.0,0.0,0.0,0.0,0.0,0.0,0.0,0.0,0.0,0.0,0.0,0.0,0.0,0.0,0.0,0.0,0.0,0.0,0.0,0.0,0.0,0.0,0.0,0.0,0.0,0.0,0.0,0.0,0.0,0.0,0.0,0.0,0.0,0.0,0.0,0.0,0.0,0.0,0.0,0.0,0.0,0.0,0.0,0.0,0.0,0.0,0.0,0.0,0.0,0.0,0.0,0.0,0.0,0.0,0.0,0.0,0.0,0.0,0.0,0.0,0.0,0.0,0.0,0.0,0.0,0.0,0.0,0.0,0.0,0.0,0.0,0.0,0.0,0.0,0.0,0.0,0.0,0.0,0.0,0.0,0.0,0.0,0.0,0.0,0.0,0.0,0.0,0.0,0.0,0.0,0.0,0.0,0.0,0.0,0.0,0.0,0.0,0.0,0.0,0.0,0.0,0.0,0.0,0.0,0.0,0.0,0.0,0.0,0.0,0.0,0.0,0.0,0.0,0.0,0.0,0.0,0.0,0.0,0.0,0.0,0.0,0.0,0.0,0.0,0.0,0.0,0.0,0.0,0.0,0.0,0.0,0.0,0.0,0.0,0.0,0.0,0.0,0.0,0.0,0.0,0.0,0.0,0.0,0.0,0.0,0.0,0.0,0.0,0.0,0.0,0.0,0.0,0.0,0.0,0.0,0.0,0.0,0.0,0.0,0.0,0.0,0.0,0.0,0.0,0.0,0.0,0.0,0.0,0.0,0.0,0.0,0.0,0.0,0.0,0.0,0.0,0.0,0.0,0.0,0.0,0.0,0.0,0.0,0.0,0.0,0.0,0.0,0.0,0.0,0.0,0.0,0.0,0.0,0.0,0.0,0.0,0.0,0.0,0.0,0.0,0.0,0.0,0.0,0.0,0.0,0.0,0.0,0.0,0.0,0.0,0.0,0.0,0.0,0.0,-3.295,0.0,0.0,0.0,0.0,0.0,0.0,0.0,0.0,0.0,0.0,0.0,0.0,0.0,0.0,0.0,0.0,0.0,0.0,0.0,0.0,0.0,0.0,0.0,0.0,0.0,0.0,0.0,0.0,0.0,0.0,0.0,0.0,0.0,0.0,0.0,0.0,0.0,0.0,0.0,0.0,0.0,0.0,0.0,0.0,0.0,0.0,0.0,0.0,0.0,0.0,0.0,0.0,0.0,0.0,0.0,0.0,0.0,0.0,0.0,0.0,0.0,0.0,0.0,0.0,0.0,0.0,0.0,0.0,0.0,0.0,0.0,0.0,0.0,0.0,0.0,0.0,0.0,0.0,0.0,0.0,0.0,0.0,0.0,0.0,0.0,0.0,0.0,0.0,0.0,0.0,0.0,0.0,0.0,0.0,0.0,0.0,0.0,0.0,0.0,0.0,0.0,0.0,0.0,0.0,0.0,0.0,0.0,0.0,0.0,0.0,-3.297,-3.2811,-3.309,-3.2922,-3.2217,0.0,0.0,0.0,0.0,0.0,0.0,0.0,0.0,0.0,0.0,0.0,0.0,0.0,0.0,0.0,0.0,0.0,0.0,0.0,0.0,0.0,0.0,0.0,0.0,0.0,0.0,0.0,0.0,0.0,0.0,0.0,0.0,0.0,0.0,0.0,0.0,0.0,0.0,0.0,0.0,0.0,0.0,0.0,0.0,0.0,0.0,0.0,0.0,0.0,0.0,0.0,0.0,0.0,0.0,0.0,0.0,0.0,0.0,0.0,0.0,0.0,0.0,0.0,0.0,0.0,0.0,0.0,0.0,0.0,0.0,0.0,0.0,0.0,0.0,0.0,0.0,0.0,0.0,0.0,0.0,0.0,0.0,0.0,0.0,0.0,0.0,0.0,0.0,0.0,0.0,0.0,0.0,0.0,0.0,0.0,0.0,0.0,0.0,0.0,0.0,0.0,0.0,0.0,0.0,0.0,0.0,0.0,0.0,0.0,0.0,0.0,0.0,-3.3232,-3.287,-3.1878,0.0,0.0,0.0,0.0,0.0,0.0,0.0,0.0,0.0,0.0,0.0,0.0,0.0,0.0,0.0,0.0,0.0,0.0,0.0,0.0,0.0,0.0,0.0,0.0,0.0,0.0,0.0,0.0,0.0,0.0,0.0,0.0,0.0,0.0,0.0,0.0,0.0,0.0,0.0,0.0,0.0,0.0,0.0,0.0,0.0,0.0,0.0,0.0,0.0,0.0,0.0,0.0,0.0,0.0,0.0,0.0,0.0,0.0,0.0,0.0,0.0,0.0,0.0,0.0,0.0,0.0,0.0,0.0,0.0,0.0,0.0,0.0,0.0,0.0,0.0,0.0,0.0,0.0,0.0,0.0,0.0,0.0,0.0,0.0,0.0,0.0,0.0,0.0,0.0,0.0,0.0,0.0,0.0,0.0,0.0,0.0,0.0,0.0,0.0,0.0,0.0,0.0,0.0,0.0,0.0,0.0,0.0,0.0,0.0,0.0,-3.2861,-3.3954,-3.4535,0.0,-3.2422,0.0,0.0,0.0,0.0,0.0,0.0,0.0,0.0,0.0,0.0,0.0,0.0,0.0,0.0,0.0,0.0,0.0,0.0,0.0,0.0,0.0,0.0,0.0,0.0,0.0,0.0,0.0,0.0,0.0,0.0,0.0,0.0,0.0,0.0,0.0,0.0,0.0,0.0,0.0,0.0,0.0,0.0,0.0,0.0,0.0,0.0,0.0,0.0,0.0,0.0,0.0,0.0,0.0,0.0,0.0,0.0,0.0,0.0,0.0,0.0,0.0,0.0,0.0,0.0,0.0,0.0,0.0,0.0,0.0,0.0,0.0,0.0,0.0,0.0,0.0,0.0,0.0,0.0,0.0,0.0,0.0,0.0,0.0,0.0,0.0,0.0,0.0,0.0,0.0,0.0,0.0,0.0,0.0,0.0,0.0,0.0,0.0,0.0,0.0,0.0,0.0,0.0,0.0,0.0,0.0,0.0,0.0,0.0,0.0,0.0,-3.3611,-3.4096,-3.3483,-3.2581,0.0,0.0,0.0,0.0,0.0,0.0,0.0,0.0,0.0,0.0,0.0,0.0,0.0,0.0,0.0,0.0,0.0,0.0,0.0,0.0,0.0,0.0,0.0,0.0,0.0,0.0,0.0,0.0,0.0,0.0,0.0,0.0,0.0,0.0,0.0,0.0,0.0,0.0,0.0,0.0,0.0,0.0,0.0,0.0,0.0,0.0,0.0,0.0,0.0,0.0,0.0,0.0,0.0,0.0,0.0,0.0,0.0,0.0,0.0,0.0,0.0,0.0,0.0,0.0,0.0,0.0,0.0,0.0,0.0,0.0,0.0,0.0,0.0,0.0,0.0,0.0,0.0,0.0,0.0,0.0,0.0,0.0,0.0,0.0,0.0,0.0,0.0,0.0,0.0,0.0,0.0,0.0,0.0,0.0,0.0,0.0,0.0,0.0,0.0,0.0,0.0,0.0,0.0,0.0,0.0,0.0,0.0,0.0,0.0,0.0,-3.3751,-3.4199,-3.4337,-3.311,-3.1886,-3.0748,0.0,0.0,0.0,0.0,0.0,0.0,0.0,0.0,0.0,0.0,0.0,0.0,0.0,0.0,0.0,0.0,0.0,0.0,0.0,0.0,0.0,0.0,0.0,0.0,0.0,0.0,0.0,0.0,0.0,0.0,0.0,0.0,0.0,0.0,0.0,0.0,0.0,0.0,0.0,0.0,0.0,0.0,0.0,0.0,0.0,0.0,0.0,0.0,0.0,0.0,0.0,0.0,0.0,0.0,0.0,0.0,0.0,0.0,0.0,0.0,0.0,0.0,0.0,0.0,0.0,0.0,0.0,0.0,0.0,0.0,0.0,0.0,0.0,0.0,0.0,0.0,0.0,0.0,0.0,0.0,0.0,0.0,0.0,0.0,0.0,0.0,0.0,0.0,0.0,0.0,0.0,0.0,0.0,0.0,0.0,0.0,0.0,0.0,0.0,0.0,0.0,0.0,0.0,0.0,0.0,0.0,0.0,0.0,-3.5818,-3.4714,-3.4441,-3.5076,-3.4369,-3.2938,0.0,0.0,0.0,0.0,0.0,0.0,0.0,0.0,0.0,0.0,0.0,0.0,0.0,0.0,0.0,0.0,0.0,0.0,0.0,0.0,0.0,0.0,0.0,0.0,0.0,0.0,0.0,0.0,0.0,0.0,0.0,0.0,0.0,0.0,0.0,0.0,0.0,0.0,0.0,0.0,0.0,0.0,0.0,0.0,0.0,0.0,0.0,0.0,0.0,0.0,0.0,0.0,0.0,0.0,0.0,0.0,0.0,0.0,0.0,0.0,0.0,0.0,0.0,0.0,0.0,0.0,0.0,0.0,0.0,0.0,0.0,0.0,0.0,0.0,0.0,0.0,0.0,0.0,0.0,0.0,0.0,0.0,0.0,0.0,0.0,0.0,0.0,0.0,0.0,0.0,0.0,0.0,0.0,0.0,0.0,0.0,0.0,0.0,0.0,0.0,0.0,0.0,0.0,0.0,0.0,0.0,0.0,0.0,0.0,-3.1921,-3.2369,-3.3455,-3.5025,-3.3076,-3.1542,0.0,0.0,0.0,0.0,0.0,0.0,0.0,0.0,0.0,0.0,0.0,0.0,0.0,0.0,0.0,0.0,0.0,0.0,0.0,0.0,0.0,0.0,0.0,0.0,0.0,0.0,0.0,0.0,0.0,0.0,0.0,0.0,0.0,0.0,0.0,0.0,0.0,0.0,0.0,0.0,0.0,0.0,0.0,0.0,0.0,0.0,0.0,0.0,0.0,0.0,0.0,0.0,0.0,0.0,0.0,0.0,0.0,0.0,0.0,0.0,0.0,0.0,0.0,0.0,0.0,0.0,0.0,0.0,0.0,0.0,0.0,0.0,0.0,0.0,0.0,0.0,0.0,0.0,0.0,0.0,0.0,0.0,0.0,0.0,0.0,0.0,0.0,0.0,0.0,0.0,0.0,0.0,0.0,0.0,0.0,0.0,0.0,0.0,0.0,0.0,0.0,0.0,0.0,0.0,0.0,0.0,0.0,0.0,0.0,-3.1007,0.0,-3.3404,-3.43,-3.2267,-3.0472,0.0,0.0,0.0,0.0,0.0,0.0,0.0,0.0,0.0,0.0,0.0,0.0,0.0,0.0,0.0,0.0,0.0,0.0,0.0,0.0,0.0,0.0,0.0,0.0,0.0,0.0,0.0,0.0,0.0,0.0,0.0,0.0,0.0,0.0,0.0,0.0,0.0,0.0,0.0,0.0,0.0,0.0,0.0,0.0,0.0,0.0,0.0,0.0,0.0,0.0,0.0,0.0,0.0,0.0,0.0,0.0,0.0,0.0,0.0,0.0,0.0,0.0,0.0,0.0,0.0,0.0,0.0,0.0,0.0,0.0,0.0,0.0,0.0,0.0,0.0,0.0,0.0,0.0,0.0,0.0,0.0,0.0,0.0,0.0,0.0,0.0,0.0,0.0,0.0,0.0,0.0,0.0,0.0,0.0,0.0,0.0,0.0,0.0,0.0,0.0,0.0,0.0,0.0,0.0,0.0,0.0,0.0,0.0,-3.0937,-3.3837,-3.4628,-3.428,-3.299,-3.2162,-3.0006,0.0,0.0,0.0,0.0,0.0,0.0,0.0,0.0,0.0,0.0,0.0,0.0,0.0,0.0,0.0,0.0,0.0,0.0,0.0,0.0,0.0,0.0,0.0,0.0,0.0,0.0,0.0,0.0,0.0,0.0,0.0,0.0,0.0,0.0,0.0,0.0,0.0,0.0,0.0,0.0,0.0,0.0,0.0,0.0,0.0,0.0,0.0,0.0,0.0,0.0,0.0,0.0,0.0,0.0,0.0,0.0,0.0,0.0,0.0,0.0,0.0,0.0,0.0,0.0,0.0,0.0,0.0,0.0,0.0,0.0,0.0,0.0,0.0,0.0,0.0,0.0,0.0,0.0,0.0,0.0,0.0,0.0,0.0,0.0,0.0,0.0,0.0,0.0,0.0,0.0,0.0,0.0,0.0,0.0,0.0,0.0,0.0,0.0,0.0,0.0,0.0,0.0,0.0,0.0,0.0,0.0,0.0,0.0,0.0,-3.092,-3.2012,-3.3156,-3.4194,-3.1618,-3.0055,0.0,0.0,0.0,0.0,0.0,0.0,0.0,0.0,0.0,0.0,0.0,0.0,0.0,0.0,0.0,0.0,0.0,0.0,0.0,0.0,0.0,0.0,0.0,0.0,0.0,0.0,0.0,0.0,0.0,0.0,0.0,0.0,0.0,0.0,0.0,0.0,0.0,0.0,0.0,0.0,0.0,0.0,0.0,0.0,0.0,0.0,0.0,0.0,0.0,0.0,0.0,0.0,0.0,0.0,0.0,0.0,0.0,0.0,0.0,0.0,0.0,0.0,0.0,0.0,0.0,0.0,0.0,0.0,0.0,0.0,0.0,0.0,0.0,0.0,0.0,0.0,0.0,0.0,0.0,0.0,0.0,0.0,0.0,0.0,0.0,0.0,0.0,0.0,0.0,0.0,0.0,0.0,0.0,0.0,0.0,0.0,0.0,0.0,0.0,0.0,0.0,0.0,0.0,0.0,0.0,0.0,0.0,0.0,0.0,-3.1271,-3.2793,-3.4041,-3.4948,-3.2656,-3.1043,-3.0273,0.0,0.0,0.0,0.0,0.0,0.0,0.0,0.0,0.0,0.0,0.0,0.0,0.0,0.0,0.0,0.0,0.0,0.0,0.0,0.0,0.0,0.0,0.0,0.0,0.0,0.0,0.0,0.0,0.0,0.0,0.0,0.0,0.0,0.0,0.0,0.0,0.0,0.0,0.0,0.0,0.0,0.0,0.0,0.0,0.0,0.0,0.0,0.0,0.0,0.0,0.0,0.0,0.0,0.0,0.0,0.0,0.0,0.0,0.0,0.0,0.0,0.0,0.0,0.0,0.0,0.0,0.0,0.0,0.0,0.0,0.0,0.0,0.0,0.0,0.0,0.0,0.0,0.0,0.0,0.0,0.0,0.0,0.0,0.0,0.0,0.0,0.0,0.0,0.0,0.0,0.0,0.0,0.0,0.0,0.0,0.0,0.0,0.0,0.0,0.0,0.0,0.0,0.0,0.0,0.0,0.0,0.0,0.0,-3.4192,-3.6382,-3.6711,-3.5177,-3.4784,-3.2695,0.0,0.0,0.0,0.0,0.0,0.0,0.0,0.0,0.0,0.0,0.0,0.0,0.0,0.0,0.0,0.0,0.0,0.0,0.0,0.0,0.0,0.0,0.0,0.0,0.0,0.0,0.0,0.0,0.0,0.0,0.0,0.0,0.0,0.0,0.0,0.0,0.0,0.0,0.0,0.0,0.0,0.0,0.0,0.0,0.0,0.0,0.0,0.0,0.0,0.0,0.0,0.0,0.0,0.0,0.0,0.0,0.0,0.0,0.0,0.0,0.0,0.0,0.0,0.0,0.0,0.0,0.0,0.0,0.0,0.0,0.0,0.0,0.0,0.0,0.0,0.0,0.0,0.0,0.0,0.0,0.0,0.0,0.0,0.0,0.0,0.0,0.0,0.0,0.0,0.0,0.0,0.0,0.0,0.0,0.0,0.0,0.0,0.0,0.0,0.0,0.0,0.0,0.0,0.0,0.0,0.0,0.0,0.0,0.0,-3.5582,-3.7793,-3.8488,-3.7475,-3.489,-3.2702,0.0,0.0,0.0,0.0,0.0,0.0,0.0,0.0,0.0,0.0,0.0,0.0,0.0,0.0,0.0,0.0,0.0,0.0,0.0,0.0,0.0,0.0,0.0,0.0,0.0,0.0,0.0,0.0,0.0,0.0,0.0,0.0,0.0,0.0,0.0,0.0,0.0,0.0,0.0,0.0,0.0,0.0,0.0,0.0,0.0,0.0,0.0,0.0,0.0,0.0,0.0,0.0,0.0,0.0,0.0,0.0,0.0,0.0,0.0,0.0,0.0,0.0,0.0,0.0,0.0,0.0,0.0,0.0,0.0,0.0,0.0,0.0,0.0,0.0,0.0,0.0,0.0,0.0,0.0,0.0,0.0,0.0,0.0,0.0,0.0,0.0,0.0,0.0,0.0,0.0,0.0,0.0,0.0,0.0,0.0,0.0,0.0,0.0,0.0,0.0,0.0,0.0,0.0,0.0,0.0,0.0,0.0,0.0,-3.358,-3.6283,-3.8669,-3.9597,-3.8881,-3.6761,-3.4431,0.0,0.0,0.0,0.0,0.0,0.0,0.0,0.0,0.0,0.0,0.0,0.0,0.0,0.0,0.0,0.0,0.0,0.0,0.0,0.0,0.0,0.0,0.0,0.0,0.0,0.0,0.0,0.0,0.0,0.0,0.0,0.0,0.0,0.0,0.0,0.0,0.0,0.0,0.0,0.0,0.0,0.0,0.0,0.0,0.0,0.0,0.0,0.0,0.0,0.0,0.0,0.0,0.0,0.0,0.0,0.0,0.0,0.0,0.0,0.0,0.0,0.0,0.0,0.0,0.0,0.0,0.0,0.0,0.0,0.0,0.0,0.0,0.0,0.0,0.0,0.0,0.0,0.0,0.0,0.0,0.0,0.0,0.0,0.0,0.0,0.0,0.0,0.0,0.0,0.0,0.0,0.0,0.0,0.0,0.0,0.0,0.0,0.0,0.0,0.0,0.0,0.0,0.0,0.0,0.0,0.0,0.0,0.0,-3.4883,-3.66,-3.917,-4.0197,-3.9601,-3.9091,-3.6621,0.0,0.0,0.0,0.0,0.0,0.0,0.0,0.0,0.0,0.0,0.0,0.0,0.0,0.0,0.0,0.0,0.0,0.0,0.0,0.0,0.0,0.0,0.0,0.0,0.0,0.0,0.0,0.0,0.0,0.0,0.0,0.0,0.0,0.0,0.0,0.0,0.0,0.0,0.0,0.0,0.0,0.0,0.0,0.0,0.0,0.0,0.0,0.0,0.0,0.0,0.0,0.0,0.0,0.0,0.0,0.0,0.0,0.0,0.0,0.0,0.0,0.0,0.0,0.0,0.0,0.0,0.0,0.0,0.0,0.0,0.0,0.0,0.0,0.0,0.0,0.0,0.0,0.0,0.0,0.0,0.0,0.0,0.0,0.0,0.0,0.0,0.0,0.0,0.0,0.0,0.0,0.0,0.0,0.0,0.0,0.0,0.0,0.0,0.0,0.0,0.0,0.0,0.0,0.0,0.0,0.0,0.0,0.0,-3.5334,-3.7261,-3.9367,-4.0428,-4.0274,-3.7684,-3.5025,0.0,0.0,0.0,0.0,0.0,0.0,0.0,0.0,0.0,0.0,0.0,0.0,0.0,0.0,0.0,0.0,0.0,0.0,0.0,0.0,0.0,0.0,0.0,0.0,0.0,0.0,0.0,0.0,0.0,0.0,0.0,0.0,0.0,0.0,0.0,0.0,0.0,0.0,0.0,0.0,0.0,0.0,0.0,0.0,0.0,0.0,0.0,0.0,-2.6997,0.0,0.0,0.0,0.0,0.0,0.0,0.0,0.0,0.0,0.0,0.0,0.0,0.0,0.0,0.0,0.0,0.0,0.0,0.0,0.0,0.0,0.0,0.0,0.0,0.0,0.0,0.0,0.0,0.0,0.0,0.0,0.0,0.0,0.0,0.0,0.0,0.0,0.0,0.0,0.0,0.0,0.0,0.0,0.0,0.0,0.0,0.0,0.0,0.0,0.0,0.0,0.0,0.0,0.0,0.0,0.0,0.0,0.0,0.0,-3.5768,-3.7477,-3.9477,-4.0336,-3.9985,-3.7707,-3.5306,0.0,0.0,0.0,0.0,0.0,0.0,0.0,0.0,0.0,0.0,0.0,0.0,0.0,0.0,0.0,0.0,0.0,0.0,0.0,0.0,0.0,0.0,0.0,0.0,0.0,0.0,0.0,0.0,0.0,0.0,0.0,0.0,0.0,0.0,0.0,0.0,0.0,0.0,0.0,0.0,0.0,0.0,0.0,0.0,0.0,0.0,0.0,0.0,0.0,0.0,0.0,0.0,0.0,0.0,0.0,0.0,0.0,0.0,0.0,0.0,0.0,0.0,0.0,0.0,0.0,0.0,0.0,0.0,0.0,0.0,0.0,0.0,0.0,0.0,0.0,0.0,0.0,0.0,0.0,0.0,0.0,0.0,0.0,0.0,0.0,0.0,0.0,0.0,0.0,0.0,0.0,0.0,0.0,0.0,0.0,0.0,0.0,0.0,0.0,0.0,0.0,0.0,0.0,0.0,0.0,0.0,0.0,-3.3475,-3.603,-3.7492,-3.9336,-4.0013,-3.9354,-3.8046,-3.6107,-3.3506,0.0,0.0,0.0,0.0,0.0,0.0,0.0,0.0,0.0,0.0,0.0,0.0,0.0,0.0,0.0,0.0,0.0,0.0,0.0,0.0,0.0,0.0,0.0,0.0,0.0,0.0,0.0,0.0,0.0,0.0,0.0,0.0,0.0,0.0,0.0,0.0,0.0,0.0,-2.4865,-2.5598,0.0,0.0,0.0,0.0,0.0,0.0,0.0,0.0,-2.5874,0.0,0.0,0.0,0.0,0.0,0.0,0.0,0.0,0.0,0.0,0.0,0.0,0.0,0.0,0.0,0.0,0.0,0.0,0.0,0.0,0.0,0.0,0.0,0.0,0.0,0.0,0.0,0.0,0.0,0.0,0.0,0.0,0.0,0.0,0.0,0.0,0.0,0.0,0.0,0.0,0.0,0.0,0.0,0.0,0.0,0.0,0.0,0.0,0.0,0.0,0.0,0.0,0.0,0.0,0.0,0.0,-3.1859,-3.3735,-3.5598,-3.7461,-3.8906,-3.9321,-3.8677,-3.7369,-3.5645,-3.346,0.0,0.0,0.0,0.0,0.0,0.0,0.0,0.0,0.0,0.0,0.0,0.0,0.0,0.0,0.0,0.0,0.0,0.0,0.0,0.0,0.0,0.0,0.0,0.0,0.0,0.0,0.0,0.0,0.0,0.0,0.0,0.0,0.0,0.0,0.0,0.0,0.0,0.0,0.0,-2.717,-2.7697,0.0,0.0,0.0,0.0,0.0,0.0,0.0,0.0,-2.5853,0.0,0.0,0.0,0.0,0.0,0.0,0.0,0.0,0.0,0.0,0.0,0.0,0.0,0.0,0.0,0.0,0.0,0.0,0.0,0.0,0.0,0.0,0.0,0.0,0.0,0.0,0.0,0.0,0.0,0.0,0.0,0.0,0.0,0.0,0.0,0.0,0.0,0.0,0.0,0.0,0.0,0.0,0.0,0.0,0.0,0.0,0.0,0.0,0.0,0.0,0.0,0.0,0.0,0.0,0.0,-3.1159,-3.355,-3.5554,-3.7189,-3.7815,-3.7813,-3.7149,-3.5282,-3.3425,0.0,0.0,0.0,0.0,0.0,0.0,0.0,0.0,0.0,0.0,0.0,0.0,0.0,0.0,0.0,0.0,0.0,0.0,0.0,0.0,0.0,0.0,0.0,0.0,0.0,0.0,0.0,0.0,0.0,0.0,0.0,0.0,0.0,0.0,0.0,0.0,0.0,0.0,0.0,0.0,-2.7777,-2.8247,-2.9032,0.0,0.0,0.0,0.0,0.0,0.0,-2.6458,-2.6024,0.0,0.0,0.0,0.0,0.0,0.0,0.0,0.0,0.0,0.0,0.0,0.0,0.0,0.0,0.0,0.0,0.0,0.0,0.0,0.0,0.0,0.0,0.0,0.0,0.0,0.0,0.0,0.0,0.0,0.0,0.0,0.0,0.0,0.0,0.0,0.0,0.0,0.0,0.0,0.0,0.0,0.0,0.0,0.0,0.0,0.0,0.0,0.0,0.0,0.0,0.0,0.0,0.0,0.0,0.0,-2.9872,-3.2675,-3.4868,-3.6247,-3.6399,-3.6153,-3.5409,-3.3177,-3.129,0.0,0.0,0.0,0.0,0.0,0.0,0.0,0.0,0.0,0.0,0.0,0.0,0.0,0.0,0.0,0.0,0.0,0.0,0.0,0.0,0.0,0.0,0.0,0.0,0.0,0.0,0.0,0.0,0.0,0.0,0.0,0.0,0.0,0.0,0.0,0.0,0.0,0.0,0.0,0.0,0.0,-2.8813,-2.9591,-2.8809,0.0,0.0,0.0,0.0,-2.7051,-2.689,0.0,0.0,0.0,0.0,0.0,0.0,0.0,0.0,0.0,0.0,0.0,0.0,0.0,0.0,0.0,0.0,0.0,0.0,0.0,0.0,0.0,0.0,0.0,0.0,0.0,0.0,0.0,0.0,0.0,0.0,0.0,0.0,0.0,0.0,0.0,0.0,0.0,0.0,0.0,0.0,0.0,0.0,0.0,0.0,0.0,0.0,0.0,0.0,0.0,0.0,0.0,0.0,0.0,0.0,0.0,0.0,-2.8952,-3.0522,-3.2206,-3.4007,-3.4649,-3.4628,-3.3957,-3.2123,-3.0518,0.0,0.0,0.0,0.0,0.0,0.0,0.0,0.0,0.0,0.0,0.0,0.0,0.0,0.0,0.0,0.0,0.0,0.0,0.0,0.0,0.0,0.0,0.0,0.0,0.0,0.0,0.0,0.0,0.0,0.0,0.0,0.0,0.0,0.0,0.0,0.0,0.0,0.0,0.0,0.0,0.0,-2.9799,-2.8893,-2.8631,-2.8304,0.0,0.0,-2.7465,-2.7598,-2.8483,0.0,0.0,0.0,0.0,0.0,0.0,0.0,0.0,0.0,0.0,0.0,0.0,0.0,0.0,0.0,0.0,0.0,0.0,0.0,0.0,0.0,0.0,0.0,0.0,0.0,0.0,0.0,0.0,0.0,0.0,0.0,0.0,0.0,0.0,0.0,0.0,0.0,0.0,0.0,0.0,0.0,0.0,0.0,0.0,0.0,0.0,0.0,0.0,0.0,0.0,0.0,0.0,0.0,0.0,0.0,-2.5816,-2.8282,-3.0185,-3.1881,-3.3352,-3.3297,-3.2931,-3.2312,-3.017,-2.8318,0.0,0.0,0.0,0.0,0.0,0.0,0.0,0.0,0.0,0.0,0.0,0.0,0.0,0.0,0.0,0.0,0.0,0.0,0.0,0.0,0.0,0.0,0.0,0.0,0.0,0.0,0.0,0.0,0.0,0.0,0.0,0.0,0.0,0.0,0.0,0.0,0.0,0.0,0.0,0.0,0.0,0.0,-3.0103,-2.987,0.0,0.0,0.0,-2.8469,-2.8094,0.0,0.0,0.0,0.0,0.0,0.0,0.0,0.0,0.0,0.0,0.0,0.0,0.0,0.0,0.0,0.0,0.0,0.0,0.0,0.0,0.0,0.0,0.0,0.0,0.0,0.0,0.0,0.0,0.0,0.0,0.0,0.0,0.0,0.0,0.0,0.0,0.0,0.0,0.0,0.0,0.0,0.0,0.0,0.0,0.0,0.0,0.0,0.0,0.0,0.0,0.0,0.0,0.0,0.0,0.0,0.0,0.0,-2.7561,-2.9753,-3.1447,-3.2571,-3.2087,-3.1541,-3.0922,-2.8831,0.0,0.0,0.0,0.0,0.0,0.0,0.0,0.0,0.0,0.0,0.0,0.0,0.0,0.0,0.0,0.0,0.0,0.0,0.0,0.0,0.0,0.0,0.0,0.0,0.0,0.0,0.0,-1.6977,0.0,0.0,0.0,0.0,0.0,0.0,0.0,0.0,0.0,0.0,0.0,0.0,0.0,0.0,-2.8777,-3.0404,-3.033,-2.9964,0.0,0.0,-2.9144,-2.8432,-2.8415,-2.7811,0.0,0.0,0.0,0.0,0.0,0.0,0.0,0.0,0.0,0.0,0.0,0.0,0.0,0.0,0.0,0.0,0.0,0.0,0.0,0.0,0.0,0.0,0.0,0.0,0.0,0.0,0.0,0.0,0.0,0.0,0.0,0.0,0.0,0.0,0.0,0.0,0.0,0.0,0.0,0.0,0.0,0.0,0.0,0.0,0.0,0.0,0.0,0.0,0.0,0.0,0.0,0.0,0.0,0.0,-2.4297,-2.6634,-2.8491,-3.0003,-3.1121,-3.1099,-3.0786,-3.0173,-2.8996,-2.702,0.0,0.0,0.0,0.0,0.0,0.0,0.0,0.0,0.0,0.0,0.0,0.0,0.0,0.0,0.0,0.0,0.0,0.0,0.0,0.0,0.0,0.0,0.0,0.0,0.0,0.0,0.0,0.0,0.0,0.0,0.0,0.0,0.0,0.0,0.0,0.0,0.0,0.0,0.0,0.0,0.0,-2.7858,-2.8422,-2.9002,-2.9544,0.0,-2.9634,-2.9073,-2.8494,-2.981,-2.9597,-2.5515,0.0,0.0,0.0,0.0,0.0,0.0,0.0,0.0,0.0,0.0,0.0,0.0,0.0,0.0,0.0,0.0,0.0,0.0,0.0,0.0,0.0,0.0,0.0,0.0,0.0,0.0,0.0,0.0,0.0,0.0,0.0,0.0,0.0,0.0,0.0,0.0,0.0,0.0,0.0,0.0,0.0,0.0,0.0,0.0,0.0,0.0,0.0,0.0,0.0,0.0,0.0,0.0,0.0,-2.3596,-2.561,-2.8063,-2.9666,-3.0388,-3.0464,-3.0176,-2.9627,-2.8477,-2.6472,0.0,0.0,0.0,0.0,0.0,0.0,0.0,0.0,0.0,0.0,0.0,0.0,0.0,0.0,0.0,0.0,0.0,0.0,0.0,0.0,0.0,0.0,0.0,0.0,0.0,0.0,0.0,0.0,-1.8109,-1.7987,-1.8095,0.0,0.0,0.0,0.0,0.0,0.0,0.0,0.0,0.0,0.0,-2.7645,-2.8986,-2.9653,0.0,0.0,-2.9855,-2.9432,-2.9142,-2.8608,-2.7453,-2.5096,-2.4345,0.0,0.0,0.0,0.0,0.0,0.0,0.0,0.0,0.0,0.0,0.0,0.0,0.0,0.0,0.0,0.0,0.0,0.0,0.0,0.0,0.0,0.0,0.0,0.0,0.0,0.0,0.0,0.0,0.0,0.0,0.0,0.0,0.0,0.0,0.0,0.0,0.0,0.0,0.0,0.0,0.0,0.0,0.0,0.0,0.0,0.0,0.0,0.0,0.0,0.0,0.0,0.0,-2.318,-2.4901,-2.754,-2.9158,-2.9681,-2.9694,-2.9421,-2.8872,-2.8044,-2.6278,0.0,0.0,0.0,0.0,0.0,0.0,0.0,0.0,0.0,0.0,0.0,0.0,0.0,0.0,0.0,0.0,0.0,0.0,0.0,0.0,0.0,0.0,0.0,0.0,0.0,0.0,0.0,0.0,-1.89,-1.8397,-1.8006,0.0,0.0,0.0,0.0,0.0,0.0,0.0,0.0,0.0,0.0,-2.7328,-2.9149,-2.9583,-2.9794,-2.9891,-2.9314,-2.8843,-2.8774,-2.7524,-2.6084,-2.4627,0.0,0.0,0.0,0.0,0.0,0.0,0.0,0.0,0.0,0.0,0.0,0.0,0.0,0.0,0.0,0.0,0.0,0.0,0.0,0.0,0.0,0.0,0.0,0.0,0.0,0.0,0.0,-2.0712,0.0,0.0,-2.0699,0.0,0.0,0.0,0.0,0.0,0.0,0.0,0.0,0.0,0.0,0.0,0.0,0.0,0.0,0.0,0.0,0.0,0.0,0.0,0.0,0.0,0.0,-2.2956,-2.4688,-2.685,-2.8209,-2.8726,-2.8739,-2.8469,-2.7978,-2.7901,-2.6519,-2.3667,0.0,0.0,0.0,0.0,0.0,0.0,0.0,0.0,0.0,0.0,0.0,0.0,0.0,0.0,0.0,0.0,0.0,0.0,0.0,0.0,0.0,0.0,0.0,0.0,0.0,0.0,-1.8518,-1.8057,-1.7324,0.0,0.0,0.0,0.0,0.0,0.0,0.0,0.0,0.0,0.0,-2.5051,-2.6755,-2.8456,-2.8277,-2.82,-2.8677,-2.7828,-2.7071,-2.7101,-2.7019,-2.6204,0.0,0.0,0.0,0.0,0.0,0.0,0.0,0.0,0.0,0.0,0.0,0.0,0.0,0.0,0.0,0.0,0.0,0.0,0.0,0.0,0.0,0.0,0.0,0.0,0.0,0.0,0.0,-2.2021,-2.1982,0.0,0.0,0.0,0.0,0.0,0.0,0.0,0.0,0.0,0.0,0.0,-2.1542,-2.1886,0.0,0.0,0.0,0.0,0.0,0.0,0.0,0.0,0.0,0.0,0.0,0.0,-2.2289,-2.3983,-2.616,-2.7584,-2.8148,-2.8174,-2.8084,-2.7879,-2.7148,-2.5325,-2.2417,0.0,0.0,0.0,0.0,0.0,0.0,0.0,0.0,0.0,0.0,0.0,0.0,0.0,0.0,0.0,0.0,0.0,0.0,0.0,0.0,0.0,0.0,0.0,0.0,0.0,-1.7939,0.0,0.0,0.0,0.0,0.0,0.0,0.0,0.0,0.0,0.0,0.0,-2.1883,-2.3682,-2.5349,-2.6721,-2.7657,-2.7936,-2.8077,0.0,0.0,0.0,0.0,0.0,0.0,0.0,0.0,0.0,0.0,0.0,0.0,0.0,0.0,-2.6179,-2.3703,-2.3077,-2.2978,-2.3092,0.0,0.0,0.0,0.0,0.0,0.0,0.0,0.0,0.0,0.0,0.0,0.0,0.0,0.0,-2.2281,0.0,-2.1881,0.0,0.0,0.0,0.0,0.0,0.0,0.0,0.0,-2.264,-2.2939,-2.2775,-2.3114,-2.2831,0.0,-2.1441,-2.0545,0.0,0.0,0.0,0.0,0.0,0.0,0.0,0.0,-2.2033,-2.3552,-2.5511,-2.679,-2.7351,-2.7132,-2.6979,-2.6967,-2.5779,-2.4047,-2.181,-2.0411,-1.9114,0.0,0.0,0.0,0.0,0.0,0.0,0.0,0.0,0.0,0.0,0.0,0.0,0.0,0.0,0.0,0.0,0.0,0.0,0.0,0.0,0.0,0.0,0.0,-1.812,0.0,0.0,0.0,0.0,0.0,0.0,0.0,0.0,0.0,-1.9813,-2.1382,-2.3031,-2.4425,-2.5703,-2.67,-2.7205,0.0,0.0,0.0,0.0,0.0,0.0,0.0,-2.5151,-2.4962,-2.4754,-2.4607,-2.4613,-2.5803,-2.6655,-2.6306,0.0,0.0,-2.512,-2.4565,-2.4414,-2.431,-2.4613,-2.4997,-2.5336,-2.5588,-2.5783,0.0,0.0,0.0,0.0,0.0,0.0,0.0,0.0,-2.1432,-2.1666,0.0,-2.1559,0.0,0.0,0.0,0.0,0.0,-2.2257,0.0,0.0,-2.3471,-2.3925,-2.3804,-2.3804,-2.3614,-2.3276,-2.3663,-2.2808,-2.0871,-1.9826,0.0,0.0,0.0,0.0,0.0,0.0,-2.2198,-2.3321,-2.475,-2.5807,-2.6371,-2.5664,-2.5276,-2.5229,-2.4003,-2.2869,-2.1807,-2.082,-1.9835,-1.8845,-1.7528,0.0,0.0,0.0,0.0,0.0,0.0,0.0,0.0,0.0,0.0,0.0,0.0,0.0,0.0,0.0,0.0,0.0,0.0,0.0,0.0,-1.8496,0.0,0.0,0.0,0.0,0.0,0.0,0.0,0.0,0.0,0.0,-2.0648,-2.2602,-2.4406,-2.5485,0.0,0.0,0.0,0.0,-2.6499,-2.6512,-2.6034,-2.5649,-2.5661,-2.5611,-2.5423,-2.4971,0.0,0.0,-2.5246,-2.5887,-2.6294,-2.531,-2.6026,-2.6804,-2.757,-2.7116,-2.6585,-2.6095,-2.5992,-2.6242,-2.6799,-2.7283,-2.7872,-2.5698,0.0,0.0,0.0,0.0,-2.3536,-2.4074,-2.4731,-2.4328,-2.4018,-2.3851,-2.2994,0.0,0.0,0.0,0.0,0.0,0.0,-2.2624,-2.2992,-2.3989,-2.4329,-2.3962,-2.4117,-2.409,-2.3957,-2.3285,-2.2698,-2.2221,-2.1596,-2.0423,-1.8847,0.0,0.0,0.0,0.0,-2.1115,-2.2256,-2.3366,-2.4236,-2.4755,-2.4552,-2.4445,-2.4456,-2.3697,-2.2786,-2.1685,-2.0687,-1.9783,-1.9032,-1.8045,0.0,0.0,0.0,0.0,0.0,0.0,0.0,0.0,0.0,0.0,0.0,0.0,0.0,0.0,0.0,0.0,0.0,0.0,0.0,-1.6852,-1.7099,-1.7215,0.0,0.0,0.0,0.0,0.0,0.0,0.0,0.0,0.0,-2.1072,-2.2986,-2.4788,0.0,0.0,-2.6537,-2.6713,-2.6587,-2.6487,-2.6487,-2.6361,0.0,-2.626,-2.5862,-2.5686,-2.5971,-2.6612,-2.6977,-2.6697,-2.7203,-2.7519,-2.7216,-2.7454,-2.7605,-2.741,-2.698,-2.6616,-2.6537,-2.6845,-2.7224,-2.7493,-2.798,-2.8426,-2.6857,-2.5557,-2.4708,-2.4307,-2.4242,-2.4542,-2.4962,-2.5527,-2.5057,-2.4791,-2.4679,-2.3606,-2.2781,-2.2111,-2.1841,0.0,0.0,0.0,-2.2746,-2.3229,-2.3845,-2.402,-2.3938,-2.4041,-2.4018,-2.3838,-2.3112,-2.2751,-2.2664,-2.206,-2.1081,-1.975,0.0,0.0,-1.957,-2.0175,-2.101,-2.2068,-2.288,-2.3568,-2.4061,-2.3804,-2.3511,-2.3206,-2.2867,-2.2215,-2.1185,-2.0548,-1.9862,-1.9147,-1.8053,-1.7338,0.0,0.0,0.0,0.0,0.0,0.0,0.0,0.0,0.0,0.0,0.0,-1.4645,-1.3607,0.0,0.0,0.0,-1.5917,-1.6658,-1.6819,-1.7082,0.0,0.0,0.0,0.0,0.0,0.0,0.0,-1.9307,-2.0456,-2.1283,-2.1662,-2.3167,-2.4494,-2.5063,-2.5511,-2.5804,-2.5804,0.0,-2.6582,-2.6582,-2.6652,-2.6699,-2.6674,-2.628,-2.6084,-2.6436,-2.6751,-2.6977,-2.7002,-2.7278,-2.7444,-2.7444,-2.7457,-2.7344,-2.7052,-2.6713,-2.6521,-2.6602,-2.7079,-2.7544,-2.7853,-2.8348,-2.8756,-2.772,-2.7232,-2.5972,-2.5235,-2.4966,-2.501,-2.4914,-2.4609,-2.4446,-2.452,-2.4751,-2.3692,-2.3532,-2.4022,-2.3436,0.0,-2.2943,-2.2932,-2.3062,-2.3297,-2.3307,-2.3488,-2.3787,-2.3787,-2.3586,-2.3247,-2.3247,-2.3016,-2.2543,-2.1718,-2.1341,-2.1313,-2.1094,-2.0888,-2.0733,-2.0888,-2.1438,-2.232,-2.2853,-2.34,-2.3891,-2.3276,-2.2542,-2.1783,-2.1745,-2.1311,-2.0385,-2.0323,-1.9961,-1.9189,-1.7822,-1.71,-1.7059,0.0,0.0,0.0,0.0,0.0,0.0,0.0,0.0,0.0,0.0,0.0,0.0,0.0,0.0,0.0,-1.6874,0.0,-1.7451,-1.7842,0.0,0.0,0.0,-1.7483,-1.7975,-1.8416,-1.905,-2.002,0.0,0.0,-2.2208,-2.3078,-2.3617,-2.3397,-2.4173,-2.4753,-2.4801,-2.5901,-2.6675,-2.6771,-2.6927,-2.7035,-2.7022,-2.6716,-2.6506,-2.6578,-2.649,-2.649,-2.6524,-2.6537,-2.6524,-2.6562,-2.6499,-2.6512,-2.6499,-2.6512,-2.6512,-2.6575,-2.7014,-2.7507,-2.802,-2.8598,-2.9164,-2.8107,-2.7641,-2.7331,-2.6615,-2.5696,-2.603,-2.6034,-2.5783,-2.5737,-2.5457,-2.4957,-2.437,-2.3981,-2.3864,-2.3708,-2.3768,-2.4024,-2.4024,-2.3971,-2.3919,-2.4105,-2.3984,-2.359,-2.3711,-2.3747,-2.3647,-2.3647,-2.3458,-2.3016,-2.2483,-2.2019,-2.1643,-2.0966,-2.0477,-2.0226,-2.0618,-2.0876,-2.0975,-2.1607,-2.206,-2.2344,-2.2176,-2.182,-2.129,-2.128,-2.0782,-1.9756,-1.9715,-1.9776,-1.9878,-1.8476,-1.7907,-1.832,-1.6151,0.0,0.0,0.0,0.0,0.0,0.0,0.0,0.0,0.0,-1.5095,-1.3444,0.0,-1.5584,0.0,-1.6265,-1.7134,-1.6769,-1.7134,0.0,0.0,-1.7572,-1.7684,-1.9025,-1.9239,-1.9364,-1.948,-2.0262,-2.0861,-2.1004,-2.1497,-2.1979,-2.2271,-2.3727,-2.5028,-2.5646,-2.6003,-2.6484,-2.7127,-2.7336,-2.7373,-2.7348,-2.699,-2.6703,-2.687,-2.6544,-2.6339,-2.6452,-2.6487,-2.6487,-2.6487,-2.6487,-2.6487,-2.6499,-2.6487,-2.6663,-2.7052,-2.7532,-2.7946,-2.8109,-2.8888,-2.9616,-2.8518,-2.8096,-2.7894,-2.7267,-2.6431,-2.6723,-2.6639,-2.6334,-2.6229,-2.5936,-2.5478,-2.4947,-2.4475,-2.4068,-2.4068,-2.4197,-2.4415,-2.4425,-2.4236,-2.3959,-2.4103,-2.3875,-2.3329,-2.345,-2.3484,-2.3493,-2.3484,-2.3275,-2.2881,-2.2464,-2.1987,-2.1531,-2.0982,-2.0544,-2.0281,-2.0518,-2.0707,-2.0795,-2.1189,-2.1436,-2.154,-2.154,-2.1336,-2.0896,-2.0876,-2.041,-1.9428,-1.9363,-1.9373,-1.9438,-1.8455,-1.8061,-1.8339,-1.6587,-1.531,0.0,0.0,0.0,0.0,0.0,0.0,0.0,0.0,0.0,0.0,0.0,-1.5853,-1.5966,-1.7188,-1.7945,-1.7892,-1.8068,-1.8363,-1.8805,-1.8384,-1.8528,-1.961,-1.9718,-1.9791,-2.0107,-2.0576,-2.0937,-2.1133,-2.1533,-2.1853,-2.2129,-2.3236,-2.4363,-2.5234,-2.5819,-2.6573,-2.7424,-2.7651,-2.7654,-2.752,-2.7275,-2.7028,-2.6854,-2.663,-2.6381,-2.6273,-2.6292,-2.6361,-2.6374,-2.643,-2.6587,-2.6788,-2.6864,-2.704,-2.7532,-2.8097,-2.8436,-2.8486,-2.9176,-2.9779,-2.8775,-2.8344,-2.7964,-2.7452,-2.7002,-2.7002,-2.6791,-2.6448,-2.6197,-2.61,-2.6022,-2.5408,-2.4941,-2.459,-2.458,-2.459,-2.4534,-2.4531,-2.4277,-2.3877,-2.3818,-2.3564,-2.3101,-2.3101,-2.3101,-2.3101,-2.3101,-2.2886,-2.251,-2.21,-2.166,-2.119,-2.0958,-2.078,-2.0586,-2.0538,-2.0737,-2.1167,-2.1167,-2.1167,-2.1215,-2.1215,-2.0974,-2.0548,-2.0518,-2.0058,-1.9148,-1.9063,-1.8913,-1.8572,-1.8101,-1.7861,-1.7913,-1.6567,-1.5769,0.0,-1.4962,0.0,0.0,0.0,0.0,0.0,0.0,0.0,0.0,-1.6107,-1.6687,-1.7768,-1.8674,-1.9272,-1.9462,-1.9591,-1.9597,-1.948,-1.949,-1.9639,-2.0098,-2.0166,-2.042,-2.119,-2.1278,-2.1475,-2.1894,-2.2295,-2.251,-2.2598,-2.2895,-2.3521,-2.4352,-2.5541,-2.6599,-2.7501,-2.7878,-2.7977,-2.7713,-2.7593,-2.7348,-2.6882,-2.6698,-2.6489,-2.6031,-2.6062,-2.6166,-2.6201,-2.6339,-2.664,-2.718,-2.7316,-2.7457,-2.7959,-2.8499,-2.8838,-2.8888,-2.9365,-2.9767,-2.8206,-2.7813,-2.7786,-2.7243,-2.6536,-2.6526,-2.6369,-2.6197,-2.6139,-2.5955,-2.5781,-2.5644,-2.5566,-2.544,-2.544,-2.543,-2.5421,-2.5107,-2.4717,-2.4287,-2.3945,-2.3555,-2.311,-2.3101,-2.3101,-2.3101,-2.3101,-2.292,-2.251,-2.209,-2.166,-2.119,-2.083,-2.0644,-2.0595,0.0,0.0,0.0,-2.0945,-2.1061,-2.1167,-2.1215,-2.0823,-2.0058,-2.0018,0.0,-1.8526,-1.8466,-1.863,-1.8869,-1.7994,0.0,0.0,0.0,0.0,0.0,0.0,0.0,0.0,0.0,0.0,0.0,-1.6833,-1.6569,-1.6277,-1.7357,-1.809,-1.8137,-1.9108,-1.9497,-1.8873,-1.9431,-1.9979,-2.0312,-2.037,-2.0674,-2.1396,-2.1504,-2.1592,-2.1728,-2.1768,-2.1924,-2.2324,-2.2471,-2.2604,-2.2906,-2.3042,-2.3501,-2.4335,-2.5268,-2.6225,-2.7117,-2.7857,-2.8345,-2.83,-2.7929,-2.7522,-2.7162,-2.67,-2.6334,-2.5998,-2.591,-2.6015,-2.6179,-2.6236,-2.6467,-2.718,-2.7329,-2.7492,-2.8009,-2.8549,-2.8888,-2.89,-2.939,-2.9779,-2.8057,0.0,-2.7432,-2.6973,0.0,-2.6162,-2.5986,-2.5917,-2.5917,-2.582,-2.5684,-2.5684,-2.5684,-2.5684,-2.5684,-2.5684,-2.5674,-2.5498,-2.5039,-2.4414,-2.4199,-2.3769,-2.3101,-2.3101,-2.3101,-2.3101,-2.3101,-2.2822,-2.2217,-2.1982,-2.1553,-2.0908,-2.0674,-2.0615,-2.0615,-2.0615,-2.0644,-2.0741,-2.0741,-2.0819,-2.0896,-2.0876,-2.0579,-1.9925,-1.9697,0.0,0.0,0.0,0.0,0.0,0.0,0.0,0.0,0.0,0.0,-1.7403,-1.6956,-1.6777,-1.7066,-1.7239,-1.7432,-1.7676,-1.8271,-1.8296,-1.7501,-1.8756,-1.9539,-1.9416,-2.0292,-2.0713,-2.0312,-2.0635,-2.0977,-2.1222,-2.1251,-2.1456,-2.1797,-2.1936,-2.1963,-2.2168,-2.2197,-2.2353,-2.273,-2.2779,-2.2857,-2.3062,-2.3101,-2.3256,-2.3777,-2.4573,-2.5621,-2.6928,-2.7522,-2.7912,-2.8044,-2.7933,-2.7416,-2.6806,-2.6432,-2.6094,-2.5656,-2.5676,-2.5828,-2.6027,-2.6131,-2.6445,-2.7107,-2.7329,-2.7444,-2.7971,-2.8298,-2.8511,-2.8561,-2.9202,-2.9779,-2.7939,-2.7571,-2.708,-2.666,-2.625,-2.584,-2.5684,-2.5684,0.0,0.0,0.0,-2.5684,-2.5684,-2.5684,-2.5684,-2.5684,-2.5684,-2.5606,-2.5138,-2.4378,-2.4346,-2.3896,-2.311,-2.3101,-2.3101,-2.3101,-2.3101,-2.2662,-2.1914,-2.1936,-2.1476,-2.0683,-2.0615,-2.0615,-2.0615,-2.0615,-2.0615,-2.0615,-2.0615,-2.0644,-2.0684,-2.0723,-2.0469,-2.0039,-1.9697,-1.9277,-1.8734,-1.8418,-1.8232,-1.8198,-1.8232,-1.8203,-1.8135,-1.8412,-1.8598,-1.8617,-1.8965,-1.9053,-1.8744,-1.916,-1.917,-1.8613,-1.9619,-1.9902,-1.9007,-2.0098,-2.084,-2.084,-2.1465,-2.1885,-2.1936,-2.1885,-2.1914,-2.1982,-2.2002,-2.2021,-2.21,-2.21,-2.2275,-2.2559,-2.2627,-2.2744,-2.3023,-2.3071,-2.3101,-2.3081,-2.3003,-2.3104,-2.3331,-2.4223,-2.5453,-2.6887,-2.7366,-2.7449,-2.7603,-2.7609,-2.7188,-2.631,-2.6105,-2.5901,-2.5468,-2.5418,-2.5606,-2.5805,-2.5992,-2.639,-2.7037,-2.7245,-2.7396,-2.7871,-2.8047,-2.8059,-2.8059,-2.8762,-2.9402,-2.751,-2.707,-2.665,-2.623,-2.5771,-2.5713,-2.5684,-2.5684,-2.5684,-2.5684,-2.5684,-2.5684,-2.5684,-2.5684,-2.5684,-2.5684,-2.5664,-2.5332,-2.4893,-2.4358,-2.4043,-2.3613,-2.311,-2.3101,-2.3101,-2.3101,-2.3101,-2.2662,-2.1963,-2.1936,-2.1435,-2.0713,-2.0615,-2.0615,-2.0615,-2.0615,-2.0615,-2.0615,-2.0615,-2.0752,-2.1133,-2.1103,-2.0928,-2.0537,-2.0458,-2.001,-1.9228,-1.9141,-1.9102,-1.9111,-1.9111,-1.8945,-1.8549,-1.8588,-1.8598,-1.8598,-1.8656,-1.8857,-1.9189,-1.959,-2.0069,-2.0703,-2.1299,-2.124,-2.0449,-2.1202,-2.1699,-2.175,-2.1836,-2.1936,-2.1936,-2.1904,-2.2041,-2.2334,-2.2402,-2.2549,-2.2779,-2.2818,-2.2838,-2.2896,-2.3003,-2.2964,-2.3033,-2.3071,-2.3052,-2.3033,-2.2803,-2.2801,-2.3551,-2.4819,-2.5975,-2.6953,-2.747,-2.763,-2.7558,-2.727,-2.6765,-2.6202,-2.6057,-2.5877,-2.5408,-2.5359,-2.5418,-2.5606,-2.5676,-2.6059,-2.6799,-2.7042,-2.7126,-2.7347,-2.7695,-2.7858,-2.7494,-2.7934,-2.8348,-2.7275,-2.668,-2.6465,-2.6143,-2.5684,-2.5684,-2.5684,-2.5684,-2.5684,-2.5684,-2.5684,-2.5684,-2.5684,-2.5684,-2.5684,-2.5684,-2.5674,-2.5527,-2.5068,-2.4378,-2.4219,-2.3769,-2.313,-2.3101,-2.3101,-2.3101,-2.3101,-2.2779,-2.2246,-2.1992,-2.1553,-2.0947,-2.0723,-2.0615,-2.0615,-2.0615,-2.0615,-2.0615,-2.0615,-2.0791,-2.1181,-2.12,-2.121,-2.1279,-2.1064,-2.0752,-2.0361,-1.9883,-1.9629,-1.9629,-1.9414,-1.9189,-1.9014,-1.9163,-1.9397,-1.9668,-1.9874,-2.0196,-2.0664,-2.0869,-2.1162,-2.1562,-2.1982,-2.206,-2.165,-2.1992,-2.2217,-2.2236,-2.2422,-2.2428,-2.2256,-2.2227,-2.2217,-2.2178,-2.2168,-2.2246,-2.2422,-2.2461,-2.2461,-2.2461,-2.2461,-2.2549,-2.273,-2.276,-2.2803,-2.2721,-2.2441,-2.2377,-2.2804,-2.406,-2.5448,-2.6508,-2.6895,-2.6901,-2.6858,-2.6671,-2.6274,-2.5745,-2.5661,-2.5576,-2.5336,-2.5312,-2.5382,-2.5571,-2.5606,-2.5796,-2.636,-2.6396,-2.6478,-2.6656,-2.6876,-2.6962,-2.6942,-2.7102,-2.7394,-2.7002,-2.6387,-2.6279,-2.6045,-2.5684,-2.5684,-2.5684,-2.5684,-2.5684,-2.5684,-2.5684,-2.5684,-2.5684,-2.5684,-2.5684,-2.5684,-2.5684,-2.5684,-2.5254,-2.4473,-2.4424,-2.3919,-2.3159,-2.3101,-2.3101,-2.3101,-2.3101,-2.2877,-2.251,-2.2187,-2.1748,-2.121,-2.0889,-2.0703,-2.0615,-2.0615,-2.0654,-2.0703,-2.0723,-2.0928,-2.1317,-2.1465,-2.1648,-2.1973,-2.1709,-2.1444,-2.1317,-2.0723,-2.0361,-2.0342,-2.0049,-1.9873,-1.9883,-2.0185,-2.0508,-2.0899,-2.1182,-2.1523,-2.1846,-2.1982,-2.2031,-2.2041,-2.2412,-2.2646,-2.2613,-2.2646,-2.2656,-2.2685,-2.2832,-2.2779,-2.2559,-2.249,-2.2383,-2.207,-2.2119,-2.2236,-2.2187,-2.2168,-2.2119,-2.206,-2.2109,-2.2314,-2.2451,-2.251,-2.2432,-2.2207,-2.2012,-2.1999,-2.2402,-2.357,-2.484,-2.5879,-2.6329,-2.6335,-2.6104,-2.5985,-2.5769,-2.5348,-2.5336,-2.5348,-2.5312,-2.5312,-2.5347,-2.5488,-2.5535,-2.5618,-2.577,-2.5853,-2.5935,-2.6159,-2.629,-2.632,-2.6527,-2.6562,-2.6751,-2.6465,-2.6328,-2.5927,-2.5732,-2.5693,-2.5684,-2.5684,-2.5684,-2.5684,-2.5684,-2.5684,-2.5684,-2.5684,-2.5684,-2.5684,-2.5684,-2.5684,-2.5684,-2.5216,-2.4502,-2.4424,-2.3965,-2.3169,-2.3101,-2.3101,-2.3101,-2.3101,-2.2896,-2.2568,-2.2471,-2.1999,-2.1288,-2.1161,-2.0986,-2.0683,-2.0635,-2.0771,-2.1122,-2.1132,-2.1387,-2.1826,-2.2197,-2.2422,-2.2451,-2.2422,-2.2217,-2.1865,-2.1738,-2.1699,-2.1709,-2.1621,-2.1621,-2.1611,-2.167,-2.1709,-2.1748,-2.1816,-2.1855,-2.1914,-2.2246,-2.2461,-2.249,-2.2842,-2.3033,-2.3042,-2.3042,-2.3042,-2.3013,-2.2783,-2.2588,-2.251,-2.25,-2.2471,-2.249,-2.2685,-2.2984,-2.2886,-2.2984,-2.2847,-2.249,-2.2555,-2.2857,-2.251,-2.2432,-2.2116,-2.1522,-2.1631,-2.2059,-2.2919,-2.3638,-2.4526,-2.5616,-2.6078,-2.6054,-2.5973,-2.5673,-2.5444,-2.5324,-2.5312,-2.5312,-2.5312,-2.5312,-2.5312,-2.5347,-2.5347,-2.5418,-2.5535,-2.5641,-2.5688,-2.591,-2.6062,-2.627,-2.643,-2.6487,-2.6625,-2.624,-2.5937,-2.5762,-2.5684,-2.5684,-2.5684,-2.5684,-2.5684,-2.5684,-2.5684,-2.5684,-2.5684,-2.5684,-2.5684,-2.5684,-2.5684,-2.5684,-2.5684,-2.54,-2.4805,-2.4531,-2.4056,-2.3555,-2.3208,-2.3101,-2.3101,-2.3101,-2.3013,-2.2871,-2.2637,-2.2207,-2.168,-2.1621,-2.1523,-2.1398,-2.1388,-2.1486,-2.1621,-2.1824,-2.2038,-2.2246,-2.2422,-2.2594,-2.2861,-2.2881,-2.2779,-2.2617,-2.2393,-2.2256,-2.2236,-2.2021,-2.1936,-2.1936,-2.1936,-2.2002,-2.2227,-2.249,-2.2627,-2.2627,-2.2793,-2.2847,-2.2838,-2.3271,-2.3525,-2.3535,-2.3705,-2.3851,-2.3744,-2.3057,-2.2607,-2.2812,-2.2451,-2.2334,-2.2672,-2.2617,-2.2519,-2.2701,-2.2568,-2.2314,-2.2158,-2.2009,-2.2058,-2.208,-2.1914,-2.159,-2.121,-2.1221,-2.1461,-2.1943,-2.2433,-2.321,-2.4092,-2.4624,-2.5145,-2.5469,-2.5492,-2.5336,-2.5312,-2.5312,-2.5312,-2.5312,-2.5312,-2.5312,-2.5312,-2.5312,-2.5312,-2.543,-2.5418,-2.55,-2.5723,-2.6015,-2.627,-2.6452,-2.6487,-2.6487,-2.6035,-2.5703,-2.5684,-2.5684,-2.5684,-2.5684,-2.5684,-2.5684,-2.5684,-2.5684,-2.5684,-2.5684,-2.5684,-2.5684,-2.5684,-2.5684,-2.5684,-2.5684,-2.5498,-2.5096,-2.4619,-2.4199,-2.3769,-2.335,-2.3101,-2.3101,-2.3101,-2.3101,-2.3062,-2.2852,-2.2471,-2.2119,-2.2051,-2.2002,-2.1894,-2.1936,-2.1953,-2.207,-2.2363,-2.2559,-2.2656,-2.2685,-2.2779,-2.3062,-2.3101,-2.3101,-2.3091,-2.2799,-2.2643,-2.2633,-2.2393,-2.2236,-2.2227,-2.2227,-2.2363,-2.2656,-2.2916,-2.3101,-2.3101,-2.3101,-2.3149,-2.3286,-2.3623,-2.3848,-2.3984,-2.4248,-2.4404,-2.4326,-2.3467,-2.3027,-2.3237,-2.2773,-2.2725,-2.3193,-2.2812,-2.2725,-2.3018,-2.2666,-2.2422,-2.2227,-2.2097,-2.1707,-2.1807,-2.1512,-2.1181,-2.1035,-2.0811,-2.075,-2.0982,-2.1711,-2.2505,-2.3217,-2.3986,-2.4647,-2.5206,-2.5324,-2.5312,-2.5312,-2.5312,-2.5312,-2.5312,-2.5312,-2.5312,-2.5312,-2.5312,-2.5312,-2.5347,-2.5312,-2.5382,-2.5558,-2.5828,-2.6119,-2.6327,-2.6396,-2.6418,-2.5703,-2.5684,-2.5684,-2.5684,-2.5684,-2.5684,-2.5684,-2.5684,-2.5684,-2.5684,-2.5684,-2.5684,-2.5684,-2.5684,-2.5684,-2.5684,-2.5684,-2.5684,-2.5518,-2.5145,-2.4648,-2.4199,-2.3779,-2.3359,-2.311,-2.3149,-2.3101,-2.3101,-2.3101,-2.3062,-2.2857,-2.25,-2.249,-2.2285,-2.2012,-2.1982,-2.2109,-2.2461,-2.2539,-2.2672,-2.2994,-2.3052,-2.3052,-2.3091,-2.3101,-2.3101,-2.3091,-2.3071,-2.3062,-2.3062,-2.3003,-2.3003,-2.3013,-2.3003,-2.3003,-2.3052,-2.3071,-2.3101,-2.3101,-2.312,-2.332,-2.3682,-2.3828,-2.3984,-2.4355,-2.4482,-2.4521,-2.4424,-2.4072,-2.3818,-2.3789,-2.3623,-2.3633,-2.3838,-2.4092,-2.417,-2.4231,-2.3828,-2.3525,-2.314,-2.2877,-2.2457,-2.1943,-2.1514,-2.1055,-2.0801,-2.0625,-2.0867,-2.1576,-2.236,-2.3106,-2.3829,-2.4564,-2.5229,-2.5312,-2.5312,-2.5312,-2.5312,-2.5312,-2.5312,-2.5312,-2.5312,-2.5312,-2.5312,-2.5312,-2.5312,-2.5312,-2.5347,-2.5418,-2.5523,-2.5606,-2.5828,-2.6236,-2.6201,-2.6305,-2.5684,-2.5684,-2.5684,-2.5684,-2.5684,-2.5684,-2.5684,-2.5684,-2.5684,-2.5684,-2.5684,-2.5684,-2.5684,-2.5684,-2.5684,-2.5684,-2.5684,-2.5684,-2.5644,-2.5439,-2.5039,-2.4756,-2.456,-2.3896,-2.3555,-2.3516,-2.3237,-2.3101,-2.3101,-2.3101,-2.3023,-2.2906,-2.2867,-2.2789,-2.2672,-2.2652,-2.273,-2.2857,-2.2877,-2.2945,-2.3071,-2.3101,-2.3101,-2.3101,-2.3101,-2.3101,-2.3101,-2.3101,-2.3101,-2.3101,-2.3101,-2.3101,-2.3101,-2.3101,-2.3101,-2.3101,-2.3101,-2.3101,-2.313,-2.3354,-2.3613,-2.3799,-2.4316,-2.4619,-2.4844,-2.5078,-2.5146,-2.4902,-2.5,-2.4922,-2.4551,-2.4141,-2.4131,-2.4824,-2.4668,-2.4551,-2.4687,-2.4463,-2.4121,-2.3867,-2.3257,-2.236,-2.1728,-2.1094,-2.0801,-2.0683,-2.1011,-2.1482,-2.1794,-2.251,-2.329,-2.3902,-2.4337,-2.4707,-2.5312,-2.5312,-2.5312,-2.5312,-2.5312,-2.5312,-2.5312,-2.5312,-2.5312,-2.5312,-2.5312,-2.5312,-2.5312,-2.5312,-2.5382,-2.55,-2.5571,-2.5723,-2.6097,-2.6097,-2.6236,-2.5684,-2.5684,-2.5684,-2.5684,-2.5684,-2.5684,-2.5684,-2.5684,-2.5684,-2.5684,-2.5684,-2.5684,-2.5684,-2.5684,-2.5684,-2.5684,-2.5684,-2.5684,-2.5684,-2.5645,-2.5273,-2.5059,-2.4951,-2.4326,-2.3926,-2.374,-2.334,-2.3101,-2.3101,-2.3101,-2.3101,-2.3091,-2.3101,-2.3101,-2.3101,-2.3101,-2.3101,-2.3101,-2.3101,-2.3091,-2.3101,-2.3101,-2.3101,-2.3101,-2.3101,-2.3101,-2.3101,-2.3101,-2.3101,-2.3101,-2.3101,-2.3101,-2.3101,-2.3101,-2.3101,-2.3101,-2.3101,-2.3101,-2.3149,-2.3545,-2.3838,-2.3994,-2.4482,-2.4893,-2.5059,-2.5234,-2.5137,-2.5,-2.5088,-2.5156,-2.4844,-2.4326,-2.4424,-2.5283,-2.506,-2.4883,-2.5029,-2.4805,-2.4512,-2.4092,-2.335,-2.248,-2.1768,-2.1299,-2.1045,-2.081,-2.1492,-2.1955,-2.2147,-2.281,-2.359,-2.4219,-2.4502,-2.4814,-2.5206,-2.5324,-2.5312,-2.5312,-2.5312,-2.5312,-2.5312,-2.5312,-2.5312,-2.5312,-2.5312,-2.5312,-2.5312,-2.5312,-2.5394,-2.55,-2.55,-2.5571,-2.5805,-2.5957,-2.6084,-2.5684,-2.5684,-2.5684,-2.5684,-2.5684,-2.5684,-2.5684,-2.5684,-2.5684,-2.5684,-2.5684,-2.5684,-2.5684,-2.5684,-2.5684,-2.5684,-2.5684,-2.5684,-2.5684,-2.5635,-2.5312,-2.5174,-2.5088,-2.4648,-2.417,-2.3789,-2.3369,-2.311,-2.3101,-2.3101,-2.3101,-2.3101,-2.3101,-2.3101,-2.3101,-2.3101,-2.3101,-2.3101,-2.3101,-2.3101,-2.3101,-2.3101,-2.3101,-2.3101,-2.3101,-2.3101,-2.3101,-2.3101,-2.3101,-2.3101,-2.3101,-2.3101,-2.3101,-2.3101,-2.3101,-2.3101,-2.3101,-2.3101,-2.3179,-2.3594,-2.4033,-2.4287,-2.4453,-2.4678,-2.4883,-2.4717,-2.4465,-2.4443,-2.4482,-2.4417,-2.4453,-2.4375,-2.4531,-2.501,-2.5225,-2.5273,-2.5088,-2.5049,-2.4736,-2.3994,-2.3398,-2.2945,-2.2496,-2.2002,-2.1633,-2.159,-2.2047,-2.2705,-2.3023,-2.3793,-2.4391,-2.4844,-2.5211,-2.5529,-2.5433,-2.5324,-2.5324,-2.5312,-2.5312,-2.5312,-2.5312,-2.5312,-2.5312,-2.5312,-2.5312,-2.5312,-2.5312,-2.5312,-2.5312,-2.5394,-2.5382,-2.5418,-2.5606,-2.5805,-2.591,-2.5684,-2.5684,-2.5684,-2.5684,-2.5684,-2.5684,-2.5684,-2.5684,-2.5684,-2.5684,-2.5684,-2.5684,-2.5684,-2.5684,-2.5684,-2.5684,-2.5684,-2.5684,-2.5684,-2.5664,-2.5576,-2.5508,-2.543,-2.5068,-2.4492,-2.3877,-2.3652,-2.3383,-2.3159,-2.311,-2.3101,-2.3101,-2.3101,-2.3101,-2.3101,-2.3101,-2.3101,-2.3101,-2.3101,-2.3101,-2.3101,-2.3101,-2.3101,-2.3101,-2.3101,-2.3101,-2.3101,-2.3101,-2.3101,-2.3101,-2.3101,-2.3101,-2.3101,-2.3101,-2.3101,-2.3101,-2.3101,-2.3257,-2.3603,-2.3965,-2.4258,-2.4443,-2.4678,-2.4736,-2.4648,-2.4482,-2.4258,-2.4082,-2.4228,-2.4326,-2.4102,-2.4258,-2.4434,-2.46,-2.4736,-2.4834,-2.4727,-2.493,-2.4639,-2.3975,-2.3672,-2.3281,-2.2656,-2.2168,-2.2142,-2.2484,-2.3135,-2.3838,-2.4576,-2.512,-2.6022,-2.63,-2.6381,-2.6141,-2.5973,-2.5745,-2.5612,-2.5468,-2.5372,-2.5324,-2.5312,-2.5312,-2.5312,-2.5312,-2.5312,-2.5312,-2.5312,-2.5312,-2.5312,-2.5312,-2.5312,-2.543,-2.5571,-2.5641,-2.5723,-2.5684,-2.5684,-2.5684,-2.5684,-2.5684,-2.5684,-2.5684,-2.5684,-2.5684,-2.5684,-2.5684,-2.5684,-2.5684,-2.5684,-2.5684,-2.5684,-2.5684,-2.5684,-2.5684,-2.5684,-2.5684,-2.5684,-2.5625,-2.5273,-2.4824,-2.4326,-2.4102,-2.3887,-2.3569,-2.3413,-2.3389,-2.3379,-2.3188,-2.3101,-2.3101,-2.3101,-2.3101,-2.3101,-2.3101,-2.3101,-2.3101,-2.3101,-2.3101,-2.3101,-2.3101,-2.3101,-2.3101,-2.3101,-2.3101,-2.3101,-2.3101,-2.3101,-2.3101,-2.3101,-2.3101,-2.3101,-2.312,-2.3286,-2.376,-2.415,-2.4424,-2.4473,-2.4668,-2.4629,-2.4268,-2.4082,-2.3799,-2.3662,-2.376,-2.3828,-2.3643,-2.376,-2.389,-2.39,-2.4268,-2.4394,-2.4463,-2.4648,-2.4521,-2.3975,-2.3779,-2.3418,-2.2881,-2.2568,-2.2466,-2.3021,-2.3635,-2.4231,-2.5025,-2.5723,-2.6308,-2.6702,-2.6711,-2.6509,-2.6405,-2.6202,-2.5949,-2.5697,-2.5468,-2.5372,-2.5312,-2.5312,-2.5312,-2.5312,-2.5312,-2.5312,-2.5312,-2.5312,-2.5312,-2.5312,-2.5312,-2.5347,-2.5465,-2.5465,-2.5535,-2.5684,-2.5684,-2.5684,-2.5684,-2.5684,-2.5684,-2.5684,-2.5684,-2.5684,-2.5684,-2.5684,-2.5684,-2.5684,-2.5684,-2.5684,-2.5684,-2.5684,-2.5684,-2.5684,-2.5684,-2.5684,-2.5684,-2.5625,-2.5352,-2.5098,-2.4922,-2.4619,-2.4424,-2.4248,-2.3965,-2.3809,-2.3701,-2.3398,-2.311,-2.311,-2.3101,-2.3101,-2.3101,-2.3101,-2.3101,-2.3101,-2.3101,-2.3101,-2.3101,-2.3101,-2.312,-2.3198,-2.3266,-2.3208,-2.311,-2.3101,-2.3101,-2.3101,-2.3101,-2.3101,-2.3101,-2.3101,-2.3374,-2.3789,-2.4199,-2.4414,-2.4424,-2.4502,-2.4248,-2.3916,-2.3682,-2.3442,-2.3305,-2.3296,-2.3227,-2.3188,-2.3188,-2.3198,-2.3227,-2.3809,-2.418,-2.4316,-2.4336,-2.4141,-2.3848,-2.373,-2.3603,-2.311,-2.3003,-2.2948,-2.3073,-2.3564,-2.422,-2.4824,-2.5751,-2.609,-2.6558,-2.7171,-2.7083,-2.7043,-2.6839,-2.6574,-2.6201,-2.5913,-2.5673,-2.5408,-2.5336,-2.5312,-2.5312,-2.5312,-2.5312,-2.5312,-2.5312,-2.5312,-2.5312,-2.5312,-2.5312,-2.5312,-2.5347,-2.5394,-2.5684,-2.5684,-2.5684,-2.5684,-2.5684,-2.5684,-2.5684,-2.5684,-2.5684,-2.5684,-2.5684,-2.5684,-2.5684,-2.5684,-2.5684,-2.5684,-2.5684,-2.5684,-2.5684,-2.5684,-2.5684,-2.5684,-2.5684,-2.5625,-2.5381,-2.5145,-2.4971,-2.4727,-2.4434,-2.4316,-2.4111,-2.3799,-2.3711,-2.3403,-2.3159,-2.312,-2.3101,-2.3101,-2.3101,-2.3101,-2.3101,-2.3101,-2.3101,-2.3101,-2.3101,-2.3247,-2.3603,-2.3871,-2.3705,-2.314,-2.3101,-2.3101,-2.313,-2.312,-2.312,-2.3101,-2.313,-2.3442,-2.4092,-2.4355,-2.4424,-2.4453,-2.4697,-2.4617,-2.3867,-2.3984,-2.3896,-2.3721,-2.3613,-2.3496,-2.3198,-2.313,-2.313,-2.312,-2.3432,-2.353,-2.3539,-2.375,-2.3779,-2.3428,-2.3594,-2.3506,-2.3227,-2.3135,-2.326,-2.3778,-2.4387,-2.5174,-2.5461,-2.6362,-2.6959,-2.7589,-2.8059,-2.7846,-2.7657,-2.7426,-2.7162,-2.6801,-2.6453,-2.6154,-2.5757,-2.5372,-2.5336,-2.5312,-2.5312,-2.5312,-2.5312,-2.5312,-2.5312,-2.5312,-2.5312,-2.5312,-2.5312,-2.5312,-2.5312,-2.5684,-2.5684,-2.5684,-2.5684,-2.5684,-2.5684,-2.5684,-2.5684,-2.5684,-2.5684,-2.5684,-2.5684,-2.5684,-2.5684,-2.5684,-2.5684,-2.5684,-2.5684,-2.5684,-2.5684,-2.5684,-2.5684,-2.5684,-2.5674,-2.5547,-2.5381,-2.5352,-2.5225,-2.4943,-2.4795,-2.4551,-2.4355,-2.4141,-2.3828,-2.3457,-2.3408,-2.3301,-2.313,-2.3101,-2.3101,-2.3101,-2.3101,-2.3101,-2.3101,-2.3101,-2.3237,-2.3535,-2.3916,-2.3965,-2.3676,-2.3627,-2.3559,-2.3428,-2.3418,-2.3296,-2.314,-2.3257,-2.373,-2.4287,-2.457,-2.4687,-2.4727,-2.4998,-2.4744,-2.4258,-2.4297,-2.4268,-2.4102,-2.4053,-2.3926,-2.375,-2.3627,-2.3627,-2.3701,-2.3471,-2.3305,-2.313,-2.3325,-2.3389,-2.3237,-2.333,-2.3447,-2.311,-2.3101,-2.3353,-2.3767,-2.4018,-2.483,-2.5577,-2.6794,-2.7632,-2.7966,-2.8379,-2.8234,-2.7993,-2.7801,-2.7618,-2.7294,-2.7018,-2.6669,-2.6202,-2.5673,-2.5504,-2.548,-2.5384,-2.5312,-2.5312,-2.5312,-2.5312,-2.5312,-2.5312,-2.5312,-2.5312,-2.5312,-2.5312,-2.5684,-2.5684,-2.5684,-2.5684,-2.5684,-2.5684,-2.5684,-2.5684,-2.5684,-2.5684,-2.5684,-2.5684,-2.5684,-2.5684,-2.5684,-2.5684,-2.5684,-2.5684,-2.5684,-2.5684,-2.5684,-2.5684,-2.5684,-2.5684,-2.5664,-2.5664,-2.5674,-2.5635,-2.5469,-2.5264,-2.5145,-2.494,-2.4609,-2.4277,-2.3935,-2.3848,-2.3613,-2.333,-2.3281,-2.3179,-2.312,-2.3101,-2.3101,-2.312,-2.3344,-2.3296,-2.3457,-2.376,-2.4131,-2.4463,-2.4404,-2.4023,-2.374,-2.3701,-2.3613,-2.3374,-2.3643,-2.4053,-2.4453,-2.4844,-2.5029,-2.5029,-2.5135,-2.4998,-2.4629,-2.4609,-2.4639,-2.4492,-2.4482,-2.4414,-2.4316,-2.4355,-2.4307,-2.4228,-2.4014,-2.3691,-2.3369,-2.3149,-2.3101,-2.3101,-2.311,-2.3101,-2.3101,-2.3101,-2.3135,-2.343,-2.381,-2.4445,-2.5295,-2.6257,-2.6969,-2.7389,-2.7886,-2.851,-2.8294,-2.8102,-2.7942,-2.775,-2.7522,-2.7198,-2.6717,-2.6286,-2.5925,-2.5733,-2.5673,-2.5504,-2.5312,-2.5312,-2.536,-2.5312,-2.5312,-2.5312,-2.5312,-2.5312,-2.5312,-2.5684,-2.5684,-2.5684,-2.5684,-2.5684,-2.5684,-2.5684,-2.5684,-2.5684,-2.5684,-2.5684,-2.5684,-2.5684,-2.5684,-2.5684,-2.5684,-2.5684,-2.5684,-2.5684,-2.5684,-2.5684,-2.5684,-2.5684,-2.5684,-2.5684,-2.5684,-2.5684,-2.5684,-2.5635,-2.5557,-2.541,-2.5145,-2.5,-2.4717,-2.4346,-2.4268,-2.4072,-2.3721,-2.3652,-2.3486,-2.3218,-2.3179,-2.3179,-2.3227,-2.3725,-2.3916,-2.3867,-2.4394,-2.4861,-2.4756,-2.4336,-2.3896,-2.3613,-2.3711,-2.3779,-2.3789,-2.4043,-2.4473,-2.4844,-2.5057,-2.5078,-2.5184,-2.5361,-2.54,-2.5029,-2.5225,-2.5215,-2.5039,-2.4969,-2.4795,-2.458,-2.4453,-2.4512,-2.4502,-2.4385,-2.4248,-2.4062,-2.35,-2.3179,-2.313,-2.311,-2.3101,-2.3101,-2.3101,-2.3135,-2.3222,-2.3604,-2.4155,-2.4914,-2.5757,-2.6434,-2.6981,-2.7603,-2.8219,-2.845,-2.8294,-2.8234,-2.815,-2.7969,-2.7825,-2.7344,-2.6946,-2.6647,-2.6298,-2.5985,-2.5805,-2.5697,-2.5516,-2.56,-2.5456,-2.542,-2.5505,-2.5577,-2.5504,-2.5564,-2.5684,-2.5684,-2.5684,-2.5684,-2.5684,-2.5684,-2.5684,-2.5684,-2.5684,-2.5684,-2.5684,-2.5684,-2.5684,-2.5684,-2.5684,-2.5684,-2.5684,-2.5684,-2.5684,-2.5684,-2.5684,-2.5684,-2.5684,-2.5684,-2.5684,-2.5684,-2.5684,-2.5684,-2.5684,-2.5674,-2.5605,-2.541,-2.5371,-2.5146,-2.4785,-2.4717,-2.4492,-2.416,-2.4082,-2.3955,-2.3734,-2.3695,-2.3695,-2.3769,-2.417,-2.4287,-2.418,-2.4687,-2.4893,-2.4756,-2.4521,-2.4297,-2.4121,-2.4238,-2.4277,-2.418,-2.4482,-2.4785,-2.5039,-2.5264,-2.54,-2.5371,-2.5625,-2.5576,-2.5469,-2.5577,-2.5567,-2.5449,-2.5361,-2.5264,-2.5068,-2.5049,-2.4982,-2.499,-2.4834,-2.4736,-2.459,-2.3975,-2.3447,-2.3398,-2.3281,-2.314,-2.3101,-2.313,-2.3091,-2.3178,-2.3178,-2.3734,-2.4413,-2.5253,-2.6133,-2.6805,-2.7389,-2.7926,-2.8351,-2.8474,-2.845,-2.8402,-2.833,-2.8234,-2.8017,-2.7705,-2.739,-2.6971,-2.6478,-2.6442,-2.6273,-2.6069,-2.5961,-2.6117,-2.6165,-2.6069,-2.6045,-2.6153,-2.6249,-2.5684,-2.5684,-2.5684,-2.5684,-2.5684,-2.5684,-2.5684,-2.5684,-2.5684,-2.5684,-2.5684,-2.5684,-2.5684,-2.5684,-2.5684,-2.5684,-2.5684,-2.5684,-2.5684,-2.5684,-2.5684,-2.5684,-2.5684,-2.5684,-2.5684,-2.5684,-2.5684,-2.5684,-2.5684,-2.5684,-2.5654,-2.5654,-2.5664,-2.5498,-2.5234,-2.5204,-2.4951,-2.457,-2.4512,-2.4414,-2.4336,-2.4316,-2.4316,-2.4326,-2.4492,-2.4492,-2.4482,-2.4766,-2.4922,-2.458,-2.492,-2.5116,-2.5194,-2.5106,-2.4941,-2.4541,-2.4922,-2.5176,-2.5283,-2.5498,-2.5645,-2.5684,-2.5684,-2.5684,-2.5674,-2.5664,-2.5654,-2.5654,-2.5606,-2.5606,-2.5674,-2.5567,-2.5586,-2.5567,-2.5352,-2.5205,-2.5029,-2.4453,-2.4092,-2.3838,-2.3594,-2.3389,-2.3237,-2.3208,-2.3149,-2.3091,-2.3135,-2.3387,-2.4112,-2.4914,-2.5883,-2.6887,-2.7563,-2.8018,-2.8391,-2.851,-2.851,-2.851,-2.851,-2.8486,-2.8438,-2.8222,-2.781,-2.7342,-2.6994,-2.6934,-2.6813,-2.6573,-2.6597,-2.6873,-2.6789,-2.6537,-2.6621,-2.6849,-2.6922,-2.5684,-2.5684,-2.5684,-2.5684,-2.5684,-2.5684,-2.5684,-2.5684,-2.5684,-2.5684,-2.5684,-2.5684,-2.5684,-2.5684,-2.5684,-2.5684,-2.5684,-2.5684,-2.5684,-2.5684,-2.5684,-2.5684,-2.5684,-2.5684,-2.5684,-2.5684,-2.5684,-2.5684,-2.5684,-2.5684,-2.5684,-2.5684,-2.5684,-2.5586,-2.5567,-2.5596,-2.5371,-2.5019,-2.4961,-2.4824,-2.4619,-2.4551,-2.4551,-2.458,-2.4824,-2.4795,-2.4629,-2.4844,-2.5077,-2.5018,-2.5077,-2.5264,-2.543,-2.5273,-2.5125,-2.5125,-2.5322,-2.5537,-2.5528,-2.5606,-2.5684,-2.5684,-2.5684,-2.5684,-2.5684,-2.5684,-2.5684,-2.5684,-2.5684,-2.5684,-2.5684,-2.5684,-2.5684,-2.5654,-2.5615,-2.5528,-2.5478,-2.5146,-2.4687,-2.4443,-2.4043,-2.3623,-2.3516,-2.3335,-2.3218,-2.3149,-2.3091,-2.3517,-2.4241,-2.5084,-2.5955,-2.6928,-2.7886,-2.8179,-2.851,-2.851,-2.851,-2.851,-2.851,-2.851,-2.8486,-2.8498,-2.821,-2.7738,-2.7498,-2.7402,-2.7246,-2.7102,-2.7102,-2.7258,-2.7114,-2.6946,-2.7138,-2.7342,-2.7366,-2.5684,-2.5684,-2.5684,-2.5684,-2.5684,-2.5684,-2.5684,-2.5684,-2.5684,-2.5684,-2.5684,-2.5684,-2.5684,-2.5684,-2.5684,-2.5684,-2.5684,-2.5684,-2.5684,-2.5684,-2.5684,-2.5684,-2.5684,-2.5684,-2.5684,-2.5684,-2.5684,-2.5684,-2.5684,-2.5684,-2.5684,-2.5684,-2.5684,-2.5684,-2.5684,-2.5654,-2.5615,-2.542,-2.5381,-2.5303,-2.5098,-2.5031,-2.5078,-2.5156,-2.5254,-2.5283,-2.5215,-2.5254,-2.541,-2.541,-2.542,-2.5537,-2.5547,-2.5566,-2.54,-2.5439,-2.5605,-2.5684,-2.5684,-2.5684,-2.5684,-2.5684,-2.5684,-2.5684,-2.5684,-2.5684,-2.5684,-2.5684,-2.5684,-2.5684,-2.5684,-2.5684,-2.5684,-2.5684,-2.5684,-2.5684,-2.5635,-2.5518,-2.5283,-2.498,-2.4531,-2.4102,-2.373,-2.3574,-2.3335,-2.3208,-2.312,-2.3647,-2.437,-2.4999,-2.5704,-2.6794,-2.7684,-2.8099,-2.8339,-2.8471,-2.8471,-2.851,-2.851,-2.851,-2.851,-2.851,-2.8462,-2.8222,-2.8014,-2.7846,-2.793,-2.7897,-2.7762,-2.7666,-2.7702,-2.7765,-2.7777,-2.7825,-2.781,-2.5684,-2.5684,-2.5684,-2.5684,-2.5684,-2.5684,-2.5684,-2.5684,-2.5684,-2.5684,-2.5684,-2.5684,-2.5684,-2.5684,-2.5684,-2.5684,-2.5684,-2.5684,-2.5684,-2.5684,-2.5684,-2.5684,-2.5684,-2.5684,-2.5684,-2.5684,-2.5684,-2.5684,-2.5684,-2.5684,-2.5684,-2.5684,-2.5684,-2.5684,-2.5684,-2.5684,-2.5684,-2.5684,-2.5684,-2.5684,-2.5684,-2.5684,-2.5684,-2.5684,-2.5684,-2.5654,-2.5586,-2.5606,-2.5625,-2.5635,-2.5645,-2.5674,-2.5674,-2.5684,-2.5684,-2.5684,-2.5684,-2.5684,-2.5684,-2.5684,-2.5684,-2.5684,-2.5684,-2.5684,-2.5684,-2.5684,-2.5684,-2.5684,-2.5684,-2.5684,-2.5684,-2.5684,-2.5684,-2.5684,-2.5684,-2.5684,-2.5684,-2.5625,-2.5615,-2.5294,-2.4961,-2.456,-2.415,-2.3721,-2.3516,-2.3198,-2.3101,-2.3604,-2.4241,-2.4456,-2.52,-2.6464,-2.7348,-2.7834,-2.8179,-2.8391,-2.8431,-2.851,-2.851,-2.851,-2.851,-2.851,-2.845,-2.8414,-2.8402,-2.8294,-2.8462,-2.851,-2.827,-2.8198,-2.8414,-2.8426,-2.8222,-2.8198,-2.8234,-2.5684,-2.5684,-2.5684,-2.5684,-2.5684,-2.5684,-2.5684,-2.5684,-2.5684,-2.5684,-2.5684,-2.5684,-2.5684,-2.5684,-2.5684,-2.5684,-2.5684,-2.5684,-2.5684,-2.5684,-2.5684,-2.5684,-2.5684,-2.5684,-2.5684,-2.5684,-2.5684,-2.5684,-2.5684,-2.5684,-2.5684,-2.5684,-2.5684,-2.5684,-2.5684,-2.5684,-2.5684,-2.5684,-2.5684,-2.5684,-2.5684,-2.5684,-2.5684,-2.5684,-2.5684,-2.5684,-2.5684,-2.5684,-2.5684,-2.5684,-2.5684,-2.5684,-2.5684,-2.5684,-2.5684,-2.5684,-2.5684,-2.5684,-2.5684,-2.5684,-2.5684,-2.5684,-2.5684,-2.5684,-2.5684,-2.5684,-2.5684,-2.5684,-2.5684,-2.5684,-2.5684,-2.5684,-2.5684,-2.5684,-2.5684,-2.5684,-2.5684,-2.5684,-2.5684,-2.5664,-2.5274,-2.4922,-2.4512,-2.4053,-2.3633,-2.3315,-2.3232,-2.3721,-2.4241,-2.4531,-2.5126,-2.6423,-2.7174,-2.7632,-2.8127,-2.8351,-2.8431,-2.851,-2.851,-2.851,-2.851,-2.851,-2.851,-2.8486,-2.851,-2.851,-2.851,-2.851,-2.851,-2.851,-2.851,-2.851,-2.8486,-2.851,-2.851,-2.5684,-2.5684,-2.5684,-2.5684,-2.5684,-2.5684,-2.5684,-2.5684,-2.5684,-2.5684,-2.5684,-2.5684,-2.5684,-2.5684,-2.5684,-2.5684,-2.5684,-2.5684,-2.5684,-2.5684,-2.5684,-2.5684,-2.5684,-2.5684,-2.5684,-2.5684,-2.5684,-2.5684,-2.5684,-2.5684,-2.5684,-2.5684,-2.5684,-2.5684,-2.5684,-2.5684,-2.5684,-2.5684,-2.5684,-2.5684,-2.5684,-2.5684,-2.5684,-2.5684,-2.5684,-2.5684,-2.5684,-2.5684,-2.5684,-2.5684,-2.5684,-2.5684,-2.5684,-2.5684,-2.5684,-2.5684,-2.5684,-2.5684,-2.5684,-2.5684,-2.5684,-2.5684,-2.5684,-2.5684,-2.5684,-2.5684,-2.5684,-2.5684,-2.5684,-2.5703,-2.5723,-2.5684,-2.5684,-2.5684,-2.5713,-2.5684,-2.5684,-2.5684,-2.5684,-2.5684,-2.5645,-2.5273,-2.4941,-2.4678,-2.4189,-2.3691,-2.3565,-2.3849,-2.4481,-2.5031,-2.5704,-2.664,-2.7133,-2.747,-2.8007,-2.8391,-2.8431,-2.851,-2.851,-2.851,-2.851,-2.851,-2.851,-2.851,-2.851,-2.851,-2.851,-2.851,-2.851,-2.851,-2.851,-2.851,-2.851,-2.851,-2.851,-2.5684,-2.5684,-2.5684,-2.5684,-2.5684,-2.5684,-2.5684,-2.5684,-2.5684,-2.5684,-2.5684,-2.5684,-2.5684,-2.5684,-2.5684,-2.5684,-2.5684,-2.5684,-2.5684,-2.5684,-2.5684,-2.5684,-2.5684,-2.5684,-2.5684,-2.5684,-2.5684,-2.5684,-2.5684,-2.5684,-2.5684,-2.5684,-2.5684,-2.5684,-2.5684,-2.5684,-2.5684,-2.5684,-2.5684,-2.5684,-2.5684,-2.5684,-2.5684,-2.5684,-2.5684,-2.5684,-2.5684,-2.5684,-2.5684,-2.5684,-2.5684,-2.5684,-2.5684,-2.5684,-2.5684,-2.5684,-2.5684,-2.5781,-2.585,-2.585,-2.5703,-2.5684,-2.5684,-2.5684,-2.5684,-2.5693,-2.5801,-2.5928,-2.5947,-2.5986,-2.5966,-2.5966,-2.5947,-2.5908,-2.583,-2.5723,-2.5684,-2.5684,-2.5684,-2.5684,-2.5645,-2.5605,-2.5352,-2.5273,-2.4824,-2.4141,-2.3983,-2.4068,-2.4499,-2.5125,-2.5528,-2.6179,-2.6697,-2.7067,-2.776,-2.8174,-2.8323,-2.857,-2.857,-2.8558,-2.8595,-2.8546,-2.851,-2.851,-2.8595,-2.851,-2.851,-2.851,-2.851,-2.851,-2.851,-2.851,-2.851,-2.851,-2.851,-2.5684,-2.5684,-2.5684,-2.5684,-2.5684,-2.5684,-2.5684,-2.5684,-2.5684,-2.5684,-2.5684,-2.5684,-2.5684,-2.5684,-2.5684,-2.5684,-2.5684,-2.5684,-2.5684,-2.5684,-2.5684,-2.5684,-2.5684,-2.5684,-2.5684,-2.5684,-2.5684,-2.5684,-2.5684,-2.5684,-2.5684,-2.5684,-2.5684,-2.5684,-2.5684,-2.5684,-2.5684,-2.5684,-2.5684,-2.5684,-2.5684,-2.5684,-2.5684,-2.5684,-2.5684,-2.5684,-2.5684,-2.5684,-2.5684,-2.5684,-2.5684,-2.5684,-2.5684,-2.5684,-2.5684,-2.5684,-2.5781,-2.5977,-2.6103,-2.5996,-2.5762,-2.5703,-2.5762,-2.5869,-2.5918,-2.5781,-2.5898,-2.6289,-2.6338,-2.6494,-2.6592,-2.6611,-2.6367,-2.626,-2.6123,-2.5937,-2.581,-2.5693,-2.5693,-2.5684,-2.5645,-2.5635,-2.5615,-2.5508,-2.5195,-2.4521,-2.4235,-2.427,-2.4302,-2.4723,-2.4854,-2.5274,-2.5941,-2.6598,-2.7423,-2.7993,-2.8781,-2.8907,-2.8847,-2.8775,-2.8727,-2.8667,-2.8703,-2.8823,-2.8943,-2.8727,-2.8607,-2.8847,-2.8919,-2.8631,-2.851,-2.851,-2.851,-2.851,-2.851,-2.611,-2.5965,-2.5965,-2.583,-2.5684,-2.5684,-2.5684,-2.5684,-2.5684,-2.5684,-2.5684,-2.5684,-2.5684,-2.5684,-2.5684,-2.5684,-2.5684,-2.5684,-2.5684,-2.5684,-2.5684,-2.5684,-2.5684,-2.5684,-2.5684,-2.5684,-2.5684,-2.5684,-2.5684,-2.5684,-2.5684,-2.5684,-2.5684,-2.5684,-2.5684,-2.5684,-2.5684,-2.5684,-2.5684,-2.5684,-2.5684,-2.5684,-2.5684,-2.5684,-2.5684,-2.5684,-2.5684,-2.5684,-2.5684,-2.5693,-2.5703,-2.5723,-2.5732,-2.5723,-2.5742,-2.5781,-2.5937,-2.6221,-2.6367,-2.6289,-2.625,-2.6454,-2.6483,-2.6434,-2.6426,-2.6494,-2.6562,-2.6728,-2.6777,-2.6914,-2.6904,-2.6875,-2.6758,-2.666,-2.6484,-2.6221,-2.6035,-2.5918,-2.5713,-2.5703,-2.5693,-2.5654,-2.5654,-2.5654,-2.5332,-2.4922,-2.4675,-2.4549,-2.4651,-2.4934,-2.5259,-2.5904,-2.674,-2.7527,-2.8397,-2.8958,-2.9436,-2.9292,-2.9148,-2.9148,-2.9136,-2.9076,-2.9124,-2.9244,-2.9388,-2.9376,-2.9388,-2.946,-2.9364,-2.91,-2.8775,-2.851,-2.851,-2.8619,-2.8691,-2.6255,-2.6004,-2.6042,-2.5965,-2.5732,-2.5684,-2.5684,-2.5684,-2.5684,-2.5684,-2.5684,-2.5684,-2.5684,-2.5684,-2.5684,-2.5684,-2.5684,-2.5684,-2.5684,-2.5684,-2.5684,-2.5684,-2.5684,-2.5684,-2.5684,-2.5684,-2.5684,-2.5684,-2.5684,-2.5684,-2.5684,-2.5684,-2.5684,-2.5684,-2.5684,-2.5684,-2.5693,-2.5684,-2.5684,-2.5684,-2.5684,-2.5889,-2.5947,-2.6006,-2.6054,-2.6161,-2.6113,-2.6064,-2.5977,-2.5977,-2.5977,-2.5957,-2.5937,-2.5947,-2.5947,-2.6133,-2.6279,-2.6484,-2.668,-2.666,-2.6719,-2.6865,-2.6924,-2.6943,-2.7012,-2.7031,-2.6953,-2.7187,-2.7217,-2.7246,-2.7285,-2.7334,-2.7236,-2.7139,-2.6816,-2.6543,-2.6299,-2.6133,-2.5918,-2.5732,-2.5713,-2.5693,-2.5684,-2.5684,-2.5547,-2.5244,-2.5008,-2.5109,-2.564,-2.5934,-2.6415,-2.7195,-2.818,-2.9021,-2.9869,-2.9846,-2.9809,-2.9749,-2.9653,-2.9713,-2.9689,-2.9617,-2.9581,-2.9689,-2.9845,-3.0037,-3.0001,-2.9857,-2.9737,-2.9593,-2.9328,-2.9112,-2.9172,-2.9304,-2.922,-2.6014,-2.5781,-2.6014,-2.5965,-2.5781,-2.5684,-2.5742,-2.5684,-2.5684,-2.5684,-2.5684,-2.5684,-2.5684,-2.5684,-2.5684,-2.5684,-2.5684,-2.5693,-2.5723,-2.5771,-2.581,-2.5742,-2.5781,-2.582,-2.582,-2.5713,-2.5762,-2.5801,-2.5752,-2.5898,-2.584,-2.584,-2.5918,-2.583,-2.5723,-2.5713,-2.5713,-2.5713,-2.5781,-2.582,-2.5918,-2.623,-2.6348,-2.6435,-2.6571,-2.6688,-2.668,-2.6494,-2.6377,-2.6377,-2.6377,-2.6377,-2.6377,-2.6367,-2.6514,-2.6826,-2.6602,-2.6875,-2.748,-2.7197,-2.7148,-2.7197,-2.7314,-2.7256,-2.7129,-2.7119,-2.7285,-2.7617,-2.7656,-2.7832,-2.791,-2.79,-2.7725,-2.7539,-2.7226,-2.6963,-2.6728,-2.6455,-2.6269,-2.6025,-2.585,-2.5703,-2.5693,-2.5684,-2.5684,-2.5537,-2.5273,-2.5654,-2.6455,-2.7275,-2.7832,-2.863,-2.9647,-2.9907,-3.0426,-3.0284,-3.0194,-3.0146,-3.017,-3.0254,-3.0254,-3.0182,-3.017,-3.0194,-3.0362,-3.0591,-3.0386,-3.0134,-3.023,-3.0326,-3.0122,-2.9965,-3.0001,-2.9905,-2.9725,-2.6736,-2.6516,-2.6602,-2.6458,-2.6207,-2.6052,-2.5878,-2.5732,-2.5684,-2.5684,-2.5684,-2.5684,-2.5684,-2.5684,-2.5684,-2.5732,-2.5684,-2.5703,-2.5762,-2.6133,-2.6094,-2.6377,-2.6396,-2.6211,-2.6133,-2.6162,-2.6172,-2.6172,-2.6191,-2.6338,-2.6543,-2.6592,-2.6475,-2.6376,-2.6338,-2.6377,-2.6592,-2.6592,-2.6611,-2.6551,-2.6541,-2.6719,-2.6807,-2.6826,-2.6992,-2.709,-2.71,-2.6904,-2.6816,-2.6807,-2.6816,-2.6816,-2.6807,-2.6797,-2.6885,-2.7119,-2.7021,-2.749,-2.792,-2.792,-2.7871,-2.7832,-2.7783,-2.7773,-2.7851,-2.7871,-2.7978,-2.7998,-2.8018,-2.8154,-2.8174,-2.8164,-2.8057,-2.7998,-2.7754,-2.7562,-2.7317,-2.6953,-2.6699,-2.6396,-2.6172,-2.5986,-2.5859,-2.5752,-2.5713,-2.6053,-2.5912,-2.6773,-2.7651,-2.8752,-2.9612,-3.0304,-3.1001,-3.1017,-3.1052,-3.0879,-3.0886,-3.0946,-3.0898,-3.0874,-3.085,-3.0723,-3.0886,-3.0958,-3.1067,-3.1163,-3.0995,-3.0898,-3.1103,-3.1151,-3.0807,-3.0494,-3.0326,-3.017,-2.9989,-2.6986,-2.6794,-2.6853,-2.6747,-2.6496,-2.6294,-2.611,-2.5965,-2.5975,-2.5975,-2.5975,-2.5975,-2.5927,-2.5868,-2.582,-2.5732,-2.5732,-2.5693,-2.5752,-2.6162,-2.6143,-2.623,-2.6328,-2.6494,-2.6348,-2.6416,-2.6553,-2.6602,-2.6611,-2.6875,-2.6953,-2.6973,-2.7158,-2.707,-2.6953,-2.6982,-2.6943,-2.6914,-2.6894,-2.6924,-2.6982,-2.7109,-2.7236,-2.7295,-2.7393,-2.75,-2.7441,-2.7344,-2.7236,-2.7246,-2.7246,-2.7246,-2.7236,-2.7246,-2.7314,-2.751,-2.7705,-2.8018,-2.8193,-2.8252,-2.8184,-2.8203,-2.8301,-2.8301,-2.8301,-2.8203,-2.8223,-2.8252,-2.8301,-2.8291,-2.8291,-2.8301,-2.8271,-2.8193,-2.8105,-2.7914,-2.765,-2.7285,-2.708,-2.6777,-2.6543,-2.6338,-2.6152,-2.5869,-2.5752,-2.619,-2.6605,-2.7594,-2.8563,-2.9567,-3.0453,-3.108,-3.1536,-3.1448,-3.1412,-3.1456,-3.1536,-3.1681,-3.1536,-3.132,-3.1368,-3.1284,-3.1476,-3.1597,-3.1512,-3.1476,-3.1597,-3.1645,-3.146,-3.14,-3.1368,-3.1043,-3.0718,-3.0555,-3.0482,-2.6747,-2.6602,-2.6805,-2.6805,-2.6554,-2.6544,-2.6496,-2.6448,-2.6448,-2.6448,-2.6448,-2.6448,-2.6255,-2.61,-2.6091,-2.5907,-2.5732,-2.5684,-2.5781,-2.582,-2.5996,-2.5957,-2.6123,-2.6289,-2.6357,-2.6533,-2.6709,-2.6875,-2.7002,-2.7256,-2.7246,-2.7236,-2.7539,-2.7578,-2.7519,-2.7393,-2.7285,-2.7305,-2.7305,-2.7324,-2.7373,-2.7519,-2.7646,-2.7754,-2.79,-2.8037,-2.7998,-2.7861,-2.7725,-2.7685,-2.7685,-2.7728,-2.7728,-2.7676,-2.7939,-2.8135,-2.8232,-2.8262,-2.8281,-2.8291,-2.8301,-2.8301,-2.8301,-2.8301,-2.8301,-2.8301,-2.8301,-2.8301,-2.8301,-2.8301,-2.8301,-2.8301,-2.8291,-2.8271,-2.8271,-2.8057,-2.7822,-2.7598,-2.7432,-2.7207,-2.6982,-2.6797,-2.668,-2.6435,-2.6133,-2.6507,-2.6978,-2.7517,-2.8513,-2.9543,-3.0374,-3.1003,-3.1415,-3.1605,-3.1617,-3.1472,-3.1705,-3.1705,-3.1705,-3.1573,-3.1657,-3.1625,-3.1657,-3.1669,-3.1693,-3.1617,-3.1294,-3.1339,-3.1403,-3.14,-3.1163,-3.138,-3.1001,-3.1264,-3.1308,-2.7167,-2.7061,-2.7177,-2.7119,-2.7071,-2.7081,-2.688,-2.6544,-2.6496,-2.6496,-2.6496,-2.6496,-2.639,-2.61,-2.61,-2.5917,-2.5771,-2.5732,-2.5986,-2.6055,-2.6064,-2.6357,-2.6465,-2.6435,-2.6416,-2.6533,-2.6768,-2.708,-2.7187,-2.749,-2.7871,-2.7988,-2.7969,-2.8057,-2.8027,-2.7978,-2.7891,-2.7832,-2.7803,-2.7803,-2.7822,-2.7978,-2.8066,-2.8135,-2.8184,-2.8301,-2.8223,-2.8174,-2.8066,-2.8086,-2.8105,-2.8105,-2.8115,-2.8115,-2.8223,-2.8252,-2.8281,-2.8291,-2.8301,-2.8301,-2.8301,-2.8301,-2.8301,-2.8301,-2.8301,-2.8301,-2.8301,-2.8301,-2.8301,-2.8301,-2.8301,-2.8301,-2.8301,-2.8301,-2.8301,-2.8193,-2.7998,-2.7949,-2.7783,-2.7568,-2.7353,-2.7187,-2.708,-2.6875,-2.6652,-2.6932,-2.7261,-2.7723,-2.8332,-2.9309,-2.9909,-3.0543,-3.0824,-3.0913,-3.1048,-3.0958,-3.1383,-3.1705,-3.1427,-3.1294,-3.1327,-3.1315,-3.1572,-3.1472,-3.1149,-3.0869,-3.0633,-3.0678,-3.0633,-3.0689,-3.0553,-3.1036,-3.1439,-3.1572,-3.1661,-2.732,-2.732,-2.732,-2.732,-2.732,-2.732,-2.7109,-2.6832,-2.6832,-2.6832,-2.6832,-2.6832,-2.6688,-2.6448,-2.6352,-2.6159,-2.5868,-2.5742,-2.5869,-2.5977,-2.6162,-2.6201,-2.6318,-2.6455,-2.6416,-2.6572,-2.6914,-2.7324,-2.7451,-2.7851,-2.8271,-2.8242,-2.8301,-2.8301,-2.8262,-2.8223,-2.8252,-2.8242,-2.8252,-2.8301,-2.8301,-2.8301,-2.8301,-2.8301,-2.8301,-2.8301,-2.8301,-2.8301,-2.8301,-2.8301,-2.8301,-2.8291,-2.8291,-2.8281,-2.8281,-2.8301,-2.8301,-2.8301,-2.8301,-2.8301,-2.8301,-2.8301,-2.8301,-2.8301,-2.8301,-2.8301,-2.8301,-2.8301,-2.8301,-2.8301,-2.8301,-2.8301,-2.8301,-2.8301,-2.8301,-2.8301,-2.8281,-2.8281,-2.8115,-2.79,-2.7715,-2.7529,-2.7353,-2.7178,-2.708,-2.7253,-2.731,-2.748,-2.8038,-2.8769,-2.9174,-2.9567,-2.9886,-3.0068,-3.0158,-3.0158,-3.0351,-3.0407,-3.017,-3.0125,-3.0543,-3.0498,-3.026,-3.0306,-3.0306,-3.0125,-2.9932,-2.9704,-2.9647,-2.9704,-2.9852,-3.017,-3.0779,-3.1427,-3.1572,-2.732,-2.732,-2.732,-2.732,-2.732,-2.732,-2.7309,-2.732,-2.7262,-2.732,-2.7262,-2.7272,-2.7081,-2.6794,-2.6544,-2.6304,-2.6014,-2.583,-2.5693,-2.5703,-2.5781,-2.5859,-2.5996,-2.6113,-2.625,-2.6621,-2.7051,-2.7461,-2.7773,-2.8086,-2.8301,-2.8301,-2.8301,-2.8301,-2.8301,-2.8301,-2.8301,-2.8301,-2.8301,-2.8301,-2.8301,-2.8301,-2.8301,-2.8301,-2.8301,-2.8301,-2.8301,-2.8301,-2.8301,-2.8301,-2.8301,-2.8301,-2.8301,-2.8301,-2.8301,-2.8301,-2.8301,-2.8301,-2.8301,-2.8301,-2.8301,-2.8301,-2.8301,-2.8301,-2.8301,-2.8301,-2.8301,-2.8301,-2.8301,-2.8301,-2.8301,-2.8301,-2.8301,-2.8301,-2.8301,-2.8301,-2.8301,-2.8301,-2.8232,-2.8066,-2.7969,-2.7822,-2.7842,-2.7685,-2.7578,-2.763,-2.755,-2.7532,-2.7759,-2.8338,-2.8473,-2.8661,-2.9108,-2.9246,-2.8912,-2.8958,-2.9004,-2.8958,-2.8912,-2.9096,-2.951,-2.928,-2.8773,-2.9143,-2.9567,-2.9475,-2.928,-2.9096,-2.8993,-2.9096,-2.9189,-2.928,-2.9886,-3.0678,-3.1339,-2.732,-2.732,-2.732,-2.732,-2.732,-2.732,-2.732,-2.732,-2.732,-2.732,-2.732,-2.7272,-2.7177,-2.6948,-2.6651,-2.64,-2.61,-2.5868,-2.5732,-2.5684,-2.5684,-2.5684,-2.5703,-2.5957,-2.6123,-2.6465,-2.6943,-2.7559,-2.8008,-2.8232,-2.8301,-2.8301,-2.8301,-2.8301,-2.8301,-2.8301,-2.8301,-2.8301,-2.8301,-2.8301,-2.8301,-2.8301,-2.8301,-2.8301,-2.8301,-2.8301,-2.8301,-2.8301,-2.8301,-2.8301,-2.8301,-2.8301,-2.8301,-2.8301,-2.8301,-2.8301,-2.8301,-2.8301,-2.8301,-2.8301,-2.8301,-2.8301,-2.8301,-2.8301,-2.8301,-2.8301,-2.8301,-2.8301,-2.8301,-2.8301,-2.8301,-2.8301,-2.8301,-2.8301,-2.8301,-2.8301,-2.8301,-2.8301,-2.8301,-2.8242,-2.8164,-2.8174,-2.8213,-2.8184,-2.8105,-2.793,-2.7705,-2.7629,-2.7513,-2.7804,-2.7716,-2.7961,-2.8499,-2.8574,-2.8081,-2.7793,-2.7898,-2.8168,-2.8308,-2.8448,-2.8552,-2.8262,-2.7992,-2.8495,-2.8866,-2.868,-2.8588,-2.8588,-2.8541,-2.8773,-2.8402,-2.8402,-2.8773,-2.9475,-3.0453,-2.732,-2.732,-2.732,-2.732,-2.732,-2.732,-2.732,-2.732,-2.732,-2.732,-2.732,-2.7309,-2.7214,-2.7044,-2.6805,-2.6554,-2.6245,-2.6014,-2.582,-2.5732,-2.5762,-2.5684,-2.5732,-2.5947,-2.6162,-2.6484,-2.707,-2.7666,-2.8203,-2.8301,-2.8301,-2.8301,-2.8301,-2.8301,-2.8301,-2.8301,-2.8301,-2.8301,-2.8301,-2.8301,-2.8301,-2.8301,-2.8301,-2.8301,-2.8301,-2.8301,-2.8301,-2.8301,-2.8301,-2.8301,-2.8301,-2.8301,-2.8301,-2.8301,-2.8301,-2.8301,-2.8301,-2.8301,-2.8301,-2.8301,-2.8301,-2.8301,-2.8301,-2.8301,-2.8301,-2.8301,-2.8301,-2.8301,-2.8301,-2.8301,-2.8301,-2.8301,-2.8301,-2.8301,-2.8301,-2.8301,-2.8301,-2.8301,-2.8301,-2.8281,-2.8232,-2.8242,-2.8262,-2.8262,-2.8203,-2.8193,-2.7969,-2.7764,-2.7637,-2.7559,-2.7359,-2.7281,-2.7925,-2.7802,-2.7207,-2.6947,-2.6935,-2.7258,-2.7673,-2.7347,-2.7197,-2.7241,-2.7305,-2.7589,-2.7778,-2.7804,-2.7757,-2.8025,-2.8724,-2.9246,-2.8412,-2.7484,-2.7955,-2.8387,-2.9035,-2.732,-2.732,-2.732,-2.732,-2.732,-2.732,-2.732,-2.732,-2.732,-2.732,-2.732,-2.732,-2.732,-2.7225,-2.7044,-2.6805,-2.6554,-2.6255,-2.6014,-2.5956,-2.5986,-2.6055,-2.6163,-2.63,-2.6554,-2.6935,-2.7422,-2.7842,-2.8281,-2.8301,-2.8301,-2.8301,-2.8301,-2.8301,-2.8301,-2.8301,-2.8301,-2.8301,-2.8301,-2.8301,-2.8301,-2.8301,-2.8301,-2.8301,-2.8301,-2.8301,-2.8301,-2.8301,-2.8301,-2.8301,-2.8301,-2.8301,-2.8301,-2.8301,-2.8301,-2.8301,-2.8301,-2.8301,-2.8301,-2.8301,-2.8301,-2.8301,-2.8301,-2.8301,-2.8301,-2.8301,-2.8301,-2.8301,-2.8301,-2.8301,-2.8301,-2.8301,-2.8301,-2.8301,-2.8301,-2.8301,-2.8301,-2.8301,-2.8301,-2.8301,-2.8301,-2.8301,-2.8301,-2.8301,-2.8301,-2.8301,-2.8213,-2.8037,-2.7891,-2.7851,-2.7776,-2.7505,-2.7582,-2.7182,-2.6614,-2.6586,-2.6692,-2.6713,-2.7048,-2.6369,-2.6045,-2.6644,-2.6841,-2.6438,-2.6593,-2.7148,-2.7476,-2.7821,-2.8559,-2.9481,-2.8535,-2.7554,-2.7489,-2.7841,-2.7736,-2.732,-2.732,-2.732,-2.732,-2.732,-2.732,-2.732,-2.732,-2.732,-2.732,-2.732,-2.732,-2.7309,-2.7262,-2.7034,-2.6853,-2.6757,-2.6526,-2.6468,-2.6372,-2.6654,-2.6714,-2.6715,-2.6891,-2.7214,-2.7565,-2.7832,-2.8144,-2.8301,-2.8301,-2.8301,-2.8301,-2.8301,-2.8301,-2.8301,-2.8301,-2.8301,-2.8301,-2.8301,-2.8301,-2.8301,-2.8301,-2.8301,-2.8301,-2.8301,-2.8301,-2.8301,-2.8301,-2.8301,-2.8301,-2.8301,-2.8301,-2.8301,-2.8301,-2.8301,-2.8301,-2.8301,-2.8301,-2.8301,-2.8301,-2.8301,-2.8301,-2.8301,-2.8301,-2.8301,-2.8301,-2.8301,-2.8301,-2.8301,-2.8301,-2.8301,-2.8301,-2.8301,-2.8301,-2.8301,-2.8301,-2.8301,-2.8301,-2.8301,-2.8301,-2.8301,-2.8301,-2.8301,-2.8301,-2.8301,-2.8301,-2.8301,-2.8144,-2.8125,-2.8115,-2.8086,-2.7832,-2.7539,-2.7275,-2.7033,-2.6867,-2.6851,-2.675,-2.668,-2.6523,-2.6523,-2.6748,-2.6748,-2.6514,-2.6732,-2.7272,-2.7551,-2.7803,-2.8522,-2.9211,-2.8487,-2.7807,-2.7617,-2.7345,-2.7309]},{"header":{"parameterUnit":"m.s-1","parameterCategory":1,"la1":31.0,"la2":29.5877,"lo1":-88.7671,"lo2":-86.6584,"dy":0.0162,"dx":0.0185,"nx":115,"ny":88,"refTime":"2026-03-02T12:00:00:Z","depth":0,"parameterNumber":3,"parameterNumberName":"V-component_of_WINDS"},"data":[0.0,0.0,0.0,0.0,0.0,0.0,0.0,0.0,0.0,0.0,0.0,0.0,0.0,0.0,0.0,0.0,0.0,0.0,0.0,0.0,0.0,0.0,0.0,0.0,0.0,0.0,0.0,0.0,0.0,0.0,0.0,0.0,0.0,0.0,0.0,0.0,0.0,0.0,0.0,0.0,0.0,0.0,0.0,0.0,0.0,0.0,0.0,0.0,0.0,0.0,0.0,0.0,0.0,0.0,0.0,0.0,0.0,0.0,0.0,0.0,0.0,0.0,0.0,0.0,0.0,0.0,0.0,0.0,0.0,0.0,0.0,0.0,0.0,0.0,0.0,0.0,0.0,0.0,0.0,0.0,0.0,0.0,0.0,0.0,0.0,0.0,0.0,0.0,0.0,0.0,0.0,0.0,0.0,0.0,0.0,0.0,0.0,0.0,0.0,0.0,0.0,0.0,0.0,0.0,0.0,0.0,0.0,0.0,0.0,0.0,0.0,0.0,0.0,0.0,0.0,0.0,0.0,0.0,0.0,0.0,0.0,0.0,0.0,0.0,0.0,0.0,0.0,0.0,0.0,0.0,0.0,0.0,0.0,0.0,0.0,0.0,0.0,0.0,0.0,0.0,0.0,0.0,0.0,0.0,0.0,0.0,0.0,0.0,0.0,0.0,0.0,0.0,0.0,0.0,0.0,0.0,0.0,0.0,0.0,0.0,0.0,0.0,0.0,0.0,0.0,0.0,0.0,0.0,0.0,0.0,0.0,0.0,0.0,0.0,0.0,0.0,0.0,0.0,0.0,0.0,0.0,0.0,0.0,0.0,0.0,0.0,0.0,0.0,0.0,0.0,0.0,0.0,0.0,0.0,0.0,0.0,0.0,0.0,0.0,0.0,0.0,0.0,0.0,0.0,0.0,0.0,0.0,0.0,0.0,0.0,0.0,0.0,0.0,0.0,0.0,0.0,0.0,0.0,0.0,0.0,0.0,0.0,0.0,0.0,0.0,0.0,0.0,0.0,0.0,0.0,0.0,0.0,0.0,0.0,0.0,0.0,0.0,0.0,0.0,0.0,0.0,0.0,0.0,0.0,0.0,0.0,0.0,0.0,0.0,0.0,0.0,0.0,0.0,0.0,0.0,0.0,0.0,0.0,0.0,0.0,0.0,0.0,0.0,0.0,0.0,0.0,0.0,0.0,0.0,0.0,0.0,0.0,0.0,0.0,0.0,0.0,0.0,0.0,0.0,0.0,0.0,0.0,0.0,0.0,0.0,0.0,0.0,0.0,0.0,0.0,0.0,0.0,0.0,0.0,0.0,0.0,0.0,0.0,0.0,0.0,0.0,0.0,0.0,0.0,0.0,0.0,0.0,0.0,0.0,0.0,0.0,0.0,0.0,0.0,0.0,0.0,0.0,0.0,0.0,0.0,0.0,0.0,0.0,0.0,0.0,0.0,0.0,0.0,0.0,0.0,0.0,0.0,0.0,0.0,0.0,0.0,0.0,0.0,0.0,0.0,0.0,0.0,0.0,0.0,0.0,0.0,0.0,0.0,0.0,0.0,0.0,0.0,0.0,0.0,0.0,0.0,0.0,0.0,0.0,0.0,0.0,0.0,0.0,0.0,0.0,0.0,0.0,0.0,0.0,0.0,0.0,0.0,0.0,0.0,0.0,0.0,0.0,0.0,0.0,0.0,0.0,0.0,0.0,0.0,0.0,0.0,0.0,0.0,0.0,0.0,0.0,0.0,0.0,0.0,0.0,0.0,0.0,0.0,0.0,0.0,0.0,0.0,0.0,0.0,0.0,0.0,0.0,0.0,0.0,0.0,0.0,0.0,0.0,0.0,0.0,0.0,0.0,0.0,0.0,0.0,0.0,0.0,0.0,0.0,0.0,0.0,0.0,0.0,0.0,0.0,0.0,0.0,0.0,0.0,0.0,0.0,0.0,0.0,0.0,0.0,0.0,0.0,0.0,0.0,0.0,0.0,0.0,0.0,0.0,0.0,0.0,0.0,0.0,0.0,0.0,0.0,0.0,0.0,0.0,0.0,0.0,0.0,0.0,0.0,0.0,0.0,0.0,0.0,0.0,0.0,0.0,0.0,0.0,0.0,0.0,0.0,0.0,0.0,0.0,0.0,0.0,0.0,0.0,0.0,0.0,0.0,0.0,0.0,0.0,0.0,0.0,0.0,0.0,0.0,0.0,0.0,0.0,0.0,0.0,0.0,0.0,0.0,0.0,0.0,0.0,0.0,0.0,0.0,0.0,0.0,0.0,0.0,0.0,0.0,0.0,0.0,0.0,0.0,0.0,0.0,0.0,0.0,0.0,0.0,0.0,0.0,0.0,0.0,0.0,0.0,0.0,0.0,0.0,0.0,0.0,0.0,0.0,0.0,0.0,0.0,0.0,0.0,0.0,0.0,0.0,0.0,0.0,0.0,0.0,0.0,0.0,0.0,0.0,0.0,0.0,0.0,0.0,0.0,0.0,0.0,0.0,0.0,0.0,0.0,0.0,0.0,0.0,0.0,0.0,0.0,0.0,0.0,0.0,0.0,0.0,0.0,0.0,0.0,0.0,0.0,0.0,0.0,0.0,0.0,0.0,0.0,0.0,0.0,0.0,0.0,0.0,0.0,0.0,0.0,0.0,0.0,0.0,0.0,0.0,0.0,0.0,0.0,0.0,0.0,0.0,0.0,0.0,0.0,0.0,0.0,0.0,0.0,0.0,0.0,0.0,0.0,0.0,0.0,0.0,0.0,0.0,0.0,0.0,0.0,0.0,0.0,0.0,0.0,0.0,0.0,0.0,0.0,0.0,0.0,0.0,0.0,0.0,0.0,0.0,0.0,0.0,0.0,0.0,0.0,0.0,0.0,0.0,0.0,0.0,0.0,0.0,0.0,0.0,0.0,0.0,0.0,0.0,0.0,0.0,0.0,0.0,0.0,0.0,0.0,0.0,0.0,0.0,0.0,0.0,0.0,0.0,0.0,0.0,0.0,0.0,0.0,0.0,0.0,0.0,0.0,0.0,0.0,0.0,0.0,0.0,0.0,0.0,0.0,0.0,0.0,0.0,0.0,0.0,0.0,0.0,0.0,0.0,0.0,0.0,0.0,0.0,0.0,0.0,0.0,0.0,0.0,0.0,0.0,0.0,0.0,0.0,0.0,0.0,0.0,0.0,0.0,0.0,0.0,0.0,0.0,0.0,0.0,0.0,0.0,0.0,0.0,0.0,0.0,0.0,0.0,0.0,0.0,0.0,0.0,0.0,0.0,0.0,0.0,0.0,0.0,0.0,0.0,0.0,0.0,0.0,0.0,0.0,0.0,0.0,0.0,0.0,0.0,0.0,0.0,0.0,0.0,0.0,0.0,0.0,0.0,0.0,0.0,0.0,0.0,0.0,0.0,0.0,0.0,0.0,0.0,0.0,0.0,0.0,0.0,0.0,0.0,0.0,0.0,0.0,0.0,0.0,0.0,0.0,0.0,0.0,0.0,0.0,0.0,0.0,0.0,0.0,0.0,0.0,0.0,0.0,0.0,0.0,0.0,0.0,0.0,0.0,0.0,0.0,0.0,0.0,0.0,0.0,0.0,0.0,0.0,0.0,0.0,0.0,0.0,0.0,0.0,0.0,0.0,0.0,0.0,0.0,0.0,0.0,0.0,0.0,0.0,0.0,0.0,0.0,0.0,0.0,0.0,0.0,0.0,0.0,0.0,0.0,0.0,0.0,0.0,0.0,0.0,0.0,0.0,0.0,0.0,0.0,0.0,0.0,0.0,0.0,0.0,0.0,0.0,0.0,0.0,0.0,0.0,0.0,0.0,0.0,0.0,0.0,0.0,0.0,0.0,0.0,0.0,0.0,0.0,0.0,0.0,0.0,0.0,0.0,0.0,0.0,0.0,0.0,0.0,0.0,0.0,0.0,0.0,0.0,0.0,0.0,0.0,0.0,0.0,0.0,0.0,0.0,0.0,0.0,0.0,0.0,0.0,0.0,0.0,0.0,0.0,0.0,0.0,0.0,0.0,0.0,0.0,0.0,0.0,0.0,0.0,0.0,0.0,0.0,0.0,0.0,0.0,0.0,0.0,0.0,0.0,0.0,0.0,0.0,0.0,0.0,0.0,0.0,0.0,0.0,0.0,0.0,0.0,0.0,0.0,0.0,0.0,0.0,0.0,0.0,0.0,0.0,0.0,0.0,0.0,0.0,0.0,0.0,0.0,0.0,0.0,0.0,0.0,0.0,0.0,0.0,0.0,0.0,0.0,0.0,0.0,0.0,0.0,0.0,0.0,1.4199,0.0,0.0,0.0,0.0,0.0,0.0,0.0,0.0,0.0,0.0,0.0,0.0,0.0,0.0,0.0,0.0,0.0,0.0,0.0,0.0,0.0,0.0,0.0,0.0,0.0,0.0,0.0,0.0,0.0,0.0,0.0,0.0,0.0,0.0,0.0,0.0,0.0,0.0,0.0,0.0,0.0,0.0,0.0,0.0,0.0,0.0,0.0,0.0,0.0,0.0,0.0,0.0,0.0,0.0,0.0,0.0,0.0,0.0,0.0,0.0,0.0,0.0,0.0,0.0,0.0,0.0,0.0,0.0,0.0,0.0,0.0,0.0,0.0,0.0,0.0,0.0,0.0,0.0,0.0,0.0,0.0,0.0,0.0,0.0,0.0,0.0,0.0,0.0,0.0,0.0,0.0,0.0,0.0,0.0,0.0,0.0,0.0,0.0,0.0,0.0,0.0,0.0,0.0,0.0,0.0,0.0,0.0,0.0,0.0,0.0,1.425,1.4565,1.3918,1.3763,1.4218,0.0,0.0,0.0,0.0,0.0,0.0,0.0,0.0,0.0,0.0,0.0,0.0,0.0,0.0,0.0,0.0,0.0,0.0,0.0,0.0,0.0,0.0,0.0,0.0,0.0,0.0,0.0,0.0,0.0,0.0,0.0,0.0,0.0,0.0,0.0,0.0,0.0,0.0,0.0,0.0,0.0,0.0,0.0,0.0,0.0,0.0,0.0,0.0,0.0,0.0,0.0,0.0,0.0,0.0,0.0,0.0,0.0,0.0,0.0,0.0,0.0,0.0,0.0,0.0,0.0,0.0,0.0,0.0,0.0,0.0,0.0,0.0,0.0,0.0,0.0,0.0,0.0,0.0,0.0,0.0,0.0,0.0,0.0,0.0,0.0,0.0,0.0,0.0,0.0,0.0,0.0,0.0,0.0,0.0,0.0,0.0,0.0,0.0,0.0,0.0,0.0,0.0,0.0,0.0,0.0,0.0,0.0,0.0,0.0,0.0,0.0,0.0,1.5057,1.4721,1.4402,0.0,0.0,0.0,0.0,0.0,0.0,0.0,0.0,0.0,0.0,0.0,0.0,0.0,0.0,0.0,0.0,0.0,0.0,0.0,0.0,0.0,0.0,0.0,0.0,0.0,0.0,0.0,0.0,0.0,0.0,0.0,0.0,0.0,0.0,0.0,0.0,0.0,0.0,0.0,0.0,0.0,0.0,0.0,0.0,0.0,0.0,0.0,0.0,0.0,0.0,0.0,0.0,0.0,0.0,0.0,0.0,0.0,0.0,0.0,0.0,0.0,0.0,0.0,0.0,0.0,0.0,0.0,0.0,0.0,0.0,0.0,0.0,0.0,0.0,0.0,0.0,0.0,0.0,0.0,0.0,0.0,0.0,0.0,0.0,0.0,0.0,0.0,0.0,0.0,0.0,0.0,0.0,0.0,0.0,0.0,0.0,0.0,0.0,0.0,0.0,0.0,0.0,0.0,0.0,0.0,0.0,0.0,0.0,0.0,0.0,1.6339,1.7722,1.6426,0.0,1.5682,0.0,0.0,0.0,0.0,0.0,0.0,0.0,0.0,0.0,0.0,0.0,0.0,0.0,0.0,0.0,0.0,0.0,0.0,0.0,0.0,0.0,0.0,0.0,0.0,0.0,0.0,0.0,0.0,0.0,0.0,0.0,0.0,0.0,0.0,0.0,0.0,0.0,0.0,0.0,0.0,0.0,0.0,0.0,0.0,0.0,0.0,0.0,0.0,0.0,0.0,0.0,0.0,0.0,0.0,0.0,0.0,0.0,0.0,0.0,0.0,0.0,0.0,0.0,0.0,0.0,0.0,0.0,0.0,0.0,0.0,0.0,0.0,0.0,0.0,0.0,0.0,0.0,0.0,0.0,0.0,0.0,0.0,0.0,0.0,0.0,0.0,0.0,0.0,0.0,0.0,0.0,0.0,0.0,0.0,0.0,0.0,0.0,0.0,0.0,0.0,0.0,0.0,0.0,0.0,0.0,0.0,0.0,0.0,0.0,0.0,1.745,1.8081,1.7015,1.6333,0.0,0.0,0.0,0.0,0.0,0.0,0.0,0.0,0.0,0.0,0.0,0.0,0.0,0.0,0.0,0.0,0.0,0.0,0.0,0.0,0.0,0.0,0.0,0.0,0.0,0.0,0.0,0.0,0.0,0.0,0.0,0.0,0.0,0.0,0.0,0.0,0.0,0.0,0.0,0.0,0.0,0.0,0.0,0.0,0.0,0.0,0.0,0.0,0.0,0.0,0.0,0.0,0.0,0.0,0.0,0.0,0.0,0.0,0.0,0.0,0.0,0.0,0.0,0.0,0.0,0.0,0.0,0.0,0.0,0.0,0.0,0.0,0.0,0.0,0.0,0.0,0.0,0.0,0.0,0.0,0.0,0.0,0.0,0.0,0.0,0.0,0.0,0.0,0.0,0.0,0.0,0.0,0.0,0.0,0.0,0.0,0.0,0.0,0.0,0.0,0.0,0.0,0.0,0.0,0.0,0.0,0.0,0.0,0.0,0.0,1.7898,1.8136,1.821,1.7605,1.6954,1.6306,0.0,0.0,0.0,0.0,0.0,0.0,0.0,0.0,0.0,0.0,0.0,0.0,0.0,0.0,0.0,0.0,0.0,0.0,0.0,0.0,0.0,0.0,0.0,0.0,0.0,0.0,0.0,0.0,0.0,0.0,0.0,0.0,0.0,0.0,0.0,0.0,0.0,0.0,0.0,0.0,0.0,0.0,0.0,0.0,0.0,0.0,0.0,0.0,0.0,0.0,0.0,0.0,0.0,0.0,0.0,0.0,0.0,0.0,0.0,0.0,0.0,0.0,0.0,0.0,0.0,0.0,0.0,0.0,0.0,0.0,0.0,0.0,0.0,0.0,0.0,0.0,0.0,0.0,0.0,0.0,0.0,0.0,0.0,0.0,0.0,0.0,0.0,0.0,0.0,0.0,0.0,0.0,0.0,0.0,0.0,0.0,0.0,0.0,0.0,0.0,0.0,0.0,0.0,0.0,0.0,0.0,0.0,0.0,1.9045,1.8458,1.8264,1.865,1.8275,1.7513,0.0,0.0,0.0,0.0,0.0,0.0,0.0,0.0,0.0,0.0,0.0,0.0,0.0,0.0,0.0,0.0,0.0,0.0,0.0,0.0,0.0,0.0,0.0,0.0,0.0,0.0,0.0,0.0,0.0,0.0,0.0,0.0,0.0,0.0,0.0,0.0,0.0,0.0,0.0,0.0,0.0,0.0,0.0,0.0,0.0,0.0,0.0,0.0,0.0,0.0,0.0,0.0,0.0,0.0,0.0,0.0,0.0,0.0,0.0,0.0,0.0,0.0,0.0,0.0,0.0,0.0,0.0,0.0,0.0,0.0,0.0,0.0,0.0,0.0,0.0,0.0,0.0,0.0,0.0,0.0,0.0,0.0,0.0,0.0,0.0,0.0,0.0,0.0,0.0,0.0,0.0,0.0,0.0,0.0,0.0,0.0,0.0,0.0,0.0,0.0,0.0,0.0,0.0,0.0,0.0,0.0,0.0,0.0,0.0,1.6972,1.7211,1.7789,1.8623,1.7587,1.6727,0.0,0.0,0.0,0.0,0.0,0.0,0.0,0.0,0.0,0.0,0.0,0.0,0.0,0.0,0.0,0.0,0.0,0.0,0.0,0.0,0.0,0.0,0.0,0.0,0.0,0.0,0.0,0.0,0.0,0.0,0.0,0.0,0.0,0.0,0.0,0.0,0.0,0.0,0.0,0.0,0.0,0.0,0.0,0.0,0.0,0.0,0.0,0.0,0.0,0.0,0.0,0.0,0.0,0.0,0.0,0.0,0.0,0.0,0.0,0.0,0.0,0.0,0.0,0.0,0.0,0.0,0.0,0.0,0.0,0.0,0.0,0.0,0.0,0.0,0.0,0.0,0.0,0.0,0.0,0.0,0.0,0.0,0.0,0.0,0.0,0.0,0.0,0.0,0.0,0.0,0.0,0.0,0.0,0.0,0.0,0.0,0.0,0.0,0.0,0.0,0.0,0.0,0.0,0.0,0.0,0.0,0.0,0.0,0.0,1.6486,0.0,1.7761,1.8238,1.7111,1.616,0.0,0.0,0.0,0.0,0.0,0.0,0.0,0.0,0.0,0.0,0.0,0.0,0.0,0.0,0.0,0.0,0.0,0.0,0.0,0.0,0.0,0.0,0.0,0.0,0.0,0.0,0.0,0.0,0.0,0.0,0.0,0.0,0.0,0.0,0.0,0.0,0.0,0.0,0.0,0.0,0.0,0.0,0.0,0.0,0.0,0.0,0.0,0.0,0.0,0.0,0.0,0.0,0.0,0.0,0.0,0.0,0.0,0.0,0.0,0.0,0.0,0.0,0.0,0.0,0.0,0.0,0.0,0.0,0.0,0.0,0.0,0.0,0.0,0.0,0.0,0.0,0.0,0.0,0.0,0.0,0.0,0.0,0.0,0.0,0.0,0.0,0.0,0.0,0.0,0.0,0.0,0.0,0.0,0.0,0.0,0.0,0.0,0.0,0.0,0.0,0.0,0.0,0.0,0.0,0.0,0.0,0.0,0.0,1.6493,1.7944,1.8412,1.8275,1.7541,1.7101,1.5997,0.0,0.0,0.0,0.0,0.0,0.0,0.0,0.0,0.0,0.0,0.0,0.0,0.0,0.0,0.0,0.0,0.0,0.0,0.0,0.0,0.0,0.0,0.0,0.0,0.0,0.0,0.0,0.0,0.0,0.0,0.0,0.0,0.0,0.0,0.0,0.0,0.0,0.0,0.0,0.0,0.0,0.0,0.0,0.0,0.0,0.0,0.0,0.0,0.0,0.0,0.0,0.0,0.0,0.0,0.0,0.0,0.0,0.0,0.0,0.0,0.0,0.0,0.0,0.0,0.0,0.0,0.0,0.0,0.0,0.0,0.0,0.0,0.0,0.0,0.0,0.0,0.0,0.0,0.0,0.0,0.0,0.0,0.0,0.0,0.0,0.0,0.0,0.0,0.0,0.0,0.0,0.0,0.0,0.0,0.0,0.0,0.0,0.0,0.0,0.0,0.0,0.0,0.0,0.0,0.0,0.0,0.0,0.0,0.0,1.6484,1.7381,1.8096,1.8518,1.7123,1.6276,0.0,0.0,0.0,0.0,0.0,0.0,0.0,0.0,0.0,0.0,0.0,0.0,0.0,0.0,0.0,0.0,0.0,0.0,0.0,0.0,0.0,0.0,0.0,0.0,0.0,0.0,0.0,0.0,0.0,0.0,0.0,0.0,0.0,0.0,0.0,0.0,0.0,0.0,0.0,0.0,0.0,0.0,0.0,0.0,0.0,0.0,0.0,0.0,0.0,0.0,0.0,0.0,0.0,0.0,0.0,0.0,0.0,0.0,0.0,0.0,0.0,0.0,0.0,0.0,0.0,0.0,0.0,0.0,0.0,0.0,0.0,0.0,0.0,0.0,0.0,0.0,0.0,0.0,0.0,0.0,0.0,0.0,0.0,0.0,0.0,0.0,0.0,0.0,0.0,0.0,0.0,0.0,0.0,0.0,0.0,0.0,0.0,0.0,0.0,0.0,0.0,0.0,0.0,0.0,0.0,0.0,0.0,0.0,0.0,1.8374,1.8981,1.9555,1.9975,1.8195,1.7075,1.6652,0.0,0.0,0.0,0.0,0.0,0.0,0.0,0.0,0.0,0.0,0.0,0.0,0.0,0.0,0.0,0.0,0.0,0.0,0.0,0.0,0.0,0.0,0.0,0.0,0.0,0.0,0.0,0.0,0.0,0.0,0.0,0.0,0.0,0.0,0.0,0.0,0.0,0.0,0.0,0.0,0.0,0.0,0.0,0.0,0.0,0.0,0.0,0.0,0.0,0.0,0.0,0.0,0.0,0.0,0.0,0.0,0.0,0.0,0.0,0.0,0.0,0.0,0.0,0.0,0.0,0.0,0.0,0.0,0.0,0.0,0.0,0.0,0.0,0.0,0.0,0.0,0.0,0.0,0.0,0.0,0.0,0.0,0.0,0.0,0.0,0.0,0.0,0.0,0.0,0.0,0.0,0.0,0.0,0.0,0.0,0.0,0.0,0.0,0.0,0.0,0.0,0.0,0.0,0.0,0.0,0.0,0.0,0.0,2.29,2.2789,2.2442,2.1768,2.0336,1.8404,0.0,0.0,0.0,0.0,0.0,0.0,0.0,0.0,0.0,0.0,0.0,0.0,0.0,0.0,0.0,0.0,0.0,0.0,0.0,0.0,0.0,0.0,0.0,0.0,0.0,0.0,0.0,0.0,0.0,0.0,0.0,0.0,0.0,0.0,0.0,0.0,0.0,0.0,0.0,0.0,0.0,0.0,0.0,0.0,0.0,0.0,0.0,0.0,0.0,0.0,0.0,0.0,0.0,0.0,0.0,0.0,0.0,0.0,0.0,0.0,0.0,0.0,0.0,0.0,0.0,0.0,0.0,0.0,0.0,0.0,0.0,0.0,0.0,0.0,0.0,0.0,0.0,0.0,0.0,0.0,0.0,0.0,0.0,0.0,0.0,0.0,0.0,0.0,0.0,0.0,0.0,0.0,0.0,0.0,0.0,0.0,0.0,0.0,0.0,0.0,0.0,0.0,0.0,0.0,0.0,0.0,0.0,0.0,0.0,2.5556,2.6524,2.6206,2.4628,2.255,2.0934,0.0,0.0,0.0,0.0,0.0,0.0,0.0,0.0,0.0,0.0,0.0,0.0,0.0,0.0,0.0,0.0,0.0,0.0,0.0,0.0,0.0,0.0,0.0,0.0,0.0,0.0,0.0,0.0,0.0,0.0,0.0,0.0,0.0,0.0,0.0,0.0,0.0,0.0,0.0,0.0,0.0,0.0,0.0,0.0,0.0,0.0,0.0,0.0,0.0,0.0,0.0,0.0,0.0,0.0,0.0,0.0,0.0,0.0,0.0,0.0,0.0,0.0,0.0,0.0,0.0,0.0,0.0,0.0,0.0,0.0,0.0,0.0,0.0,0.0,0.0,0.0,0.0,0.0,0.0,0.0,0.0,0.0,0.0,0.0,0.0,0.0,0.0,0.0,0.0,0.0,0.0,0.0,0.0,0.0,0.0,0.0,0.0,0.0,0.0,0.0,0.0,0.0,0.0,0.0,0.0,0.0,0.0,0.0,2.5018,2.7403,2.9073,2.9233,2.7926,2.5443,2.3279,0.0,0.0,0.0,0.0,0.0,0.0,0.0,0.0,0.0,0.0,0.0,0.0,0.0,0.0,0.0,0.0,0.0,0.0,0.0,0.0,0.0,0.0,0.0,0.0,0.0,0.0,0.0,0.0,0.0,0.0,0.0,0.0,0.0,0.0,0.0,0.0,0.0,0.0,0.0,0.0,0.0,0.0,0.0,0.0,0.0,0.0,0.0,0.0,0.0,0.0,0.0,0.0,0.0,0.0,0.0,0.0,0.0,0.0,0.0,0.0,0.0,0.0,0.0,0.0,0.0,0.0,0.0,0.0,0.0,0.0,0.0,0.0,0.0,0.0,0.0,0.0,0.0,0.0,0.0,0.0,0.0,0.0,0.0,0.0,0.0,0.0,0.0,0.0,0.0,0.0,0.0,0.0,0.0,0.0,0.0,0.0,0.0,0.0,0.0,0.0,0.0,0.0,0.0,0.0,0.0,0.0,0.0,0.0,2.6406,2.8531,3.0603,3.1476,3.0939,2.8336,2.5405,0.0,0.0,0.0,0.0,0.0,0.0,0.0,0.0,0.0,0.0,0.0,0.0,0.0,0.0,0.0,0.0,0.0,0.0,0.0,0.0,0.0,0.0,0.0,0.0,0.0,0.0,0.0,0.0,0.0,0.0,0.0,0.0,0.0,0.0,0.0,0.0,0.0,0.0,0.0,0.0,0.0,0.0,0.0,0.0,0.0,0.0,0.0,0.0,0.0,0.0,0.0,0.0,0.0,0.0,0.0,0.0,0.0,0.0,0.0,0.0,0.0,0.0,0.0,0.0,0.0,0.0,0.0,0.0,0.0,0.0,0.0,0.0,0.0,0.0,0.0,0.0,0.0,0.0,0.0,0.0,0.0,0.0,0.0,0.0,0.0,0.0,0.0,0.0,0.0,0.0,0.0,0.0,0.0,0.0,0.0,0.0,0.0,0.0,0.0,0.0,0.0,0.0,0.0,0.0,0.0,0.0,0.0,0.0,2.7358,2.9112,3.0826,3.1657,3.1536,2.8916,2.6573,0.0,0.0,0.0,0.0,0.0,0.0,0.0,0.0,0.0,0.0,0.0,0.0,0.0,0.0,0.0,0.0,0.0,0.0,0.0,0.0,0.0,0.0,0.0,0.0,0.0,0.0,0.0,0.0,0.0,0.0,0.0,0.0,0.0,0.0,0.0,0.0,0.0,0.0,0.0,0.0,0.0,0.0,0.0,0.0,0.0,0.0,0.0,0.0,1.8339,0.0,0.0,0.0,0.0,0.0,0.0,0.0,0.0,0.0,0.0,0.0,0.0,0.0,0.0,0.0,0.0,0.0,0.0,0.0,0.0,0.0,0.0,0.0,0.0,0.0,0.0,0.0,0.0,0.0,0.0,0.0,0.0,0.0,0.0,0.0,0.0,0.0,0.0,0.0,0.0,0.0,0.0,0.0,0.0,0.0,0.0,0.0,0.0,0.0,0.0,0.0,0.0,0.0,0.0,0.0,0.0,0.0,0.0,0.0,2.7945,2.928,3.0843,3.1585,3.124,2.946,2.7584,0.0,0.0,0.0,0.0,0.0,0.0,0.0,0.0,0.0,0.0,0.0,0.0,0.0,0.0,0.0,0.0,0.0,0.0,0.0,0.0,0.0,0.0,0.0,0.0,0.0,0.0,0.0,0.0,0.0,0.0,0.0,0.0,0.0,0.0,0.0,0.0,0.0,0.0,0.0,0.0,0.0,0.0,0.0,0.0,0.0,0.0,0.0,0.0,0.0,0.0,0.0,0.0,0.0,0.0,0.0,0.0,0.0,0.0,0.0,0.0,0.0,0.0,0.0,0.0,0.0,0.0,0.0,0.0,0.0,0.0,0.0,0.0,0.0,0.0,0.0,0.0,0.0,0.0,0.0,0.0,0.0,0.0,0.0,0.0,0.0,0.0,0.0,0.0,0.0,0.0,0.0,0.0,0.0,0.0,0.0,0.0,0.0,0.0,0.0,0.0,0.0,0.0,0.0,0.0,0.0,0.0,0.0,2.6154,2.815,2.9292,3.0802,3.1332,3.0747,2.9725,2.821,2.6178,0.0,0.0,0.0,0.0,0.0,0.0,0.0,0.0,0.0,0.0,0.0,0.0,0.0,0.0,0.0,0.0,0.0,0.0,0.0,0.0,0.0,0.0,0.0,0.0,0.0,0.0,0.0,0.0,0.0,0.0,0.0,0.0,0.0,0.0,0.0,0.0,0.0,0.0,1.7371,1.8598,0.0,0.0,0.0,0.0,0.0,0.0,0.0,0.0,2.0306,0.0,0.0,0.0,0.0,0.0,0.0,0.0,0.0,0.0,0.0,0.0,0.0,0.0,0.0,0.0,0.0,0.0,0.0,0.0,0.0,0.0,0.0,0.0,0.0,0.0,0.0,0.0,0.0,0.0,0.0,0.0,0.0,0.0,0.0,0.0,0.0,0.0,0.0,0.0,0.0,0.0,0.0,0.0,0.0,0.0,0.0,0.0,0.0,0.0,0.0,0.0,0.0,0.0,0.0,0.0,0.0,2.4891,2.6297,2.775,2.9268,3.0465,3.079,3.0218,2.9196,2.7849,2.6142,0.0,0.0,0.0,0.0,0.0,0.0,0.0,0.0,0.0,0.0,0.0,0.0,0.0,0.0,0.0,0.0,0.0,0.0,0.0,0.0,0.0,0.0,0.0,0.0,0.0,0.0,0.0,0.0,0.0,0.0,0.0,0.0,0.0,0.0,0.0,0.0,0.0,0.0,0.0,2.1564,2.2031,0.0,0.0,0.0,0.0,0.0,0.0,0.0,0.0,2.0427,0.0,0.0,0.0,0.0,0.0,0.0,0.0,0.0,0.0,0.0,0.0,0.0,0.0,0.0,0.0,0.0,0.0,0.0,0.0,0.0,0.0,0.0,0.0,0.0,0.0,0.0,0.0,0.0,0.0,0.0,0.0,0.0,0.0,0.0,0.0,0.0,0.0,0.0,0.0,0.0,0.0,0.0,0.0,0.0,0.0,0.0,0.0,0.0,0.0,0.0,0.0,0.0,0.0,0.0,0.0,2.4675,2.6627,2.8281,2.9582,3.0828,3.117,3.0624,2.954,2.8047,0.0,0.0,0.0,0.0,0.0,0.0,0.0,0.0,0.0,0.0,0.0,0.0,0.0,0.0,0.0,0.0,0.0,0.0,0.0,0.0,0.0,0.0,0.0,0.0,0.0,0.0,0.0,0.0,0.0,0.0,0.0,0.0,0.0,0.0,0.0,0.0,0.0,0.0,0.0,0.0,2.2493,2.2874,2.3301,0.0,0.0,0.0,0.0,0.0,0.0,2.1235,2.0933,0.0,0.0,0.0,0.0,0.0,0.0,0.0,0.0,0.0,0.0,0.0,0.0,0.0,0.0,0.0,0.0,0.0,0.0,0.0,0.0,0.0,0.0,0.0,0.0,0.0,0.0,0.0,0.0,0.0,0.0,0.0,0.0,0.0,0.0,0.0,0.0,0.0,0.0,0.0,0.0,0.0,0.0,0.0,0.0,0.0,0.0,0.0,0.0,0.0,0.0,0.0,0.0,0.0,0.0,0.0,2.4406,2.7055,2.8999,3.0213,3.1363,3.1705,3.119,2.9938,2.8297,0.0,0.0,0.0,0.0,0.0,0.0,0.0,0.0,0.0,0.0,0.0,0.0,0.0,0.0,0.0,0.0,0.0,0.0,0.0,0.0,0.0,0.0,0.0,0.0,0.0,0.0,0.0,0.0,0.0,0.0,0.0,0.0,0.0,0.0,0.0,0.0,0.0,0.0,0.0,0.0,0.0,2.391,2.4501,2.3854,0.0,0.0,0.0,0.0,2.2698,2.2464,0.0,0.0,0.0,0.0,0.0,0.0,0.0,0.0,0.0,0.0,0.0,0.0,0.0,0.0,0.0,0.0,0.0,0.0,0.0,0.0,0.0,0.0,0.0,0.0,0.0,0.0,0.0,0.0,0.0,0.0,0.0,0.0,0.0,0.0,0.0,0.0,0.0,0.0,0.0,0.0,0.0,0.0,0.0,0.0,0.0,0.0,0.0,0.0,0.0,0.0,0.0,0.0,0.0,0.0,0.0,0.0,2.5223,2.7603,2.9641,3.123,3.1889,3.194,3.1458,2.9759,2.8272,0.0,0.0,0.0,0.0,0.0,0.0,0.0,0.0,0.0,0.0,0.0,0.0,0.0,0.0,0.0,0.0,0.0,0.0,0.0,0.0,0.0,0.0,0.0,0.0,0.0,0.0,0.0,0.0,0.0,0.0,0.0,0.0,0.0,0.0,0.0,0.0,0.0,0.0,0.0,0.0,0.0,2.6655,2.5675,2.5499,2.5541,0.0,0.0,2.4839,2.5962,2.6042,0.0,0.0,0.0,0.0,0.0,0.0,0.0,0.0,0.0,0.0,0.0,0.0,0.0,0.0,0.0,0.0,0.0,0.0,0.0,0.0,0.0,0.0,0.0,0.0,0.0,0.0,0.0,0.0,0.0,0.0,0.0,0.0,0.0,0.0,0.0,0.0,0.0,0.0,0.0,0.0,0.0,0.0,0.0,0.0,0.0,0.0,0.0,0.0,0.0,0.0,0.0,0.0,0.0,0.0,0.0,2.3864,2.603,2.8457,3.0387,3.1788,3.2436,3.2503,3.1962,3.0568,2.8691,0.0,0.0,0.0,0.0,0.0,0.0,0.0,0.0,0.0,0.0,0.0,0.0,0.0,0.0,0.0,0.0,0.0,0.0,0.0,0.0,0.0,0.0,0.0,0.0,0.0,0.0,0.0,0.0,0.0,0.0,0.0,0.0,0.0,0.0,0.0,0.0,0.0,0.0,0.0,0.0,0.0,0.0,2.7164,2.7013,0.0,0.0,0.0,2.6317,2.7309,0.0,0.0,0.0,0.0,0.0,0.0,0.0,0.0,0.0,0.0,0.0,0.0,0.0,0.0,0.0,0.0,0.0,0.0,0.0,0.0,0.0,0.0,0.0,0.0,0.0,0.0,0.0,0.0,0.0,0.0,0.0,0.0,0.0,0.0,0.0,0.0,0.0,0.0,0.0,0.0,0.0,0.0,0.0,0.0,0.0,0.0,0.0,0.0,0.0,0.0,0.0,0.0,0.0,0.0,0.0,0.0,0.0,2.6849,2.9494,3.1447,3.2642,3.3227,3.3237,3.2585,3.1464,0.0,0.0,0.0,0.0,0.0,0.0,0.0,0.0,0.0,0.0,0.0,0.0,0.0,0.0,0.0,0.0,0.0,0.0,0.0,0.0,0.0,0.0,0.0,0.0,0.0,0.0,0.0,1.672,0.0,0.0,0.0,0.0,0.0,0.0,0.0,0.0,0.0,0.0,0.0,0.0,0.0,0.0,2.7189,2.8538,2.8531,2.8747,0.0,0.0,2.8021,2.8744,2.854,2.7569,0.0,0.0,0.0,0.0,0.0,0.0,0.0,0.0,0.0,0.0,0.0,0.0,0.0,0.0,0.0,0.0,0.0,0.0,0.0,0.0,0.0,0.0,0.0,0.0,0.0,0.0,0.0,0.0,0.0,0.0,0.0,0.0,0.0,0.0,0.0,0.0,0.0,0.0,0.0,0.0,0.0,0.0,0.0,0.0,0.0,0.0,0.0,0.0,0.0,0.0,0.0,0.0,0.0,0.0,2.5381,2.7822,3.0821,3.2959,3.4187,3.4312,3.4042,3.3438,3.2133,2.9943,0.0,0.0,0.0,0.0,0.0,0.0,0.0,0.0,0.0,0.0,0.0,0.0,0.0,0.0,0.0,0.0,0.0,0.0,0.0,0.0,0.0,0.0,0.0,0.0,0.0,0.0,0.0,0.0,0.0,0.0,0.0,0.0,0.0,0.0,0.0,0.0,0.0,0.0,0.0,0.0,0.0,2.8785,2.9625,3.0098,3.1065,0.0,3.1571,3.057,3.1164,3.162,3.0582,2.6595,0.0,0.0,0.0,0.0,0.0,0.0,0.0,0.0,0.0,0.0,0.0,0.0,0.0,0.0,0.0,0.0,0.0,0.0,0.0,0.0,0.0,0.0,0.0,0.0,0.0,0.0,0.0,0.0,0.0,0.0,0.0,0.0,0.0,0.0,0.0,0.0,0.0,0.0,0.0,0.0,0.0,0.0,0.0,0.0,0.0,0.0,0.0,0.0,0.0,0.0,0.0,0.0,0.0,2.5638,2.7766,3.0895,3.2948,3.3823,3.3833,3.3514,3.2904,3.1627,2.9464,0.0,0.0,0.0,0.0,0.0,0.0,0.0,0.0,0.0,0.0,0.0,0.0,0.0,0.0,0.0,0.0,0.0,0.0,0.0,0.0,0.0,0.0,0.0,0.0,0.0,0.0,0.0,0.0,1.9937,1.9889,1.9791,0.0,0.0,0.0,0.0,0.0,0.0,0.0,0.0,0.0,0.0,2.9581,3.0948,3.1661,0.0,0.0,3.2724,3.184,3.2867,3.1772,3.0025,2.7628,2.5767,0.0,0.0,0.0,0.0,0.0,0.0,0.0,0.0,0.0,0.0,0.0,0.0,0.0,0.0,0.0,0.0,0.0,0.0,0.0,0.0,0.0,0.0,0.0,0.0,0.0,0.0,0.0,0.0,0.0,0.0,0.0,0.0,0.0,0.0,0.0,0.0,0.0,0.0,0.0,0.0,0.0,0.0,0.0,0.0,0.0,0.0,0.0,0.0,0.0,0.0,0.0,0.0,2.5857,2.7777,3.0788,3.2669,3.3328,3.3343,3.3036,3.2349,3.149,2.9507,0.0,0.0,0.0,0.0,0.0,0.0,0.0,0.0,0.0,0.0,0.0,0.0,0.0,0.0,0.0,0.0,0.0,0.0,0.0,0.0,0.0,0.0,0.0,0.0,0.0,0.0,0.0,0.0,2.1222,2.0702,2.0396,0.0,0.0,0.0,0.0,0.0,0.0,0.0,0.0,0.0,0.0,3.0218,3.202,3.2497,3.3017,3.4159,3.2844,3.2034,3.2956,3.1455,2.9678,2.802,0.0,0.0,0.0,0.0,0.0,0.0,0.0,0.0,0.0,0.0,0.0,0.0,0.0,0.0,0.0,0.0,0.0,0.0,0.0,0.0,0.0,0.0,0.0,0.0,0.0,0.0,0.0,2.2902,0.0,0.0,2.2888,0.0,0.0,0.0,0.0,0.0,0.0,0.0,0.0,0.0,0.0,0.0,0.0,0.0,0.0,0.0,0.0,0.0,0.0,0.0,0.0,0.0,0.0,2.6004,2.7966,3.0617,3.2308,3.2972,3.2987,3.2678,3.2044,3.1955,3.0439,2.7225,0.0,0.0,0.0,0.0,0.0,0.0,0.0,0.0,0.0,0.0,0.0,0.0,0.0,0.0,0.0,0.0,0.0,0.0,0.0,0.0,0.0,0.0,0.0,0.0,0.0,0.0,2.135,2.0818,1.9929,0.0,0.0,0.0,0.0,0.0,0.0,0.0,0.0,0.0,0.0,2.8817,3.0778,3.2663,3.2457,3.2369,3.2989,3.1942,3.1073,3.1176,3.1014,3.0144,0.0,0.0,0.0,0.0,0.0,0.0,0.0,0.0,0.0,0.0,0.0,0.0,0.0,0.0,0.0,0.0,0.0,0.0,0.0,0.0,0.0,0.0,0.0,0.0,0.0,0.0,0.0,2.511,2.5066,0.0,0.0,0.0,0.0,0.0,0.0,0.0,0.0,0.0,0.0,0.0,2.6662,2.7087,0.0,0.0,0.0,0.0,0.0,0.0,0.0,0.0,0.0,0.0,0.0,0.0,2.5472,2.7468,3.0027,3.1662,3.231,3.2339,3.2236,3.2,3.1161,2.9587,2.7133,0.0,0.0,0.0,0.0,0.0,0.0,0.0,0.0,0.0,0.0,0.0,0.0,0.0,0.0,0.0,0.0,0.0,0.0,0.0,0.0,0.0,0.0,0.0,0.0,0.0,2.0637,0.0,0.0,0.0,0.0,0.0,0.0,0.0,0.0,0.0,0.0,0.0,2.5566,2.7728,2.9746,3.1425,3.2526,3.2853,3.3092,0.0,0.0,0.0,0.0,0.0,0.0,0.0,0.0,0.0,0.0,0.0,0.0,0.0,0.0,2.8569,2.4599,2.3381,2.2928,2.2842,0.0,0.0,0.0,0.0,0.0,0.0,0.0,0.0,0.0,0.0,0.0,0.0,0.0,0.0,2.727,0.0,2.684,0.0,0.0,0.0,0.0,0.0,0.0,0.0,0.0,2.8784,2.9294,3.0086,3.0466,3.0093,0.0,2.9108,2.7389,0.0,0.0,0.0,0.0,0.0,0.0,0.0,0.0,2.5514,2.7273,2.9607,3.116,3.1812,3.205,3.2153,3.2138,3.1272,2.9962,2.8168,2.6361,2.4797,0.0,0.0,0.0,0.0,0.0,0.0,0.0,0.0,0.0,0.0,0.0,0.0,0.0,0.0,0.0,0.0,0.0,0.0,0.0,0.0,0.0,0.0,0.0,2.1739,0.0,0.0,0.0,0.0,0.0,0.0,0.0,0.0,0.0,2.325,2.5146,2.7205,2.8916,3.0496,3.175,3.2422,0.0,0.0,0.0,0.0,0.0,0.0,0.0,2.9709,2.9486,2.9047,2.8684,2.8628,3.0078,3.1071,3.0598,0.0,0.0,2.7474,2.6285,2.5783,2.545,2.5321,2.5437,2.6008,2.5925,2.5952,0.0,0.0,0.0,0.0,0.0,0.0,0.0,0.0,2.9163,2.9549,0.0,2.9336,0.0,0.0,0.0,0.0,0.0,2.881,0.0,0.0,3.2679,3.3387,3.3449,3.3449,3.3105,3.2482,3.3022,3.1976,2.9328,2.6072,0.0,0.0,0.0,0.0,0.0,0.0,2.6221,2.7548,2.9562,3.0893,3.1567,3.212,3.2425,3.2437,3.229,3.1548,3.0291,2.8788,2.7427,2.6118,2.396,0.0,0.0,0.0,0.0,0.0,0.0,0.0,0.0,0.0,0.0,0.0,0.0,0.0,0.0,0.0,0.0,0.0,0.0,0.0,0.0,2.3942,0.0,0.0,0.0,0.0,0.0,0.0,0.0,0.0,0.0,0.0,2.5048,2.7055,2.9086,3.0372,0.0,0.0,0.0,0.0,3.1511,3.1525,3.0957,3.0567,3.0582,3.0522,3.0298,2.9759,0.0,0.0,2.9756,3.0647,3.1198,2.9831,3.0811,3.1662,3.1855,3.0381,2.9204,2.854,2.757,2.7413,2.8928,2.8876,2.8989,3.4413,0.0,0.0,0.0,0.0,3.2173,3.3135,3.4275,3.3794,3.344,3.3055,3.1867,0.0,0.0,0.0,0.0,0.0,0.0,3.2012,3.4248,3.418,3.4585,3.5525,3.5421,3.5297,3.5104,3.5179,3.4374,3.2789,3.1276,2.8304,2.4015,0.0,0.0,0.0,0.0,2.8084,2.9401,3.0937,3.2017,3.2703,3.2879,3.296,3.2975,3.2467,3.1944,3.1405,3.0029,2.892,2.8084,2.6441,0.0,0.0,0.0,0.0,0.0,0.0,0.0,0.0,0.0,0.0,0.0,0.0,0.0,0.0,0.0,0.0,0.0,0.0,0.0,2.2931,2.3161,2.3318,0.0,0.0,0.0,0.0,0.0,0.0,0.0,0.0,0.0,2.887,2.9158,2.9937,0.0,0.0,3.1555,3.1765,3.1615,3.1496,3.1496,3.1346,0.0,3.1227,3.0821,3.0612,3.0883,3.1645,3.2079,3.1676,3.2348,3.2796,3.2363,3.2647,3.2826,3.2378,3.1589,3.0821,3.0527,3.0544,3.0704,3.1144,3.1417,3.1778,3.991,3.789,3.5369,3.4553,3.5027,3.546,3.6405,3.7579,3.7237,3.7016,3.6761,3.5412,3.4013,3.2628,3.1558,0.0,0.0,0.0,3.4365,3.6727,3.6284,3.6636,3.7666,3.7646,3.7429,3.715,3.7078,3.6497,3.549,3.4462,3.2001,2.8206,0.0,0.0,2.6387,2.7832,2.9252,3.0584,3.1636,3.2513,3.3193,3.3449,3.3656,3.3843,3.3507,3.2935,3.2236,3.1416,3.0511,2.9554,2.7866,2.6444,0.0,0.0,0.0,0.0,0.0,0.0,0.0,0.0,0.0,0.0,0.0,1.9216,1.7894,0.0,0.0,0.0,2.2521,2.4124,2.5054,2.497,0.0,0.0,0.0,0.0,0.0,0.0,0.0,2.8157,3.0328,3.1702,3.1444,3.1669,3.1993,3.2442,3.2216,3.2007,3.2007,0.0,3.2103,3.2103,3.2045,3.2031,3.2001,3.1389,3.1017,3.1436,3.1809,3.2079,3.2108,3.2437,3.2706,3.2706,3.2721,3.2587,3.2168,3.1765,3.1467,3.1424,3.1916,3.2392,3.2539,3.3118,3.3669,4.447,4.337,3.8505,3.6975,3.772,3.7785,3.8455,3.9574,3.9698,4.0111,4.0588,3.9333,3.8494,3.789,3.5407,0.0,3.61,3.6083,3.7086,3.8773,3.879,3.9091,3.9687,3.9687,3.9352,3.869,3.869,3.8305,3.7518,3.6145,3.4912,3.3779,3.0981,2.9555,2.9473,2.9555,3.0194,3.1437,3.2112,3.273,3.3339,3.3866,3.4382,3.4776,3.48,3.4104,3.2702,3.2602,3.2022,3.0709,2.8661,2.7499,2.7433,0.0,0.0,0.0,0.0,0.0,0.0,0.0,0.0,0.0,0.0,0.0,0.0,0.0,0.0,0.0,2.5017,0.0,2.8339,2.821,0.0,0.0,0.0,2.6043,2.703,2.8631,2.9687,2.9892,0.0,0.0,3.308,3.4214,3.4768,3.4043,3.3425,3.2998,3.2986,3.3077,3.3162,3.3059,3.2957,3.2869,3.2854,3.2194,3.1658,3.1674,3.1569,3.1569,3.154,3.1555,3.154,3.1585,3.1511,3.1525,3.1511,3.1525,3.1525,3.16,3.2123,3.2781,3.3319,3.4007,3.468,4.6319,4.5551,4.4275,4.2489,4.0529,4.1057,4.1562,4.1971,4.1999,4.1849,4.1536,4.0658,3.9912,3.923,3.8593,3.8785,3.959,3.959,3.9895,4.0404,4.0316,4.0115,3.9849,3.9755,3.962,3.9452,3.9452,3.9041,3.8305,3.7417,3.6556,3.5666,3.3881,3.2298,3.0997,3.2208,3.3086,3.3485,3.4079,3.4462,3.4488,3.4643,3.4499,3.4071,3.4054,3.3421,3.2081,3.2014,3.2114,3.228,3.0299,2.9365,2.9822,2.6227,0.0,0.0,0.0,0.0,0.0,0.0,0.0,0.0,0.0,2.2752,2.0215,0.0,2.4345,0.0,2.6477,2.8098,2.784,2.8235,0.0,0.0,2.8746,2.8929,3.1429,3.2098,3.2387,3.25,3.4057,3.5064,3.4956,3.5777,3.6489,3.6792,3.5847,3.4927,3.45,3.4428,3.4282,3.3875,3.3757,3.3727,3.3622,3.3107,3.261,3.2524,3.2058,3.167,3.1524,3.1496,3.1496,3.1496,3.1496,3.1496,3.1511,3.1496,3.1705,3.2168,3.2811,3.3305,3.3499,3.4427,3.5295,4.7462,4.6759,4.6424,4.5046,4.3132,4.3502,4.3577,4.3397,4.3437,4.3272,4.2931,4.2246,4.155,4.086,4.086,4.1079,4.1449,4.1466,4.135,4.1083,4.1021,4.0634,4.0003,3.991,3.9867,3.9884,3.9867,3.9514,3.8748,3.8042,3.7326,3.6552,3.5356,3.4276,3.3339,3.3812,3.4292,3.4694,3.5004,3.5152,3.5065,3.5065,3.4732,3.4016,3.3983,3.3306,3.1938,3.1909,3.1926,3.1954,3.0563,2.9911,3.0222,2.747,2.5481,0.0,0.0,0.0,0.0,0.0,0.0,0.0,0.0,0.0,0.0,0.0,2.5997,2.6704,2.8818,3.0163,3.0149,3.0521,3.1096,3.1924,3.1288,3.1611,3.3625,3.3811,3.4107,3.4827,3.5639,3.6265,3.6603,3.7297,3.7946,3.8328,3.8011,3.7159,3.5787,3.5537,3.5344,3.4787,3.4607,3.4379,3.406,3.3681,3.3303,3.2941,3.2594,3.2217,3.1801,3.1683,3.1626,3.1641,3.1568,3.1615,3.1854,3.1944,3.2153,3.2811,3.3484,3.3888,3.3948,3.4771,3.5489,4.8128,4.7407,4.677,4.6029,4.5274,4.5274,4.4809,4.4126,4.4253,4.431,4.4288,4.3787,4.32,4.2591,4.2574,4.2591,4.2601,4.2489,4.2049,4.1356,4.1255,4.0815,4.0113,4.0113,4.0113,4.0113,4.0113,3.974,3.8988,3.8278,3.7516,3.6795,3.5937,3.5543,3.5566,3.4779,3.4684,3.5314,3.5314,3.5314,3.5308,3.5308,3.4906,3.4114,3.4063,3.3383,3.1947,3.1884,3.1633,3.1063,3.0275,2.9872,2.9886,2.7778,2.6571,0.0,2.5211,0.0,0.0,0.0,0.0,0.0,0.0,0.0,0.0,2.7007,2.798,2.9791,3.1388,3.2555,3.3123,3.3342,3.352,3.3656,3.3672,3.4015,3.481,3.4928,3.5458,3.6795,3.6948,3.7195,3.7922,3.8616,3.8988,3.914,3.9555,3.9049,3.7143,3.6646,3.6443,3.584,3.5523,3.5171,3.4607,3.4303,3.3999,3.3345,3.3043,3.2784,3.2074,3.1898,3.1813,3.1784,3.167,3.1749,3.2392,3.2482,3.2721,3.332,3.3963,3.4444,3.4503,3.4996,3.5474,4.8486,4.7811,4.7646,4.6832,4.5616,4.56,4.5103,4.4253,4.4265,4.4395,4.4542,4.4418,4.4282,4.4175,4.4175,4.4158,4.4141,4.3487,4.2811,4.2066,4.1474,4.0798,4.013,4.0113,4.0113,4.0113,4.0113,3.9698,3.8988,3.8261,3.7516,3.6795,3.5988,3.5577,3.5583,0.0,0.0,0.0,3.5469,3.54,3.5314,3.5308,3.4655,3.3383,3.3316,0.0,3.1295,3.1194,3.1392,3.1795,3.0701,0.0,0.0,0.0,0.0,0.0,0.0,0.0,0.0,0.0,0.0,0.0,2.8937,2.8412,2.7633,2.9762,3.1098,3.0867,3.2765,3.3601,3.2608,3.3571,3.4518,3.5092,3.5194,3.5718,3.706,3.7246,3.7398,3.7635,3.7702,3.7973,3.8667,3.892,3.9249,3.9774,4.0011,3.9698,3.8755,3.8176,3.7716,3.7152,3.6551,3.6199,3.6061,3.5508,3.4834,3.4147,3.3492,3.2884,3.2177,3.1996,3.1912,3.1828,3.1756,3.1894,3.2392,3.2497,3.2691,3.338,3.4023,3.4503,3.4518,3.5026,3.5489,4.8595,0.0,4.7513,4.6718,0.0,4.5314,4.4897,4.444,4.444,4.4497,4.4598,4.4598,4.4598,4.4598,4.4598,4.4598,4.4581,4.4164,4.3369,4.2286,4.1914,4.117,4.0113,4.0113,4.0113,4.0113,4.0113,3.9529,3.8481,3.8075,3.733,3.6214,3.5808,3.5616,3.5616,3.5616,3.5577,3.5566,3.5566,3.552,3.5475,3.5441,3.4936,3.3826,3.3439,0.0,0.0,0.0,0.0,0.0,0.0,0.0,0.0,0.0,0.0,2.9916,2.9294,2.9059,2.9411,2.9785,3.0192,3.0615,3.1647,3.161,3.0085,3.2405,3.3757,3.3377,3.5059,3.5876,3.5182,3.574,3.6332,3.6664,3.6715,3.707,3.7753,3.7898,3.8041,3.8396,3.8447,3.8717,3.9469,3.9554,3.969,4.0045,4.0113,3.9978,3.967,3.9135,3.8435,3.7578,3.7194,3.6706,3.6137,3.5753,3.5091,3.408,3.3529,3.3025,3.2326,3.2135,3.2038,3.1927,3.1841,3.1938,3.2377,3.2497,3.2706,3.3335,3.38,3.3978,3.4038,3.4801,3.5489,4.8392,4.7635,4.6904,4.6177,4.5466,4.4869,4.4598,4.4598,0.0,0.0,0.0,4.4598,4.4598,4.4598,4.4598,4.4598,4.4598,4.4462,4.365,4.233,4.2168,4.139,4.013,4.0113,4.0113,4.0113,4.0113,3.9351,3.7956,3.7898,3.7104,3.5735,3.5616,3.5616,3.5616,3.5616,3.5616,3.5616,3.5616,3.5667,3.5825,3.5802,3.5453,3.4709,3.4117,3.3389,3.253,3.1901,3.1579,3.1599,3.1579,3.1529,3.141,3.1972,3.2293,3.2327,3.2848,3.3,3.2547,3.3186,3.3203,3.2239,3.3981,3.4472,3.3004,3.481,3.6005,3.6005,3.7178,3.7905,3.7898,3.7905,3.7956,3.8075,3.8108,3.8142,3.8278,3.8278,3.8582,3.9073,3.9191,3.9394,3.9977,4.0062,4.0113,4.0079,3.9943,3.9817,3.9707,3.9239,3.8546,3.7608,3.7067,3.6591,3.5811,3.5337,3.4799,3.3675,3.3413,3.3152,3.2598,3.2315,3.2191,3.2081,3.1955,3.2084,3.2436,3.2542,3.2721,3.3215,3.3425,3.344,3.344,3.4277,3.504,4.7648,4.6887,4.616,4.5432,4.475,4.4649,4.4598,4.4598,4.4598,4.4598,4.4598,4.4598,4.4598,4.4598,4.4598,4.4598,4.4564,4.3876,4.3115,4.2296,4.1644,4.0899,4.013,4.0113,4.0113,4.0113,4.0113,3.9351,3.8041,3.7898,3.7127,3.5785,3.5616,3.5616,3.5616,3.5616,3.5616,3.5616,3.5616,3.5943,3.6603,3.6643,3.6248,3.5481,3.5346,3.4658,3.3305,3.3152,3.3085,3.3102,3.3102,3.2814,3.2209,3.2276,3.2293,3.2293,3.2395,3.2662,3.3237,3.3931,3.4849,3.5949,3.6891,3.6789,3.5329,3.6631,3.7584,3.7577,3.7821,3.7898,3.7898,3.7939,3.8176,3.8684,3.8802,3.9056,3.9554,3.9622,3.9656,3.9757,3.9943,3.9876,3.9994,4.0062,4.0028,3.9994,3.9495,3.9,3.862,3.84,3.8149,3.744,3.6453,3.5766,3.5352,3.4982,3.4335,3.3537,3.3352,3.3121,3.2521,3.2385,3.2315,3.2191,3.2135,3.2253,3.2582,3.266,3.2616,3.2736,3.3006,3.32,3.2766,3.329,3.3784,4.7242,4.621,4.5838,4.528,4.4598,4.4598,4.4598,4.4598,4.4598,4.4598,4.4598,4.4598,4.4598,4.4598,4.4598,4.4598,4.4581,4.4215,4.342,4.233,4.1948,4.117,4.0163,4.0113,4.0113,4.0113,4.0113,3.9554,3.8531,3.8091,3.733,3.6282,3.5802,3.5616,3.5616,3.5616,3.5616,3.5616,3.5616,3.6011,3.6778,3.6812,3.6829,3.6857,3.6485,3.5943,3.5267,3.4438,3.3998,3.3998,3.3626,3.3237,3.2933,3.3275,3.3681,3.4066,3.451,3.5069,3.5791,3.6146,3.6654,3.7347,3.8075,3.821,3.7499,3.8091,3.8481,3.8514,3.8836,3.8945,3.8548,3.8497,3.8481,3.8413,3.8396,3.8531,3.8836,3.8903,3.8903,3.8903,3.8903,3.9056,3.9469,3.952,3.9495,3.9453,3.887,3.8274,3.7953,3.7495,3.7113,3.6822,3.6346,3.5537,3.461,3.4137,3.3629,3.2952,3.2844,3.2736,3.2428,3.2398,3.2342,3.2219,3.2191,3.2214,3.2335,3.2307,3.2264,3.2193,3.2315,3.2346,3.2108,3.2228,3.2647,4.6769,4.5703,4.5517,4.5111,4.4598,4.4598,4.4598,4.4598,4.4598,4.4598,4.4598,4.4598,4.4598,4.4598,4.4598,4.4598,4.4598,4.4598,4.3741,4.2388,4.2303,4.1534,4.0214,4.0113,4.0113,4.0113,4.0113,3.9723,3.8988,3.843,3.7669,3.6829,3.618,3.5769,3.5616,3.5616,3.5684,3.5859,3.5893,3.6248,3.7015,3.7178,3.7591,3.8058,3.7601,3.7235,3.7015,3.5893,3.5267,3.5233,3.4726,3.4421,3.4438,3.4962,3.552,3.6107,3.6688,3.728,3.7838,3.8075,3.8159,3.8176,3.8819,3.9225,3.9266,3.9225,3.9242,3.9292,3.9546,3.9554,3.9073,3.8954,3.8768,3.8227,3.8311,3.8514,3.843,3.8396,3.8311,3.821,3.8294,3.865,3.8886,3.8988,3.8853,3.8464,3.8125,3.7817,3.7283,3.6556,3.6227,3.5783,3.5744,3.5107,3.3638,3.326,3.2982,3.2444,3.2428,3.2444,3.2398,3.2398,3.237,3.2259,3.2247,3.2206,3.2109,3.2068,3.2027,3.1945,3.1964,3.1787,3.1614,3.1585,3.1809,4.5838,4.5602,4.5021,4.4682,4.4615,4.4598,4.4598,4.4598,4.4598,4.4598,4.4598,4.4598,4.4598,4.4598,4.4598,4.4598,4.4598,4.4598,4.3785,4.2439,4.2303,4.1508,4.0231,4.0113,4.0113,4.0113,4.0113,3.9757,3.9089,3.892,3.82,3.6965,3.6745,3.6349,3.5735,3.565,3.5977,3.6677,3.6694,3.7043,3.7804,3.8447,3.8836,3.8886,3.8836,3.8481,3.7872,3.7652,3.7584,3.7601,3.7449,3.7449,3.7432,3.7533,3.7601,3.7669,3.7787,3.7855,3.7956,3.8531,3.8903,3.8954,3.9563,3.9994,4.0011,4.0011,4.0011,3.996,3.9462,3.9123,3.8988,3.8971,3.892,3.8954,3.9292,3.991,3.974,3.991,3.9673,3.8954,3.9165,3.969,3.8988,3.8853,3.8403,3.7371,3.7466,3.717,3.5976,3.5883,3.5519,3.4304,3.3756,3.3725,3.3319,3.2859,3.2567,3.2413,3.2398,3.2398,3.2398,3.2398,3.2398,3.237,3.237,3.2315,3.2247,3.2163,3.215,3.1996,3.1898,3.1727,3.1568,3.1496,3.166,4.5449,4.5038,4.4733,4.4598,4.4598,4.4598,4.4598,4.4598,4.4598,4.4598,4.4598,4.4598,4.4598,4.4598,4.4598,4.4598,4.4598,4.4598,4.3995,4.2963,4.2489,4.1771,4.0798,4.0299,4.0113,4.0113,4.0113,3.996,3.9614,3.9208,3.8464,3.755,3.7449,3.728,3.6969,3.6952,3.7121,3.7449,3.7895,3.8268,3.8531,3.8836,3.9233,3.9597,3.9631,3.9554,3.9174,3.8785,3.8548,3.8514,3.8142,3.7898,3.7898,3.7898,3.8108,3.8497,3.8954,3.9191,3.9191,3.9478,3.9673,3.9656,4.0307,4.0747,4.0764,4.1162,4.1416,4.123,3.9935,3.9157,3.9512,3.8886,3.8684,3.9368,3.9174,3.9005,3.9419,3.9089,3.865,3.8379,3.8217,3.8302,3.8244,3.7956,3.7489,3.6829,3.6755,3.6162,3.5459,3.5382,3.4901,3.4011,3.3507,3.3142,3.2894,3.2628,3.2428,3.2398,3.2398,3.2398,3.2398,3.2398,3.2398,3.2398,3.2398,3.2398,3.233,3.2315,3.2274,3.2122,3.1912,3.1727,3.1524,3.1496,3.1496,4.5094,4.4632,4.4598,4.4598,4.4598,4.4598,4.4598,4.4598,4.4598,4.4598,4.4598,4.4598,4.4598,4.4598,4.4598,4.4598,4.4598,4.4598,4.4164,4.3358,4.2642,4.1914,4.117,4.0443,4.0113,4.0113,4.0113,4.0113,4.0045,3.958,3.892,3.8311,3.8193,3.8108,3.7922,3.7898,3.8024,3.8227,3.8734,3.9073,3.9242,3.9292,3.9554,4.0045,4.0113,4.0113,4.0096,3.9588,3.9317,3.93,3.8785,3.8514,3.8497,3.8497,3.8734,3.9242,3.9791,4.0113,4.0113,4.0113,4.0197,4.0434,4.0916,4.1305,4.1542,4.1999,4.2269,4.2134,4.0646,3.9884,4.0147,3.9445,3.936,4.0172,3.9512,3.936,3.9868,3.9259,3.8836,3.8497,3.8369,3.7692,3.777,3.7354,3.6778,3.6434,3.5955,3.5492,3.5356,3.4913,3.4407,3.386,3.3319,3.2857,3.248,3.2413,3.2398,3.2398,3.2398,3.2398,3.2398,3.2398,3.2398,3.2398,3.2398,3.2398,3.237,3.2398,3.2342,3.2203,3.2038,3.1826,3.1655,3.1597,3.1553,4.4632,4.4598,4.4598,4.4598,4.4598,4.4598,4.4598,4.4598,4.4598,4.4598,4.4598,4.4598,4.4598,4.4598,4.4598,4.4598,4.4598,4.4598,4.4198,4.3443,4.2692,4.1914,4.1187,4.046,4.013,4.0197,4.0113,4.0113,4.0113,4.0045,3.969,3.8971,3.8954,3.8599,3.8125,3.8075,3.8294,3.8903,3.9039,3.9368,3.9926,4.0028,4.0028,4.0096,4.0113,4.0113,4.0096,4.0062,4.0045,4.0045,3.9943,3.9943,3.996,3.9943,3.9943,4.0028,4.0062,4.0113,4.0113,4.0146,4.0392,4.1018,4.1271,4.1542,4.2185,4.2405,4.2472,4.2303,4.1694,4.1255,4.1204,4.0916,4.0933,4.1288,4.1728,4.1863,4.2076,4.1271,4.0747,4.018,3.9723,3.8996,3.8007,3.7263,3.6468,3.5938,3.5633,3.5424,3.4951,3.4431,3.3935,3.3407,3.2895,3.2437,3.2398,3.2398,3.2398,3.2398,3.2398,3.2398,3.2398,3.2398,3.2398,3.2398,3.2398,3.2398,3.2398,3.237,3.2315,3.2231,3.2191,3.2038,3.1756,3.1784,3.1698,4.4598,4.4598,4.4598,4.4598,4.4598,4.4598,4.4598,4.4598,4.4598,4.4598,4.4598,4.4598,4.4598,4.4598,4.4598,4.4598,4.4598,4.4598,4.4418,4.4062,4.3369,4.2878,4.254,4.139,4.0798,4.073,4.035,4.0113,4.0113,4.0113,3.9977,3.9774,3.9706,3.9571,3.9368,3.9334,3.9469,3.969,3.9723,3.9842,4.0062,4.0113,4.0113,4.0113,4.0113,4.0113,4.0113,4.0113,4.0113,4.0113,4.0113,4.0113,4.0113,4.0113,4.0113,4.0113,4.0113,4.0113,4.0163,4.0553,4.0899,4.1221,4.2117,4.2642,4.3031,4.3436,4.3555,4.3132,4.3301,4.3166,4.2523,4.1813,4.1796,4.2997,4.2726,4.2523,4.276,4.2371,4.1779,4.1339,4.0383,3.8826,3.7635,3.6535,3.5938,3.5645,3.5316,3.5055,3.4793,3.4333,3.3809,3.3355,3.3039,3.2788,3.2398,3.2398,3.2398,3.2398,3.2398,3.2398,3.2398,3.2398,3.2398,3.2398,3.2398,3.2398,3.2398,3.2398,3.2342,3.2274,3.2219,3.2122,3.187,3.187,3.1756,4.4598,4.4598,4.4598,4.4598,4.4598,4.4598,4.4598,4.4598,4.4598,4.4598,4.4598,4.4598,4.4598,4.4598,4.4598,4.4598,4.4598,4.4598,4.4598,4.453,4.3775,4.3403,4.3217,4.2134,4.1441,4.1119,4.0426,4.0113,4.0113,4.0113,4.0113,4.0096,4.0113,4.0113,4.0113,4.0113,4.0113,4.0113,4.0113,4.0096,4.0113,4.0113,4.0113,4.0113,4.0113,4.0113,4.0113,4.0113,4.0113,4.0113,4.0113,4.0113,4.0113,4.0113,4.0113,4.0113,4.0113,4.0113,4.0197,4.0781,4.1288,4.1559,4.2405,4.3115,4.3403,4.3707,4.3538,4.3301,4.3453,4.3572,4.3031,4.2134,4.2303,4.3792,4.3515,4.3098,4.3352,4.2963,4.2455,4.1728,4.0443,3.8937,3.7702,3.6891,3.636,3.6045,3.5506,3.5221,3.5101,3.4299,3.3768,3.3488,3.3112,3.278,3.248,3.2413,3.2398,3.2398,3.2398,3.2398,3.2398,3.2398,3.2398,3.2398,3.2398,3.2398,3.2398,3.2398,3.2358,3.2274,3.2274,3.2219,3.2081,3.1983,3.1855,4.4598,4.4598,4.4598,4.4598,4.4598,4.4598,4.4598,4.4598,4.4598,4.4598,4.4598,4.4598,4.4598,4.4598,4.4598,4.4598,4.4598,4.4598,4.4598,4.4513,4.3842,4.3494,4.3453,4.2692,4.1863,4.1204,4.0476,4.013,4.0113,4.0113,4.0113,4.0113,4.0113,4.0113,4.0113,4.0113,4.0113,4.0113,4.0113,4.0113,4.0113,4.0113,4.0113,4.0113,4.0113,4.0113,4.0113,4.0113,4.0113,4.0113,4.0113,4.0113,4.0113,4.0113,4.0113,4.0113,4.0113,4.0113,4.0248,4.0865,4.1627,4.2066,4.2354,4.2743,4.3098,4.2811,4.2482,4.2337,4.2405,4.2398,4.2354,4.2219,4.2489,4.3318,4.369,4.3775,4.3453,4.3386,4.2844,4.1559,4.0527,3.9842,3.9063,3.8108,3.7374,3.6744,3.6243,3.5811,3.5538,3.4458,3.3725,3.3806,3.3533,3.3045,3.2699,3.2413,3.2413,3.2398,3.2398,3.2398,3.2398,3.2398,3.2398,3.2398,3.2398,3.2398,3.2398,3.2398,3.2398,3.2358,3.2342,3.2315,3.2191,3.2081,3.1996,4.4598,4.4598,4.4598,4.4598,4.4598,4.4598,4.4598,4.4598,4.4598,4.4598,4.4598,4.4598,4.4598,4.4598,4.4598,4.4598,4.4598,4.4598,4.4598,4.4564,4.4299,4.4181,4.4045,4.342,4.2422,4.1356,4.0967,4.0603,4.0214,4.013,4.0113,4.0113,4.0113,4.0113,4.0113,4.0113,4.0113,4.0113,4.0113,4.0113,4.0113,4.0113,4.0113,4.0113,4.0113,4.0113,4.0113,4.0113,4.0113,4.0113,4.0113,4.0113,4.0113,4.0113,4.0113,4.0113,4.0113,4.0383,4.0882,4.1508,4.2016,4.2337,4.2743,4.2844,4.2692,4.2405,4.2016,4.1711,4.1965,4.2134,4.1745,4.2016,4.232,4.2608,4.2844,4.3014,4.2828,4.3071,4.2675,4.1525,4.1001,4.0324,3.9242,3.8396,3.7778,3.7143,3.6579,3.6101,3.5508,3.4813,3.4144,3.4275,3.3842,3.3534,3.3244,3.2952,3.2782,3.2598,3.2475,3.2413,3.2398,3.2398,3.2398,3.2398,3.2398,3.2398,3.2398,3.2398,3.2398,3.2398,3.2398,3.233,3.2219,3.2163,3.2122,4.4598,4.4598,4.4598,4.4598,4.4598,4.4598,4.4598,4.4598,4.4598,4.4598,4.4598,4.4598,4.4598,4.4598,4.4598,4.4598,4.4598,4.4598,4.4598,4.4598,4.4598,4.4598,4.4496,4.3775,4.2997,4.2134,4.1745,4.1373,4.0925,4.0654,4.051,4.0493,4.0265,4.0113,4.0113,4.0113,4.0113,4.0113,4.0113,4.0113,4.0113,4.0113,4.0113,4.0113,4.0113,4.0113,4.0113,4.0113,4.0113,4.0113,4.0113,4.0113,4.0113,4.0113,4.0113,4.0113,4.0146,4.0434,4.1153,4.183,4.2303,4.2388,4.2726,4.2658,4.2033,4.1711,4.1221,4.0984,4.1153,4.1271,4.095,4.1153,4.1484,4.15,4.2033,4.2252,4.2371,4.2692,4.2472,4.1525,4.1187,4.0561,3.9631,3.9089,3.8426,3.7845,3.7279,3.6871,3.6242,3.5486,3.5151,3.4878,3.4575,3.4237,3.3873,3.3537,3.3213,3.289,3.2598,3.2475,3.2398,3.2398,3.2398,3.2398,3.2398,3.2398,3.2398,3.2398,3.2398,3.2398,3.2398,3.237,3.2302,3.2302,3.2247,4.4598,4.4598,4.4598,4.4598,4.4598,4.4598,4.4598,4.4598,4.4598,4.4598,4.4598,4.4598,4.4598,4.4598,4.4598,4.4598,4.4598,4.4598,4.4598,4.4598,4.4598,4.4598,4.4496,4.391,4.347,4.3166,4.2642,4.2303,4.1999,4.1508,4.1238,4.1052,4.0527,4.013,4.013,4.0113,4.0113,4.0113,4.0113,4.0113,4.0113,4.0113,4.0113,4.0113,4.0113,4.0146,4.0282,4.04,4.0299,4.013,4.0113,4.0113,4.0113,4.0113,4.0113,4.0113,4.0113,4.0587,4.1204,4.1914,4.2286,4.2303,4.2439,4.1999,4.1424,4.1018,4.0705,4.0468,4.0451,4.0333,4.0265,4.0265,4.0282,4.0333,4.1238,4.188,4.2117,4.2151,4.1813,4.1305,4.1102,4.0882,4.013,3.9943,3.9547,3.8975,3.836,3.7926,3.7416,3.6522,3.5992,3.5647,3.533,3.4979,3.4614,3.4352,3.4014,3.3611,3.3167,3.2859,3.2521,3.2428,3.2398,3.2398,3.2398,3.2398,3.2398,3.2398,3.2398,3.2398,3.2398,3.2398,3.2398,3.237,3.2358,4.4598,4.4598,4.4598,4.4598,4.4598,4.4598,4.4598,4.4598,4.4598,4.4598,4.4598,4.4598,4.4598,4.4598,4.4598,4.4598,4.4598,4.4598,4.4598,4.4598,4.4598,4.4598,4.4598,4.4384,4.3961,4.3443,4.325,4.2828,4.232,4.2117,4.1762,4.1221,4.1068,4.0637,4.0214,4.0146,4.0113,4.0113,4.0113,4.0113,4.0113,4.0113,4.0113,4.0113,4.0113,4.0367,4.0882,4.145,4.1162,4.018,4.0113,4.0113,4.0163,4.0146,4.0146,4.0113,4.0163,4.0705,4.1728,4.2185,4.2303,4.2354,4.2777,4.253,4.1339,4.1542,4.139,4.1085,4.0899,4.0696,4.0282,4.0163,4.0163,4.0146,4.0688,4.0857,4.0874,4.1136,4.1187,4.0578,4.0865,4.0713,4.0333,4.007,3.9885,3.9282,3.8745,3.8215,3.7836,3.7214,3.6517,3.6363,3.6076,3.5722,3.5399,3.5183,3.4844,3.4382,3.3935,3.3475,3.2967,3.2475,3.2428,3.2398,3.2398,3.2398,3.2398,3.2398,3.2398,3.2398,3.2398,3.2398,3.2398,3.2398,3.2398,4.4598,4.4598,4.4598,4.4598,4.4598,4.4598,4.4598,4.4598,4.4598,4.4598,4.4598,4.4598,4.4598,4.4598,4.4598,4.4598,4.4598,4.4598,4.4598,4.4598,4.4598,4.4598,4.4598,4.4581,4.4361,4.3961,4.391,4.369,4.3311,4.2946,4.2523,4.2185,4.1813,4.1271,4.0629,4.0544,4.0358,4.0163,4.0113,4.0113,4.0113,4.0113,4.0113,4.0113,4.0113,4.035,4.0764,4.1424,4.1508,4.1111,4.1027,4.0908,4.0578,4.0561,4.0451,4.018,4.0383,4.1102,4.2066,4.2557,4.276,4.2828,4.3189,4.275,4.2016,4.2083,4.2033,4.1745,4.166,4.1441,4.1136,4.1027,4.1027,4.1052,4.0756,4.0468,4.0163,4.0502,4.051,4.035,4.0409,4.0612,4.013,4.0113,3.9944,3.9653,3.9387,3.8881,3.837,3.765,3.7088,3.6861,3.6569,3.6138,3.583,3.5584,3.5429,3.5013,3.4659,3.4212,3.3537,3.2859,3.2644,3.2613,3.249,3.2398,3.2398,3.2398,3.2398,3.2398,3.2398,3.2398,3.2398,3.2398,3.2398,4.4598,4.4598,4.4598,4.4598,4.4598,4.4598,4.4598,4.4598,4.4598,4.4598,4.4598,4.4598,4.4598,4.4598,4.4598,4.4598,4.4598,4.4598,4.4598,4.4598,4.4598,4.4598,4.4598,4.4598,4.4564,4.4451,4.4581,4.4513,4.4225,4.3758,4.3443,4.3088,4.2625,4.2049,4.1457,4.1305,4.0899,4.0409,4.0324,4.0248,4.0146,4.0113,4.0113,4.0146,4.0536,4.0451,4.0629,4.1153,4.1796,4.2371,4.2269,4.161,4.1119,4.1052,4.0899,4.0587,4.095,4.166,4.2354,4.3031,4.3352,4.3352,4.3426,4.3189,4.2658,4.2625,4.2675,4.2422,4.2405,4.2286,4.2117,4.2185,4.21,4.1965,4.1593,4.1035,4.0476,4.0197,4.0113,4.0113,4.013,4.0113,4.0113,4.0113,4.007,3.9876,3.9627,3.9216,3.8673,3.8026,3.7549,3.7268,3.6922,3.6492,3.6215,3.5968,3.5845,3.5598,3.5306,3.489,3.4274,3.3644,3.3183,3.2936,3.2859,3.2644,3.2398,3.2398,3.2459,3.2398,3.2398,3.2398,3.2398,3.2398,3.2398,4.4598,4.4598,4.4598,4.4598,4.4598,4.4598,4.4598,4.4598,4.4598,4.4598,4.4598,4.4598,4.4598,4.4598,4.4598,4.4598,4.4598,4.4598,4.4598,4.4598,4.4598,4.4598,4.4598,4.4598,4.4598,4.4598,4.4598,4.4598,4.4513,4.4378,4.4012,4.3443,4.3301,4.2811,4.2168,4.2033,4.1694,4.1085,4.0967,4.0679,4.0316,4.0248,4.0248,4.0333,4.1196,4.1424,4.1339,4.2252,4.2953,4.2878,4.2151,4.139,4.0899,4.1068,4.1187,4.1204,4.1644,4.2388,4.3031,4.3291,4.3436,4.3511,4.3927,4.3995,4.3352,4.369,4.3673,4.3369,4.3139,4.2946,4.2574,4.2354,4.2455,4.2439,4.2236,4.1999,4.1677,4.0807,4.0248,4.0163,4.013,4.0113,4.0113,4.0113,4.007,4.002,3.9773,3.9418,3.892,3.8367,3.7927,3.7565,3.7134,3.6693,3.6415,3.6215,3.6138,3.603,3.5799,3.5614,3.4999,3.4566,3.4106,3.366,3.326,3.3029,3.289,3.2659,3.2767,3.2582,3.2536,3.2718,3.281,3.2644,3.2721,4.4598,4.4598,4.4598,4.4598,4.4598,4.4598,4.4598,4.4598,4.4598,4.4598,4.4598,4.4598,4.4598,4.4598,4.4598,4.4598,4.4598,4.4598,4.4598,4.4598,4.4598,4.4598,4.4598,4.4598,4.4598,4.4598,4.4598,4.4598,4.4598,4.4581,4.435,4.4012,4.3944,4.3555,4.2929,4.2811,4.2422,4.1847,4.1711,4.1491,4.1213,4.1145,4.1145,4.117,4.1863,4.2066,4.188,4.276,4.3115,4.2878,4.2472,4.2083,4.1779,4.1982,4.2049,4.188,4.2405,4.2929,4.3369,4.3758,4.3995,4.3944,4.4384,4.4299,4.4113,4.4412,4.4395,4.4079,4.3927,4.3758,4.342,4.3386,4.3379,4.3284,4.3014,4.2844,4.2591,4.1525,4.0612,4.0527,4.0324,4.018,4.0113,4.0163,4.0096,4.0045,4.0045,3.9696,3.9259,3.8701,3.8112,3.7666,3.7268,3.6892,3.6616,3.6445,3.6415,3.6353,3.6261,3.6138,3.5861,3.546,3.5136,3.4522,3.3891,3.3844,3.3704,3.3442,3.3303,3.3503,3.3565,3.3442,3.3411,3.355,3.3673,4.4598,4.4598,4.4598,4.4598,4.4598,4.4598,4.4598,4.4598,4.4598,4.4598,4.4598,4.4598,4.4598,4.4598,4.4598,4.4598,4.4598,4.4598,4.4598,4.4598,4.4598,4.4598,4.4598,4.4598,4.4598,4.4598,4.4598,4.4598,4.4598,4.4598,4.4547,4.4547,4.4564,4.4164,4.3707,4.3544,4.3217,4.2557,4.2455,4.2286,4.2151,4.2117,4.2117,4.2134,4.2422,4.2422,4.2405,4.2895,4.3166,4.2574,4.3054,4.3392,4.3527,4.3375,4.32,4.2506,4.3166,4.3606,4.3792,4.4164,4.453,4.4598,4.4598,4.4598,4.4581,4.4564,4.4547,4.4547,4.4462,4.4462,4.4581,4.4395,4.4429,4.4395,4.391,4.3656,4.3352,4.2354,4.1728,4.1288,4.0865,4.051,4.035,4.0299,4.0197,4.0096,4.007,3.9901,3.9444,3.892,3.8282,3.7608,3.7164,3.6846,3.6585,3.6492,3.6492,3.6492,3.6492,3.6461,3.6399,3.6122,3.5675,3.5075,3.4628,3.4551,3.4397,3.4089,3.412,3.4474,3.4366,3.4043,3.415,3.4443,3.4536,4.4598,4.4598,4.4598,4.4598,4.4598,4.4598,4.4598,4.4598,4.4598,4.4598,4.4598,4.4598,4.4598,4.4598,4.4598,4.4598,4.4598,4.4598,4.4598,4.4598,4.4598,4.4598,4.4598,4.4598,4.4598,4.4598,4.4598,4.4598,4.4598,4.4598,4.4598,4.4598,4.4598,4.4429,4.4395,4.4333,4.3944,4.3335,4.3234,4.2997,4.2642,4.2523,4.2523,4.2574,4.2997,4.2946,4.2658,4.3031,4.3325,4.3223,4.3325,4.3758,4.4045,4.3775,4.3409,4.3409,4.3859,4.4231,4.4327,4.4462,4.4598,4.4598,4.4598,4.4598,4.4598,4.4598,4.4598,4.4598,4.4598,4.4598,4.4598,4.4598,4.4598,4.4547,4.4479,4.4327,4.413,4.3555,4.276,4.2337,4.1644,4.0916,4.073,4.0519,4.0316,4.0197,4.0096,3.9825,3.9365,3.881,3.821,3.7578,3.6922,3.6723,3.6492,3.6492,3.6492,3.6492,3.6492,3.6492,3.6461,3.6476,3.6107,3.5583,3.5275,3.5152,3.4951,3.4767,3.4767,3.4967,3.4782,3.4566,3.4813,3.5075,3.5106,4.4598,4.4598,4.4598,4.4598,4.4598,4.4598,4.4598,4.4598,4.4598,4.4598,4.4598,4.4598,4.4598,4.4598,4.4598,4.4598,4.4598,4.4598,4.4598,4.4598,4.4598,4.4598,4.4598,4.4598,4.4598,4.4598,4.4598,4.4598,4.4598,4.4598,4.4598,4.4598,4.4598,4.4598,4.4598,4.4547,4.4367,4.4028,4.3961,4.3826,4.347,4.3464,4.3436,4.3572,4.3741,4.3792,4.3673,4.3741,4.4012,4.4012,4.4028,4.4231,4.4361,4.4282,4.3995,4.4062,4.435,4.4598,4.4598,4.4598,4.4598,4.4598,4.4598,4.4598,4.4598,4.4598,4.4598,4.4598,4.4598,4.4598,4.4598,4.4598,4.4598,4.4598,4.4598,4.4598,4.4513,4.4198,4.3792,4.3267,4.2489,4.1745,4.1102,4.0832,4.0519,4.0299,4.0146,3.9747,3.9286,3.8865,3.8379,3.765,3.7074,3.6785,3.66,3.6523,3.6523,3.6492,3.6492,3.6492,3.6492,3.6492,3.643,3.6122,3.5937,3.5722,3.5829,3.5707,3.5614,3.5491,3.5537,3.5537,3.5553,3.5614,3.5675,4.4598,4.4598,4.4598,4.4598,4.4598,4.4598,4.4598,4.4598,4.4598,4.4598,4.4598,4.4598,4.4598,4.4598,4.4598,4.4598,4.4598,4.4598,4.4598,4.4598,4.4598,4.4598,4.4598,4.4598,4.4598,4.4598,4.4598,4.4598,4.4598,4.4598,4.4598,4.4598,4.4598,4.4598,4.4598,4.4598,4.4598,4.4598,4.4598,4.4598,4.4598,4.4598,4.4598,4.4598,4.4598,4.4547,4.4429,4.4462,4.4496,4.4513,4.453,4.4581,4.4581,4.4598,4.4598,4.4598,4.4598,4.4598,4.4598,4.4598,4.4598,4.4598,4.4598,4.4598,4.4598,4.4598,4.4598,4.4598,4.4598,4.4598,4.4598,4.4598,4.4598,4.4598,4.4598,4.4598,4.4598,4.4496,4.4479,4.3921,4.3234,4.254,4.183,4.1085,4.073,4.0282,4.0113,3.9773,3.9365,3.9232,3.8712,3.7883,3.7298,3.6937,3.6723,3.6585,3.6554,3.6492,3.6492,3.6492,3.6492,3.6492,3.6415,3.6368,3.6353,3.6215,3.643,3.6492,3.6184,3.6091,3.6368,3.6384,3.6122,3.6091,3.6138,4.4598,4.4598,4.4598,4.4598,4.4598,4.4598,4.4598,4.4598,4.4598,4.4598,4.4598,4.4598,4.4598,4.4598,4.4598,4.4598,4.4598,4.4598,4.4598,4.4598,4.4598,4.4598,4.4598,4.4598,4.4598,4.4598,4.4598,4.4598,4.4598,4.4598,4.4598,4.4598,4.4598,4.4598,4.4598,4.4598,4.4598,4.4598,4.4598,4.4598,4.4598,4.4598,4.4598,4.4598,4.4598,4.4598,4.4598,4.4598,4.4598,4.4598,4.4598,4.4598,4.4598,4.4598,4.4598,4.4598,4.4598,4.4598,4.4598,4.4598,4.4598,4.4598,4.4598,4.4598,4.4598,4.4598,4.4598,4.4598,4.4598,4.4598,4.4598,4.4598,4.4598,4.4598,4.4598,4.4598,4.4598,4.4598,4.4598,4.4564,4.3887,4.3166,4.2455,4.166,4.0933,4.0485,4.0037,3.9772,3.9365,3.9162,3.8783,3.7911,3.7401,3.7088,3.6739,3.6616,3.6554,3.6492,3.6492,3.6492,3.6492,3.6492,3.6492,3.6461,3.6492,3.6492,3.6492,3.6492,3.6492,3.6492,3.6492,3.6492,3.6461,3.6492,3.6492,4.4598,4.4598,4.4598,4.4598,4.4598,4.4598,4.4598,4.4598,4.4598,4.4598,4.4598,4.4598,4.4598,4.4598,4.4598,4.4598,4.4598,4.4598,4.4598,4.4598,4.4598,4.4598,4.4598,4.4598,4.4598,4.4598,4.4598,4.4598,4.4598,4.4598,4.4598,4.4598,4.4598,4.4598,4.4598,4.4598,4.4598,4.4598,4.4598,4.4598,4.4598,4.4598,4.4598,4.4598,4.4598,4.4598,4.4598,4.4598,4.4598,4.4598,4.4598,4.4598,4.4598,4.4598,4.4598,4.4598,4.4598,4.4598,4.4598,4.4598,4.4598,4.4598,4.4598,4.4598,4.4598,4.4598,4.4598,4.4598,4.4598,4.4632,4.4666,4.4598,4.4598,4.4598,4.4649,4.4598,4.4598,4.4598,4.4598,4.4598,4.453,4.3775,4.32,4.2743,4.1897,4.1035,4.0611,4.0286,3.9561,3.8821,3.8379,3.7783,3.7431,3.7208,3.6831,3.6585,3.6554,3.6492,3.6492,3.6492,3.6492,3.6492,3.6492,3.6492,3.6492,3.6492,3.6492,3.6492,3.6492,3.6492,3.6492,3.6492,3.6492,3.6492,3.6492,4.4598,4.4598,4.4598,4.4598,4.4598,4.4598,4.4598,4.4598,4.4598,4.4598,4.4598,4.4598,4.4598,4.4598,4.4598,4.4598,4.4598,4.4598,4.4598,4.4598,4.4598,4.4598,4.4598,4.4598,4.4598,4.4598,4.4598,4.4598,4.4598,4.4598,4.4598,4.4598,4.4598,4.4598,4.4598,4.4598,4.4598,4.4598,4.4598,4.4598,4.4598,4.4598,4.4598,4.4598,4.4598,4.4598,4.4598,4.4598,4.4598,4.4598,4.4598,4.4598,4.4598,4.4598,4.4598,4.4598,4.4598,4.4767,4.4773,4.4773,4.4632,4.4598,4.4598,4.4598,4.4598,4.4615,4.4801,4.4908,4.4942,4.501,4.5089,4.5089,4.4942,4.4874,4.4739,4.4666,4.4598,4.4598,4.4598,4.4598,4.453,4.435,4.391,4.3775,4.2997,4.1813,4.1227,4.086,4.0077,3.9155,3.866,3.827,3.7863,3.7599,3.709,3.6801,3.6662,3.6569,3.6569,3.6553,3.6599,3.6538,3.6492,3.6492,3.6599,3.6492,3.6492,3.6492,3.6492,3.6492,3.6492,3.6492,3.6492,3.6492,3.6492,4.4598,4.4598,4.4598,4.4598,4.4598,4.4598,4.4598,4.4598,4.4598,4.4598,4.4598,4.4598,4.4598,4.4598,4.4598,4.4598,4.4598,4.4598,4.4598,4.4598,4.4598,4.4598,4.4598,4.4598,4.4598,4.4598,4.4598,4.4598,4.4598,4.4598,4.4598,4.4598,4.4598,4.4598,4.4598,4.4598,4.4598,4.4598,4.4598,4.4598,4.4598,4.4598,4.4598,4.4598,4.4598,4.4598,4.4598,4.4598,4.4598,4.4598,4.4598,4.4598,4.4598,4.4598,4.4598,4.4598,4.4767,4.4993,4.5213,4.5026,4.4733,4.4632,4.4733,4.4919,4.5004,4.4767,4.497,4.5534,4.5618,4.5889,4.6058,4.6092,4.5669,4.5483,4.5246,4.4925,4.4818,4.4615,4.4615,4.4598,4.453,4.4401,4.4367,4.4181,4.3639,4.2472,4.1871,4.1512,4.0949,4.0147,3.9582,3.9106,3.8549,3.8075,3.7485,3.7233,3.7172,3.6999,3.6923,3.683,3.6769,3.6692,3.6738,3.6892,3.7046,3.6769,3.6615,3.6923,3.7015,3.6645,3.6492,3.6492,3.6492,3.6492,3.6492,4.4327,4.4412,4.4412,4.4514,4.4598,4.4598,4.4598,4.4598,4.4598,4.4598,4.4598,4.4598,4.4598,4.4598,4.4598,4.4598,4.4598,4.4598,4.4598,4.4598,4.4598,4.4598,4.4598,4.4598,4.4598,4.4598,4.4598,4.4598,4.4598,4.4598,4.4598,4.4598,4.4598,4.4598,4.4598,4.4598,4.4598,4.4598,4.4598,4.4598,4.4598,4.4598,4.4598,4.4598,4.4598,4.4598,4.4598,4.4598,4.4598,4.4615,4.4632,4.4666,4.4682,4.4666,4.4699,4.4767,4.5038,4.5415,4.5669,4.5534,4.5466,4.5935,4.5986,4.5901,4.5771,4.5889,4.6007,4.6295,4.638,4.6616,4.6599,4.6549,4.6346,4.6177,4.5872,4.5415,4.5094,4.4891,4.4649,4.4632,4.4615,4.4547,4.4547,4.4547,4.3876,4.3166,4.2632,4.2095,4.1537,4.0888,4.0227,3.9605,3.8998,3.8591,3.8028,3.7824,3.7677,3.7492,3.7307,3.7307,3.7292,3.7215,3.7277,3.743,3.7615,3.76,3.7615,3.7707,3.7584,3.7246,3.683,3.6492,3.6492,3.663,3.6722,4.4241,4.4367,4.4321,4.4412,4.457,4.4598,4.4598,4.4598,4.4598,4.4598,4.4598,4.4598,4.4598,4.4598,4.4598,4.4598,4.4598,4.4598,4.4598,4.4598,4.4598,4.4598,4.4598,4.4598,4.4598,4.4598,4.4598,4.4598,4.4598,4.4598,4.4598,4.4598,4.4598,4.4598,4.4598,4.4598,4.4615,4.4598,4.4598,4.4598,4.4598,4.484,4.4942,4.5043,4.5241,4.5427,4.5343,4.5258,4.4993,4.4993,4.4993,4.4959,4.4925,4.4942,4.5055,4.5263,4.5517,4.5872,4.621,4.6177,4.6278,4.6532,4.6633,4.6667,4.6786,4.6819,4.6684,4.709,4.7141,4.7192,4.7259,4.7344,4.7175,4.7005,4.6447,4.5974,4.5551,4.5263,4.4891,4.4682,4.4649,4.4615,4.4598,4.4598,4.4361,4.3724,4.3206,4.2627,4.1944,4.1302,4.0578,3.9941,3.9325,3.8952,3.8577,3.8373,3.8154,3.8077,3.7954,3.8031,3.8,3.7908,3.7861,3.8,3.82,3.8446,3.84,3.8215,3.8061,3.7877,3.7538,3.7261,3.7338,3.7507,3.74,4.4384,4.4542,4.4384,4.4412,4.4542,4.4598,4.4587,4.4598,4.4598,4.4598,4.4598,4.4598,4.4598,4.4598,4.4598,4.4598,4.4598,4.4615,4.4666,4.475,4.4818,4.4699,4.4767,4.4835,4.4835,4.4649,4.4733,4.4801,4.4716,4.497,4.4869,4.4869,4.5004,4.4852,4.4666,4.4649,4.4649,4.4649,4.4767,4.4835,4.5004,4.5432,4.5635,4.5788,4.6138,4.6341,4.621,4.5889,4.5686,4.5686,4.5686,4.5686,4.5686,4.5669,4.5923,4.6464,4.6075,4.6549,4.7597,4.7107,4.7022,4.7107,4.731,4.7208,4.6989,4.6972,4.7259,4.7834,4.7902,4.8206,4.8342,4.8325,4.802,4.7699,4.7158,4.6701,4.6295,4.5821,4.55,4.5077,4.4773,4.4632,4.4615,4.4598,4.4598,4.4231,4.3775,4.3121,4.2336,4.1602,4.0877,4.0323,3.9703,3.9508,3.9208,3.8849,3.8646,3.8585,3.8616,3.8723,3.8723,3.8631,3.8616,3.8646,3.8862,3.9154,3.8893,3.8569,3.8692,3.8816,3.8554,3.8354,3.84,3.8277,3.8046,4.3952,4.4131,4.4056,4.4143,4.427,4.4338,4.4485,4.457,4.4598,4.4598,4.4598,4.4598,4.4598,4.4598,4.4598,4.457,4.4598,4.4632,4.4733,4.5263,4.5196,4.5686,4.572,4.5399,4.5263,4.5314,4.5331,4.5331,4.5365,4.5618,4.5974,4.6058,4.5855,4.5799,4.5618,4.5686,4.6058,4.6058,4.6092,4.6104,4.6087,4.6278,4.643,4.6464,4.6752,4.6921,4.6938,4.6599,4.6447,4.643,4.6447,4.6447,4.643,4.6413,4.6566,4.6972,4.6802,4.7614,4.8359,4.8359,4.8274,4.8206,4.8122,4.8105,4.824,4.8274,4.846,4.8494,4.8528,4.8765,4.8798,4.8781,4.8595,4.8494,4.8071,4.7618,4.7196,4.6684,4.6244,4.572,4.5331,4.501,4.4902,4.4716,4.4649,4.4451,4.399,4.3265,4.2477,4.1834,4.1133,4.0675,4.022,4.0059,3.9835,3.9524,3.9444,3.9521,3.9459,3.9428,3.9398,3.9323,3.9444,3.9536,3.9674,3.9797,3.9582,3.9459,3.9721,3.9782,3.9431,3.9031,3.8816,3.8616,3.8385,4.3822,4.3939,4.3927,4.3969,4.4097,4.4196,4.4327,4.4412,4.4429,4.4429,4.4429,4.4429,4.4457,4.4468,4.4497,4.457,4.457,4.4615,4.4716,4.5314,4.528,4.5432,4.5602,4.5889,4.5635,4.5754,4.5991,4.6075,4.6092,4.6549,4.6684,4.6718,4.7039,4.6887,4.6684,4.6735,4.6667,4.6616,4.6583,4.6633,4.6735,4.6955,4.7175,4.7276,4.7445,4.7631,4.753,4.7361,4.7175,4.7192,4.7192,4.7192,4.7175,4.7192,4.731,4.7648,4.7986,4.8528,4.8832,4.8934,4.8815,4.8849,4.9018,4.9018,4.9018,4.8849,4.8883,4.8934,4.9018,4.9001,4.9001,4.9018,4.8968,4.8832,4.868,4.8227,4.777,4.7259,4.6904,4.638,4.5974,4.5618,4.5297,4.4919,4.4716,4.4461,4.4169,4.3419,4.2647,4.1933,4.1343,4.0873,4.0547,4.0343,4.0297,4.0262,4.0274,4.0459,4.0274,3.9997,4.0059,3.9951,4.0197,4.0351,4.0243,4.0197,4.0351,4.0413,4.0358,4.0281,4.0059,3.9644,3.9228,3.9108,3.9016,4.3969,4.4056,4.3956,4.3956,4.4085,4.4068,4.4097,4.4126,4.4126,4.4126,4.4126,4.4126,4.4241,4.431,4.4293,4.4423,4.457,4.4598,4.4767,4.4835,4.5026,4.5072,4.5246,4.5534,4.5652,4.5957,4.6261,4.6549,4.6769,4.7208,4.7192,4.7175,4.7699,4.7767,4.7665,4.7445,4.7259,4.7293,4.7293,4.7327,4.7411,4.7665,4.7885,4.8071,4.8325,4.8562,4.8494,4.8257,4.802,4.7953,4.7953,4.7906,4.7906,4.7936,4.8392,4.8731,4.89,4.8951,4.8984,4.9001,4.9018,4.9018,4.9018,4.9018,4.9018,4.9018,4.9018,4.9018,4.9018,4.9018,4.9018,4.9018,4.9001,4.8968,4.8968,4.8595,4.8189,4.78,4.7513,4.7124,4.6735,4.6413,4.621,4.5788,4.5263,4.5113,4.4788,4.3929,4.3079,4.1997,4.1425,4.0956,4.0665,4.0543,4.0558,4.0646,4.0489,4.0489,4.0489,4.032,4.0428,4.0478,4.0428,4.0443,4.0474,4.0558,4.0783,4.0749,4.065,4.0554,4.0613,4.0346,3.9948,4.0016,3.9982,4.3687,4.373,4.3704,4.3717,4.3747,4.3763,4.3864,4.4068,4.4097,4.4097,4.4097,4.4097,4.4138,4.431,4.431,4.444,4.4525,4.4682,4.501,4.5128,4.5145,4.5652,4.5838,4.5788,4.5754,4.5957,4.6363,4.6904,4.709,4.7614,4.8274,4.8477,4.8443,4.8595,4.8545,4.846,4.8308,4.8206,4.8156,4.8156,4.8189,4.846,4.8612,4.8731,4.8815,4.9018,4.8883,4.8798,4.8612,4.8646,4.868,4.868,4.8697,4.8697,4.8883,4.8934,4.8984,4.9001,4.9018,4.9018,4.9018,4.9018,4.9018,4.9018,4.9018,4.9018,4.9018,4.9018,4.9018,4.9018,4.9018,4.9018,4.9018,4.9018,4.9018,4.8832,4.8494,4.8409,4.8122,4.775,4.7378,4.709,4.6904,4.6549,4.6046,4.5951,4.5483,4.4583,4.3524,4.2446,4.1738,4.1276,4.1091,4.1024,4.0922,4.099,4.0715,4.0489,4.0681,4.0783,4.0734,4.0718,4.0593,4.0646,4.087,4.1057,4.1209,4.1176,4.1209,4.1192,4.1196,4.0907,4.0696,4.0593,4.0524,4.3615,4.3615,4.3615,4.3615,4.3615,4.3615,4.37,4.3894,4.3894,4.3894,4.3894,4.3894,4.3981,4.4126,4.4184,4.4298,4.4468,4.4587,4.4807,4.4993,4.5314,4.5382,4.5585,4.5821,4.5754,4.6024,4.6616,4.7327,4.7547,4.824,4.8968,4.8917,4.9018,4.9018,4.8951,4.8883,4.8934,4.8917,4.8934,4.9018,4.9018,4.9018,4.9018,4.9018,4.9018,4.9018,4.9018,4.9018,4.9018,4.9018,4.9018,4.9001,4.9001,4.8984,4.8984,4.9018,4.9018,4.9018,4.9018,4.9018,4.9018,4.9018,4.9018,4.9018,4.9018,4.9018,4.9018,4.9018,4.9018,4.9018,4.9018,4.9018,4.9018,4.9018,4.9018,4.9018,4.8984,4.8984,4.8697,4.8325,4.8003,4.7682,4.7378,4.7073,4.6904,4.6849,4.6363,4.5397,4.4224,4.2955,4.2349,4.1933,4.1706,4.1575,4.1509,4.1509,4.1393,4.1376,4.1525,4.1558,4.1276,4.1309,4.1459,4.1426,4.1426,4.1558,4.1673,4.1836,4.1852,4.1836,4.1754,4.1525,4.1125,4.0681,4.0593,4.3615,4.3615,4.3615,4.3615,4.3615,4.3615,4.3598,4.3615,4.3628,4.3615,4.3628,4.3645,4.3763,4.3939,4.4068,4.4212,4.4384,4.4514,4.4615,4.4632,4.4767,4.4902,4.5026,4.5229,4.5466,4.6109,4.6853,4.7564,4.8105,4.8646,4.9018,4.9018,4.9018,4.9018,4.9018,4.9018,4.9018,4.9018,4.9018,4.9018,4.9018,4.9018,4.9018,4.9018,4.9018,4.9018,4.9018,4.9018,4.9018,4.9018,4.9018,4.9018,4.9018,4.9018,4.9018,4.9018,4.9018,4.9018,4.9018,4.9018,4.9018,4.9018,4.9018,4.9018,4.9018,4.9018,4.9018,4.9018,4.9018,4.9018,4.9018,4.9018,4.9018,4.9018,4.9018,4.9018,4.9018,4.9018,4.89,4.8612,4.8443,4.8189,4.8223,4.7953,4.7767,4.7736,4.7241,4.6277,4.541,4.4056,4.3222,4.2793,4.2253,4.2157,4.2363,4.2332,4.23,4.2332,4.2363,4.2237,4.1949,4.2109,4.2458,4.2205,4.1933,4.1997,4.2109,4.2237,4.2284,4.2237,4.2173,4.2109,4.1706,4.1176,4.0749,4.3615,4.3615,4.3615,4.3615,4.3615,4.3615,4.3615,4.3615,4.3615,4.3615,4.3615,4.3645,4.3704,4.3868,4.4027,4.4155,4.431,4.4468,4.457,4.4598,4.4598,4.4598,4.4632,4.4959,4.5246,4.5838,4.6667,4.7733,4.8511,4.89,4.9018,4.9018,4.9018,4.9018,4.9018,4.9018,4.9018,4.9018,4.9018,4.9018,4.9018,4.9018,4.9018,4.9018,4.9018,4.9018,4.9018,4.9018,4.9018,4.9018,4.9018,4.9018,4.9018,4.9018,4.9018,4.9018,4.9018,4.9018,4.9018,4.9018,4.9018,4.9018,4.9018,4.9018,4.9018,4.9018,4.9018,4.9018,4.9018,4.9018,4.9018,4.9018,4.9018,4.9018,4.9018,4.9018,4.9018,4.9018,4.9018,4.8917,4.8781,4.8798,4.8866,4.8815,4.868,4.8376,4.7986,4.7376,4.7059,4.6046,4.468,4.3995,4.2854,4.2663,4.3035,4.3106,4.3061,4.2862,4.2769,4.2676,4.263,4.28,4.3,4.2645,4.2395,4.252,4.2583,4.2583,4.2614,4.2458,4.2707,4.2707,4.2458,4.1997,4.1343,4.3615,4.3615,4.3615,4.3615,4.3615,4.3615,4.3615,4.3615,4.3615,4.3615,4.3615,4.3598,4.3658,4.3809,4.3956,4.4085,4.4224,4.4384,4.4497,4.457,4.4621,4.4598,4.4682,4.4942,4.5314,4.5872,4.6887,4.7919,4.8849,4.9018,4.9018,4.9018,4.9018,4.9018,4.9018,4.9018,4.9018,4.9018,4.9018,4.9018,4.9018,4.9018,4.9018,4.9018,4.9018,4.9018,4.9018,4.9018,4.9018,4.9018,4.9018,4.9018,4.9018,4.9018,4.9018,4.9018,4.9018,4.9018,4.9018,4.9018,4.9018,4.9018,4.9018,4.9018,4.9018,4.9018,4.9018,4.9018,4.9018,4.9018,4.9018,4.9018,4.9018,4.9018,4.9018,4.9018,4.9018,4.9018,4.9018,4.8984,4.89,4.8917,4.8951,4.8951,4.8849,4.8832,4.8443,4.8088,4.7868,4.7733,4.6447,4.5403,4.4365,4.3957,4.4397,4.419,4.3739,4.3515,4.3438,4.3552,4.3737,4.3595,4.3486,4.3515,4.3394,4.3122,4.3152,4.3258,4.2585,4.2157,4.2724,4.335,4.3047,4.2787,4.2445,4.3615,4.3615,4.3615,4.3615,4.3615,4.3615,4.3615,4.3615,4.3615,4.3615,4.3615,4.3615,4.3615,4.3674,4.3809,4.3956,4.4085,4.4241,4.4384,4.4508,4.4671,4.4789,4.5088,4.5438,4.5877,4.6536,4.7496,4.8223,4.8984,4.9018,4.9018,4.9018,4.9018,4.9018,4.9018,4.9018,4.9018,4.9018,4.9018,4.9018,4.9018,4.9018,4.9018,4.9018,4.9018,4.9018,4.9018,4.9018,4.9018,4.9018,4.9018,4.9018,4.9018,4.9018,4.9018,4.9018,4.9018,4.9018,4.9018,4.9018,4.9018,4.9018,4.9018,4.9018,4.9018,4.9018,4.9018,4.9018,4.9018,4.9018,4.9018,4.9018,4.9018,4.9018,4.9018,4.9018,4.9018,4.9018,4.9018,4.9018,4.9018,4.9018,4.9018,4.9018,4.9018,4.9018,4.8866,4.8562,4.8308,4.824,4.7629,4.6928,4.6247,4.603,4.5865,4.5361,4.4754,4.4901,4.4905,4.4877,4.4885,4.4896,4.4892,4.4882,4.4699,4.441,4.4185,4.42,4.3353,4.2398,4.3111,4.3883,4.3462,4.3284,4.3537,4.3615,4.3615,4.3615,4.3615,4.3615,4.3615,4.3615,4.3615,4.3615,4.3615,4.3615,4.3615,4.3598,4.3628,4.3793,4.3927,4.3985,4.4147,4.416,4.4217,4.4913,4.5127,4.5467,4.611,4.6781,4.7504,4.8206,4.8748,4.9018,4.9018,4.9018,4.9018,4.9018,4.9018,4.9018,4.9018,4.9018,4.9018,4.9018,4.9018,4.9018,4.9018,4.9018,4.9018,4.9018,4.9018,4.9018,4.9018,4.9018,4.9018,4.9018,4.9018,4.9018,4.9018,4.9018,4.9018,4.9018,4.9018,4.9018,4.9018,4.9018,4.9018,4.9018,4.9018,4.9018,4.9018,4.9018,4.9018,4.9018,4.9018,4.9018,4.9018,4.9018,4.9018,4.9018,4.9018,4.9018,4.9018,4.9018,4.9018,4.9018,4.9018,4.9018,4.9018,4.9018,4.9018,4.9018,4.8748,4.8714,4.8697,4.8646,4.8206,4.7699,4.7242,4.6705,4.6418,4.6043,4.6215,4.621,4.594,4.594,4.6329,4.6329,4.5923,4.5954,4.584,4.5628,4.5039,4.4448,4.3717,4.4076,4.4393,4.3982,4.4082,4.4564]}]]